[[{"header":{"parameterUnit":"m.s-1","parameterCategory":1,"la1":30.6,"la2":29.2853,"lo1":-89.7004,"lo2":-87.6739,"dy":0.0162,"dx":0.0183,"nx":112,"ny":82,"refTime":"2023-11-06T06:00:00:Z","depth":0,"parameterNumber":2,"parameterNumberName":"U-component_of_WINDS"},"data":[0.0,0.0,0.0,0.0,0.0,0.0,0.0,0.0,0.0,0.0,0.0,0.0,0.0,0.0,0.0,0.0,0.0,0.0,0.0,0.0,0.0,0.0,0.0,0.0,0.0,0.0,0.0,0.0,0.0,0.0,0.0,0.0,0.0,0.0,0.0,0.0,0.0,0.0,0.0,0.0,0.0,0.0,0.0,0.0,0.0,0.0,0.0,0.0,0.0,0.0,0.0,0.0,0.0,0.0,0.0,0.0,0.0,0.0,0.0,0.0,0.0,0.0,0.0,0.0,0.0,0.0,0.0,0.0,0.0,0.0,0.0,0.0,0.0,0.0,0.0,0.0,0.0,0.0,0.0,0.0,0.0,0.0,0.0,0.0,0.0,0.0,0.0,0.0,0.0,0.0,1.0059,1.0105,1.0164,0.9907,0.9156,0.898,0.8803,0.8587,0.0,0.0,0.0,0.0,0.0,0.0,0.0,0.0,0.0,0.0,0.0,0.0,0.0,0.0,0.0,0.0,0.0,0.0,0.0,0.0,0.0,0.0,0.0,0.0,0.0,0.0,0.0,0.0,0.0,0.0,0.0,0.0,0.0,0.0,0.0,0.0,0.0,0.0,0.0,0.0,0.0,0.0,0.0,0.0,0.0,0.0,0.0,0.0,0.0,0.0,0.0,0.0,0.0,0.0,0.0,0.0,0.0,0.0,0.0,0.0,0.0,0.0,0.0,0.0,0.0,0.0,0.0,0.0,0.0,0.0,0.0,0.0,0.0,0.0,0.0,0.0,0.0,0.0,0.0,0.0,0.0,0.0,0.0,0.0,0.0,0.0,0.0,0.0,0.0,0.0,0.0,0.0,0.0,0.0,0.0,0.0,0.0,0.0,0.0,0.0,0.0,0.0,0.0,0.0,1.0167,1.0188,1.019,1.0147,1.0019,0.9886,0.967,0.9357,0.0,0.0,0.0,0.0,0.0,0.0,0.0,0.0,0.0,0.0,0.0,0.0,0.0,0.0,0.0,0.0,0.0,0.0,0.0,0.0,0.0,0.0,0.0,0.0,0.0,0.0,0.0,0.0,0.0,0.0,0.0,0.0,0.0,0.0,0.0,0.0,0.0,0.0,0.0,0.0,0.0,0.0,0.0,0.0,0.0,0.0,0.0,0.0,0.0,0.0,0.0,0.0,0.0,0.0,0.0,0.0,0.0,0.0,0.0,0.0,0.0,0.0,0.0,0.0,0.0,0.0,0.0,0.0,0.0,0.0,0.0,0.0,0.0,0.0,0.0,0.0,0.0,0.0,0.0,0.0,0.0,0.0,0.0,0.0,0.0,0.0,0.0,0.0,0.0,0.0,0.0,0.0,0.0,0.0,0.0,0.0,0.0,0.0,0.0,0.0,0.0,0.0,0.0,1.0528,1.0684,1.0241,1.0238,1.0236,1.0195,0.9708,0.9499,0.971,0.9076,0.0,0.0,0.0,0.0,0.0,0.0,0.0,0.0,0.0,0.0,0.0,0.0,0.0,0.0,0.0,0.0,0.0,0.0,0.0,0.0,0.0,0.0,0.0,0.0,0.0,0.0,0.0,0.0,0.0,0.0,0.0,0.0,0.0,0.0,0.0,0.0,0.0,0.0,0.0,0.0,0.0,0.0,0.0,0.0,0.0,0.0,0.0,0.0,0.0,0.0,0.0,0.0,0.0,0.0,0.0,0.0,0.0,0.0,0.0,0.0,0.0,0.0,0.0,0.0,0.0,0.0,0.0,0.0,0.0,0.0,0.0,0.0,0.0,0.0,0.0,0.0,0.0,0.0,0.0,0.0,0.0,0.0,0.0,0.0,0.0,0.0,0.0,0.0,0.0,0.0,0.0,0.0,0.0,0.0,0.0,0.0,0.0,0.0,0.0,0.0,0.0,0.0,1.0831,1.088,1.0278,1.0248,1.0254,1.0234,0.9594,0.9407,0.9908,0.9401,0.0,0.0,0.0,0.0,0.0,0.0,0.0,0.0,0.0,0.0,0.0,0.0,0.0,0.0,0.0,0.0,0.0,0.0,0.0,0.0,0.0,0.0,0.0,0.0,0.0,0.0,0.0,0.0,0.0,0.0,0.0,0.0,0.0,0.0,0.0,0.0,0.0,0.0,0.0,0.0,0.0,0.0,0.0,0.0,0.0,0.0,0.0,0.0,0.0,0.0,0.0,0.0,0.0,0.0,0.0,0.0,0.0,0.0,0.0,0.0,0.0,0.0,0.0,0.0,0.0,0.0,0.0,0.0,0.0,0.0,0.0,0.0,0.0,0.0,0.0,0.0,0.0,0.0,0.0,0.0,0.0,0.0,0.0,0.0,0.0,0.0,0.0,0.0,0.0,0.0,0.0,0.0,0.0,0.0,0.0,0.0,0.0,0.0,0.0,0.0,0.0,0.0,1.0705,1.0259,1.0207,1.0209,1.0234,1.0293,1.0122,1.0047,1.0086,0.9986,0.0,0.0,0.0,0.0,0.0,0.0,0.0,0.0,0.0,0.0,0.0,0.0,0.0,0.0,0.0,0.0,0.0,0.0,0.0,0.0,0.0,0.0,0.0,0.0,0.0,0.0,0.0,0.0,0.0,0.0,0.0,0.0,0.0,0.0,0.0,0.0,0.0,0.0,0.0,0.0,0.0,0.0,0.0,0.0,0.0,0.0,0.0,0.0,0.0,0.0,0.0,0.0,0.0,0.0,0.0,0.0,0.0,0.0,0.0,0.0,0.0,0.0,0.0,0.0,0.0,0.0,0.0,0.0,0.0,0.0,0.0,0.0,0.0,0.0,0.0,0.0,0.0,0.0,0.0,0.0,0.0,0.0,0.0,0.0,0.0,0.0,0.0,0.0,0.0,0.0,0.0,0.0,0.0,0.0,0.0,0.0,0.0,0.0,0.0,0.0,0.0,0.0,1.1169,1.0803,0.0,1.0198,1.0234,1.0293,1.0213,1.0148,1.0106,0.0,0.0,0.0,0.0,0.0,0.0,0.0,0.0,0.0,0.0,0.0,0.0,0.0,0.0,0.0,0.0,0.0,0.0,0.0,0.0,0.0,0.0,0.0,0.0,0.0,0.0,0.0,0.0,0.0,0.0,0.0,0.0,0.0,0.0,0.0,0.0,0.0,0.0,0.0,0.0,0.0,0.0,0.0,0.0,0.0,0.0,0.0,0.0,0.0,0.0,0.0,0.0,0.0,0.0,0.0,0.0,0.0,0.0,0.0,0.0,0.0,0.0,0.0,0.0,0.0,0.0,0.0,0.0,0.0,0.0,0.0,0.0,0.0,0.0,0.0,0.0,0.0,0.0,0.0,0.0,0.0,0.0,0.0,0.0,0.0,0.0,0.0,0.0,0.0,0.0,0.0,0.0,0.0,0.0,0.0,0.0,0.0,0.0,0.0,0.0,0.0,0.0,1.1896,1.1385,1.0868,0.0,1.0198,1.0226,1.0293,1.0234,1.0187,1.0132,0.0,0.0,0.0,0.0,0.0,0.0,0.0,0.0,0.0,0.0,0.0,0.0,0.0,0.0,0.0,0.0,0.0,0.0,0.0,0.0,0.0,0.0,0.0,0.0,0.0,0.0,0.0,0.0,0.0,0.0,0.0,0.0,0.0,0.0,0.0,0.0,0.0,0.0,0.0,0.0,0.0,0.0,0.0,0.0,0.0,0.0,0.0,0.0,0.0,0.0,0.0,0.0,0.0,0.0,0.0,0.0,0.0,0.0,0.0,0.0,0.0,0.0,0.0,0.0,0.0,0.0,0.0,0.0,0.0,0.0,0.0,0.0,0.0,0.0,0.0,0.0,0.0,0.0,0.0,0.0,0.0,0.0,0.0,0.0,0.0,0.0,0.0,0.0,0.0,0.0,0.0,0.0,0.0,0.0,0.0,0.0,0.0,0.0,0.0,0.0,0.0,0.0,1.27,1.1237,1.0194,1.0194,1.0194,1.023,1.0292,1.0234,1.0192,0.0,0.0,0.0,0.0,0.0,0.0,0.0,0.0,0.0,0.0,0.0,0.0,0.0,0.0,0.0,0.0,0.0,0.0,0.0,0.0,0.0,0.0,0.0,0.0,0.0,0.0,0.0,0.0,0.0,0.0,0.0,0.0,0.0,0.0,0.0,0.0,0.0,0.0,0.0,0.0,0.0,0.0,0.0,0.0,0.0,0.0,0.0,0.0,0.0,0.0,0.0,0.0,0.0,0.0,0.0,0.0,0.0,0.0,0.0,0.0,0.0,0.0,0.0,0.0,0.0,0.0,0.0,0.0,0.0,0.0,0.0,0.0,0.0,0.0,0.0,0.0,0.0,0.0,0.0,0.0,0.0,0.0,0.0,0.0,0.0,0.0,0.0,0.0,0.0,0.0,0.0,0.0,0.0,0.0,0.0,0.0,0.0,0.0,0.0,0.0,0.0,0.0,0.0,1.27,1.1194,1.0143,1.0183,1.0207,1.0238,1.0293,1.0273,1.025,1.0197,0.0,0.0,0.0,0.0,0.0,0.0,0.0,0.0,0.0,0.0,0.0,0.0,0.0,0.0,0.0,0.0,0.0,0.0,0.0,0.0,0.0,0.0,0.0,0.0,0.0,0.0,0.0,0.0,0.0,0.0,0.0,0.0,0.0,0.0,0.0,0.0,0.0,0.0,0.0,0.0,0.0,0.0,0.0,0.0,0.0,0.0,0.0,0.0,0.0,0.0,0.0,0.0,0.0,0.0,0.0,0.0,0.0,0.0,0.0,0.0,0.0,0.0,0.0,0.0,0.0,0.0,0.0,0.0,0.0,0.0,0.0,0.0,0.0,0.0,0.0,0.0,0.0,0.0,0.0,0.0,0.0,0.0,0.0,0.0,0.0,0.0,0.0,0.0,0.0,0.0,0.0,0.0,0.0,0.0,0.0,0.0,0.0,0.0,0.0,0.0,0.0,0.0,1.2704,1.1194,1.0159,1.0191,1.0201,1.0226,1.0293,1.0293,1.0272,1.0202,0.0,0.0,0.0,0.0,0.0,0.0,0.0,0.0,0.0,0.0,0.0,0.0,0.0,0.0,0.0,0.0,0.0,0.0,0.0,0.0,0.0,0.0,0.0,0.0,0.0,0.0,0.0,0.0,0.0,0.0,0.0,0.0,0.0,0.0,0.0,0.0,0.0,0.0,0.0,0.0,0.0,0.0,0.0,0.0,0.0,0.0,0.0,0.0,0.0,0.0,0.0,0.0,0.0,0.0,0.0,0.0,0.0,0.0,0.0,0.0,0.0,0.0,0.0,0.0,0.0,0.0,0.0,0.0,0.0,0.0,0.0,0.0,0.0,0.0,0.0,0.0,0.0,0.0,0.0,0.0,0.0,0.0,0.0,0.0,0.0,0.0,0.0,0.0,0.0,0.0,0.0,0.0,0.0,0.0,0.0,0.0,0.0,0.0,0.0,0.0,0.0,0.0,1.2796,1.1271,1.0252,1.0406,1.0282,1.0254,1.0391,1.0332,1.0273,1.0195,0.0,0.0,0.0,0.0,0.0,0.0,0.0,0.0,0.0,0.0,0.0,0.0,0.0,0.0,0.0,0.0,0.0,0.0,0.0,0.0,0.0,0.0,0.0,0.0,0.0,0.0,0.0,0.0,0.0,0.0,0.0,0.0,0.0,0.0,0.0,0.0,0.0,0.0,0.0,0.0,0.0,0.0,0.0,0.0,0.0,0.0,0.0,0.0,0.0,0.0,0.0,0.0,0.0,0.0,0.0,0.0,0.0,0.0,0.0,0.0,1.6602,0.0,0.0,0.0,0.0,0.0,0.0,0.0,0.0,0.0,0.0,0.0,0.0,0.0,0.0,0.0,0.0,0.0,0.0,0.0,0.0,0.0,0.0,0.0,0.0,0.0,0.0,0.0,0.0,0.0,0.0,0.0,0.0,0.0,0.0,0.0,0.0,0.0,0.0,0.0,0.0,0.0,1.3555,1.1575,1.066,1.202,1.0986,1.0475,1.1172,1.0664,1.0273,1.0195,1.0192,0.0,0.0,0.0,0.0,0.0,0.0,0.0,0.0,0.0,0.0,0.0,0.0,0.0,0.0,0.0,0.0,0.0,0.0,0.0,0.0,0.0,0.0,0.0,0.0,0.0,0.0,0.0,0.0,0.0,0.0,0.0,0.0,0.0,0.0,0.0,0.0,0.0,0.0,0.0,0.0,0.0,0.0,0.0,0.0,0.0,0.0,0.0,0.0,0.0,0.0,0.0,0.0,0.0,0.0,0.0,0.0,0.0,0.0,0.0,0.0,1.7491,0.0,0.0,0.0,0.0,0.0,0.0,0.0,0.0,0.0,0.0,0.0,0.0,0.0,0.0,0.0,0.0,0.0,0.0,0.0,0.0,0.0,0.0,0.0,0.0,0.0,0.0,0.0,0.0,0.0,0.0,0.0,0.0,0.0,0.0,0.0,0.0,0.0,0.0,0.0,0.0,1.3792,1.2382,1.1703,1.2603,1.1914,1.1424,1.1484,1.1113,1.0703,1.0273,1.0215,0.0,0.0,0.0,0.0,0.0,0.0,0.0,0.0,0.0,0.0,0.0,0.0,0.0,0.0,0.0,0.0,0.0,0.0,0.0,0.0,0.0,0.0,0.0,0.0,0.0,0.0,0.0,0.0,0.0,0.0,0.0,0.0,0.0,0.0,0.0,0.0,0.0,0.0,0.0,0.0,0.0,0.0,0.0,0.0,0.0,0.0,0.0,0.0,0.0,0.0,0.0,0.0,0.0,2.0257,2.0327,2.0435,2.0437,2.0076,1.9461,1.9938,1.8725,1.6467,1.7681,0.0,0.0,0.0,0.0,0.0,0.0,0.0,0.0,0.0,0.0,0.0,0.0,0.0,0.0,0.0,0.0,0.0,0.0,0.0,0.0,0.0,0.0,0.0,0.0,1.6231,1.4993,0.0,0.0,0.0,0.0,0.0,0.0,0.0,0.0,0.0,0.0,0.0,0.0,1.4023,1.3254,1.2801,1.3099,1.2877,1.244,1.1765,1.1579,1.1151,1.0331,1.0233,1.029,0.0,0.0,0.0,0.0,0.0,0.0,0.0,0.0,0.0,0.0,0.0,0.0,0.0,0.0,0.0,0.0,0.0,0.0,0.0,0.0,0.0,0.0,0.0,0.0,0.0,0.0,0.0,0.0,0.0,0.0,0.0,0.0,1.5879,1.5609,0.0,0.0,0.0,0.0,0.0,0.0,0.0,0.0,0.0,0.0,0.0,0.0,0.0,2.0112,2.0003,2.0291,2.0441,2.0454,2.0513,2.0562,2.0565,2.0564,2.0488,2.0324,2.0404,0.0,1.7368,1.6823,0.0,0.0,0.0,0.0,0.0,0.0,0.0,0.0,0.0,0.0,0.0,0.0,0.0,0.0,0.0,0.0,0.0,0.0,0.0,0.0,0.0,0.0,1.569,1.5689,1.552,1.5124,0.0,1.4656,1.5217,1.5129,1.4579,0.0,0.0,0.0,0.0,0.0,0.0,0.0,1.4928,1.3651,1.3258,1.4714,1.3564,1.2661,1.256,1.1904,1.1125,1.0263,1.0205,1.0545,1.1312,1.2168,0.0,0.0,0.0,0.0,0.0,0.0,0.0,0.0,0.0,0.0,0.0,0.0,0.0,0.0,0.0,0.0,0.0,0.0,0.0,0.0,0.0,0.0,0.0,0.0,0.0,0.0,0.0,0.0,0.0,1.6617,1.6881,1.6659,1.7562,1.8181,0.0,0.0,0.0,0.0,0.0,0.0,0.0,0.0,0.0,1.9507,2.0059,2.0373,2.0373,2.0487,2.0799,2.1269,2.0814,2.0605,2.0605,2.0598,2.057,2.0551,2.0522,1.9737,1.8459,1.7915,1.7475,1.7089,0.0,0.0,0.0,0.0,1.8046,1.8887,1.8591,1.7928,0.0,1.7835,0.0,0.0,0.0,0.0,0.0,0.0,0.0,0.0,0.0,0.0,1.6125,1.6123,1.5767,1.5296,1.491,1.5073,1.5172,0.0,1.5075,1.5586,1.5955,0.0,0.0,0.0,0.0,1.4736,1.5057,1.4512,1.4387,1.5112,1.453,1.3923,1.347,1.2663,1.2006,1.1624,1.1172,1.1304,1.2147,1.3008,1.3648,0.0,0.0,0.0,0.0,0.0,0.0,0.0,0.0,0.0,0.0,0.0,0.0,0.0,0.0,0.0,0.0,0.0,0.0,0.0,0.0,0.0,0.0,0.0,0.0,0.0,0.0,0.0,0.0,1.6865,1.7527,1.7364,1.8227,1.8839,0.0,0.0,0.0,0.0,0.0,0.0,2.0079,2.0012,1.9904,1.9825,2.0486,2.0967,2.1152,2.123,2.1484,2.1894,2.1445,2.1016,2.0605,2.082,2.0801,2.0605,2.0547,2.0027,1.9189,1.8968,1.8083,1.6929,1.7473,1.8191,1.8888,1.872,1.9295,2.0117,1.9744,1.9016,1.831,1.8741,0.0,1.6497,1.7643,0.0,0.0,0.0,0.0,1.7298,1.7089,1.7021,1.7031,1.7031,1.6543,1.6054,1.6036,1.6188,1.5986,0.0,1.5394,1.6064,1.651,0.0,0.0,0.0,0.0,1.5152,1.5056,1.514,1.5189,1.5189,1.5189,1.4876,1.4046,1.3387,1.2921,1.27,1.2147,1.2084,1.2676,1.3532,1.4007,1.4021,0.0,0.0,0.0,0.0,0.0,0.0,0.0,0.0,0.0,0.0,0.0,0.0,0.0,0.0,0.0,0.0,0.0,0.0,0.0,0.0,0.0,0.0,0.0,0.0,0.0,0.0,0.0,0.0,0.0,1.6146,1.7571,0.0,0.0,0.0,0.0,1.9198,1.8952,1.9183,2.015,1.9585,2.0013,2.1705,2.1806,2.2202,2.2969,2.3047,2.2676,2.1914,2.2637,2.2148,2.0625,2.1465,2.1387,2.0605,2.0605,2.0066,1.9184,1.9124,1.8912,1.8678,1.8716,1.9259,1.9924,1.9087,1.9476,2.0158,1.8564,1.8505,1.9011,1.8213,1.8391,1.8915,1.8992,1.9581,0.0,0.0,1.9062,1.8898,1.8131,1.7929,1.793,1.793,1.7891,1.7841,1.7787,1.8428,1.8505,0.0,1.5217,1.4651,1.6221,0.0,1.4334,1.5145,1.5228,1.5189,1.5189,1.5209,1.5189,1.5189,1.5189,1.4843,1.3973,1.3857,1.3517,1.2757,1.2661,1.2651,1.2708,1.3546,1.4027,1.4078,1.4895,0.0,0.0,0.0,0.0,0.0,0.0,0.0,0.0,0.0,0.0,0.0,0.0,0.0,0.0,0.0,0.0,0.0,0.0,0.0,0.0,0.0,0.0,0.0,0.0,0.0,0.0,0.0,0.0,1.8385,1.8531,0.0,1.9183,1.8749,1.8744,1.9531,1.9171,1.9577,2.1083,2.0986,2.1439,2.2623,2.2662,2.3081,2.3932,2.3405,2.3262,2.3516,2.3262,2.2852,2.2285,2.2559,2.25,2.2207,2.2207,2.201,2.1704,2.1687,2.0308,1.8279,1.8839,1.9243,1.9558,1.9742,2.0095,2.0377,1.9776,1.9444,1.9104,1.8194,1.848,1.9156,1.9163,1.9773,2.0292,1.9435,1.9234,1.9207,1.8905,1.8381,1.8077,1.8644,1.8317,1.7855,1.7844,1.8082,1.8278,1.823,1.7709,1.7458,1.801,1.7151,1.6478,1.6772,1.6369,1.583,1.5266,1.5189,1.5189,1.5189,1.5189,1.5074,1.4766,1.4228,1.4017,1.4291,1.3791,1.3728,1.4299,1.4613,1.4805,1.4876,1.5154,1.5298,0.0,0.0,0.0,0.0,0.0,0.0,0.0,0.0,0.0,0.0,0.0,0.0,0.0,0.0,0.0,0.0,0.0,0.0,0.0,0.0,0.0,0.0,0.0,0.0,0.0,0.0,1.9078,1.9859,1.9505,1.9525,2.0227,1.9534,1.9263,1.976,1.9868,2.0431,2.1636,2.1787,2.2363,2.3496,2.3543,2.3966,2.4827,2.4264,2.4121,2.4394,2.416,2.375,2.3203,2.3437,2.3398,2.3125,2.3125,2.3125,2.3105,2.31,2.1734,1.9701,2.0274,2.0495,2.0571,2.1105,2.1351,2.141,2.141,2.1051,2.0486,1.9854,2.0044,2.0527,2.0512,2.092,2.1254,2.0701,2.057,2.0527,2.0254,1.9702,1.9292,1.9577,1.9143,1.8672,1.8672,1.8661,1.8808,1.9377,1.9035,1.8703,1.8953,1.828,1.7702,1.7702,1.7253,1.6696,1.6118,1.6042,1.6042,1.6042,1.5811,1.5638,1.5638,1.5112,1.4901,1.517,1.492,1.4901,1.5189,1.5189,1.5234,1.5291,1.5294,1.5555,1.6072,0.0,0.0,0.0,0.0,0.0,0.0,0.0,0.0,0.0,0.0,0.0,0.0,0.0,0.0,0.0,0.0,0.0,0.0,0.0,0.0,0.0,0.0,0.0,1.8696,1.9542,2.0228,2.03,2.0439,2.0556,2.059,2.0942,2.0807,1.9953,2.1043,2.1759,2.1776,2.1904,2.2734,2.4394,2.4434,2.4844,2.5684,2.5703,2.5273,2.4453,2.5293,2.4844,2.3301,2.4082,2.4023,2.3281,2.3281,2.3242,2.3184,2.3184,2.3173,2.3178,2.3058,2.3032,2.3095,2.3095,2.3134,2.3203,2.3203,2.3164,2.3105,2.3105,2.3092,2.3095,2.3095,2.3128,2.3144,2.3184,2.3164,2.2949,2.2129,2.1843,2.1583,2.0704,2.0446,2.0408,2.0408,2.035,2.0312,2.0312,1.8946,1.8049,1.8895,1.8337,1.7779,1.7741,1.7741,0.0,1.7702,1.7702,1.7722,1.7741,1.7042,1.658,1.658,1.6542,1.6176,1.5311,1.6003,1.6099,1.5266,1.5228,1.5291,1.5368,1.5368,1.6117,1.7594,0.0,0.0,0.0,0.0,0.0,0.0,0.0,0.0,0.0,0.0,0.0,0.0,0.0,0.0,0.0,0.0,0.0,0.0,0.0,0.0,0.0,0.0,1.9948,1.9965,2.0237,2.0972,2.2413,2.2014,2.1868,2.2595,2.2388,2.2087,2.1858,2.2334,2.292,2.356,2.3662,2.4219,2.5312,2.5332,2.5469,2.5703,2.5703,2.5562,2.5265,2.5564,2.543,2.4941,2.5215,2.5215,2.5019,2.5019,2.5,2.498,2.498,2.4999,2.4858,2.3569,2.3114,2.3161,2.3122,2.3138,2.3203,2.3203,2.3164,2.3105,2.3164,2.314,2.3103,2.3161,2.3588,2.3906,2.3301,2.3574,2.3711,2.2266,2.1806,2.1515,2.0619,2.0389,2.0331,2.0331,2.0312,2.0312,2.0312,1.9908,1.9658,1.9908,1.9735,1.9369,1.8742,1.8638,0.0,1.7773,1.7702,1.7933,1.8588,1.8434,1.8311,1.8304,1.7734,1.7023,1.6195,1.5772,1.5734,1.6138,1.6138,1.6426,1.7023,1.7042,1.7231,0.0,0.0,0.0,0.0,0.0,0.0,0.0,0.0,0.0,0.0,0.0,0.0,0.0,0.0,0.0,0.0,0.0,0.0,0.0,0.0,0.0,0.0,2.006,2.0834,2.1756,2.1521,2.1801,2.3318,2.2966,2.2858,2.3445,2.3251,2.2961,2.2637,2.3496,2.4126,2.4284,2.4718,2.5176,2.5684,2.5703,2.5703,2.5703,2.5703,2.5687,2.5651,2.5673,2.5673,2.5644,2.5684,2.5703,0.0,2.5703,2.5703,2.5703,2.5703,2.5703,0.0,0.0,0.0,0.0,0.0,2.4219,2.4258,2.4258,2.4219,2.4199,2.4238,2.4219,2.4199,2.4238,2.457,2.4844,2.4336,2.4551,2.4648,2.3281,2.2869,2.2562,2.1695,2.1139,2.0812,2.0839,2.057,2.0312,2.0312,2.0312,0.0,2.0312,2.0312,2.0139,1.9619,1.9831,1.9727,1.8907,1.9388,1.9754,1.9561,1.9542,1.9388,1.9023,1.8542,0.0,0.0,0.0,1.6869,1.7003,1.7003,0.0,0.0,0.0,1.7901,1.8517,0.0,0.0,0.0,1.8121,1.761,0.0,0.0,0.0,0.0,0.0,0.0,0.0,0.0,0.0,0.0,0.0,0.0,0.0,0.0,0.0,0.0,2.0792,2.1657,2.3572,2.3068,2.2798,2.3606,2.3687,2.3687,2.3701,2.3869,2.3662,2.2963,2.4523,2.5197,2.4475,0.0,0.0,0.0,0.0,2.5703,2.5703,2.5703,2.5703,2.5683,2.5698,2.5692,2.5698,2.5703,2.5703,2.5703,2.5703,2.5703,2.5703,2.5703,2.5703,2.5703,2.5703,2.5703,2.5703,2.5703,2.5703,2.5703,2.5703,0.0,0.0,2.5703,2.5703,2.5703,2.5703,2.5703,2.5703,2.5703,2.5703,2.5508,2.4625,2.4339,2.4086,2.3199,2.2293,2.1666,2.1721,2.1136,2.0581,2.0581,2.0581,2.0581,2.0581,2.0427,2.0312,2.0312,2.0985,2.1235,2.0542,2.1812,2.2274,2.0889,0.0,0.0,1.9492,1.9338,1.8876,1.7914,1.8573,1.865,1.7876,1.8023,1.844,1.9086,1.8448,1.8774,2.0131,2.0066,2.0364,2.0914,1.8559,1.7716,0.0,0.0,0.0,0.0,0.0,0.0,0.0,0.0,0.0,0.0,0.0,0.0,0.0,0.0,0.0,2.0625,2.1545,2.2683,2.3861,2.3861,2.4052,2.4847,2.4805,2.4762,2.4933,2.4994,2.4946,2.4793,2.5226,2.544,2.5274,2.5535,2.5703,2.5703,2.5703,2.5703,2.5703,2.5703,2.5664,2.5625,0.0,0.0,2.5615,2.5679,2.5703,2.5703,2.5703,2.5703,2.5703,2.5703,2.5703,2.5703,2.5703,2.5703,2.5703,2.5703,2.5703,2.5703,2.5703,2.5703,2.5703,2.5703,2.5703,2.5703,2.5703,2.5703,0.0,2.5703,2.5703,2.5482,2.4562,2.4316,2.4067,2.3135,2.2726,2.2543,2.2571,2.2436,2.2312,2.2312,2.2312,2.2312,2.2312,2.1196,2.0312,2.0312,2.0985,2.1446,2.1293,2.2158,2.2947,2.3321,2.3379,2.3013,2.2147,2.1427,2.0369,1.8838,1.8907,1.8919,1.8761,2.0042,2.0823,2.0971,2.1498,2.1931,2.2211,2.2113,2.2026,2.1988,2.1324,2.1016,0.0,0.0,0.0,0.0,0.0,0.0,0.0,0.0,0.0,0.0,0.0,1.8932,0.0,0.0,2.0847,2.192,2.2634,2.3443,2.4543,2.4697,2.4851,2.5245,2.5214,2.5192,2.5284,2.5303,2.5303,2.5303,2.539,2.5459,2.5503,2.5593,2.5664,2.5703,2.5703,2.5703,2.5703,2.5703,2.5684,2.5644,2.5684,2.5672,2.5649,2.5675,2.5703,2.5703,2.5703,2.5703,2.5703,2.5703,2.5703,2.5703,2.5703,2.5703,2.5703,2.5703,2.5703,2.5703,2.5703,2.5703,2.5703,2.5703,2.5703,2.5703,2.5703,2.5703,2.5703,2.5703,2.5703,2.5577,2.5081,2.4924,2.4768,2.4273,2.3784,2.3456,2.3456,2.3109,2.2793,2.2793,2.2793,2.2793,2.2793,2.21,2.1543,2.1543,2.2254,2.2639,2.2216,2.3254,2.3908,2.3494,2.3841,2.3744,2.287,2.2389,2.1793,2.0954,2.0908,2.0908,2.0897,2.1716,2.2113,2.2058,2.248,2.2642,2.256,2.2817,2.29,2.282,2.3017,2.2626,0.0,0.0,0.0,0.0,0.0,0.0,0.0,0.0,1.8889,1.9085,1.9363,1.9739,2.0391,2.0816,2.1603,2.3234,2.3701,2.42,2.5168,2.5303,2.5303,2.5303,2.5303,2.5303,2.5303,2.5303,2.5303,2.5303,2.537,2.5415,2.5479,2.5537,2.5604,2.5684,2.5684,2.5684,2.5703,2.5703,2.5703,2.5703,2.5703,2.5703,2.5703,2.5703,2.5703,2.5703,2.5703,2.5703,2.5703,2.5703,2.5703,2.5703,2.5703,2.5703,2.5703,2.5703,2.5703,2.5703,2.5703,2.5703,2.5703,2.5703,2.5703,2.5703,2.5703,2.5703,2.5703,2.5703,2.5699,2.5668,2.5604,2.5524,2.5466,2.5409,2.4832,2.4341,2.4341,2.3774,2.3293,2.3293,2.3293,2.3293,2.3293,2.3312,2.3197,2.2851,2.3552,2.386,2.3148,2.437,2.4793,2.3428,2.3908,2.3995,2.3129,2.2889,2.2793,2.2793,2.2793,2.2793,2.2793,2.2947,2.3007,2.2889,2.3042,2.3034,2.2824,2.338,2.3633,2.3606,2.4096,2.3566,1.8589,1.8973,1.9378,2.012,1.9996,2.0032,0.0,0.0,2.1057,2.1076,2.1298,2.1494,2.1603,2.2464,2.3234,2.3464,2.44,2.5138,2.5284,2.5303,2.5303,2.5303,2.5303,2.5303,2.5303,2.5303,2.5303,2.5303,2.537,2.5399,2.5408,2.5473,2.5531,2.5605,2.5605,2.5644,2.5703,2.5703,2.5703,2.5703,2.5703,2.5703,2.5703,2.5703,2.5703,2.5703,2.5703,2.5703,2.5703,2.5703,2.5703,2.5703,2.5703,2.5703,2.5703,2.5703,2.5703,2.5703,2.5703,2.5703,2.5703,2.5703,2.5703,2.5703,2.5703,2.5703,2.5703,2.5703,2.5671,2.5603,2.5537,2.5468,2.539,2.5322,2.5245,2.5178,2.5178,2.5091,2.5014,2.5014,2.5014,2.5034,2.5101,2.512,2.4582,2.3024,2.3552,2.4052,2.3975,2.4736,2.5226,2.5034,2.5111,2.4832,2.4014,2.3244,2.2793,2.2793,2.2793,2.2793,2.2793,2.3552,2.3947,2.3938,2.4639,2.4894,2.47,2.4771,2.4739,2.4643,2.4708,2.4452,1.9555,2.0205,2.0645,2.0705,2.0929,2.1238,2.1601,2.1544,2.1442,2.1607,2.178,2.2043,2.2445,2.3052,2.3666,0.0,2.4752,2.5163,2.5274,2.5303,2.5303,2.5303,2.5755,2.6063,2.6063,2.6524,2.6813,2.6813,2.6832,2.6881,2.6969,2.7003,2.705,2.7179,2.7173,2.6934,2.6465,2.6465,2.6191,2.5703,2.5703,2.5703,2.5703,2.5703,2.5703,2.5703,2.5703,2.5703,2.5703,2.5703,2.5703,2.5703,2.5703,2.5703,2.5703,2.5703,2.5703,2.5703,2.5703,2.5703,2.5703,2.5703,2.5703,2.5703,2.5703,2.5703,2.5703,2.5703,2.5649,2.5592,2.5514,2.5444,2.539,2.5322,2.5303,2.5303,2.5303,2.5303,2.5303,2.5303,2.5303,2.5322,2.539,2.5409,2.5167,2.4471,2.4679,2.4909,2.4909,2.5178,2.5341,2.5303,2.5303,2.5149,2.4832,2.4466,2.4255,2.4255,2.4255,2.4255,2.4255,2.4601,2.4793,2.4793,2.5139,2.5264,2.5173,2.5065,2.4974,2.4917,2.4828,2.4639,2.035,2.1133,2.1784,2.1503,2.1952,2.2395,2.2282,2.2264,2.2301,2.2497,2.2627,2.2856,2.341,2.3735,2.4111,2.4742,2.4981,2.5122,2.5274,2.5303,2.538,2.563,2.6217,2.6774,2.7236,2.7659,2.789,2.789,2.792,2.7969,2.8068,2.8096,2.8143,2.828,2.8276,2.7975,2.7363,2.7129,2.668,2.6055,2.5801,2.5703,2.5703,2.5703,2.5703,2.5703,2.5703,2.5703,2.5703,2.5703,2.5703,2.5703,2.5703,2.5703,2.5703,2.5703,2.5703,2.5703,2.5703,2.5703,2.5703,2.5703,2.5703,2.5703,2.5703,2.5703,2.5703,2.5703,2.5655,2.5592,2.5524,2.5447,2.539,2.5322,2.5303,2.5303,2.5303,2.5303,2.5303,2.5303,2.5303,2.5322,2.5409,2.5427,2.5468,2.5537,2.557,2.5539,2.5474,2.5418,2.5341,2.5303,2.5303,2.5303,2.5303,2.5303,2.5303,2.5303,2.5303,2.5303,2.5303,2.5303,2.5303,2.5303,2.5303,2.5274,2.5214,2.5077,2.501,2.501,2.4904,2.4756,2.0767,2.145,2.2542,2.2795,2.3043,2.3454,2.4217,2.4403,2.4403,2.442,2.442,2.4487,2.4708,2.4866,2.496,2.4979,2.5163,2.5284,2.5303,2.5303,2.561,2.6467,2.6582,2.7236,0.0,2.8332,2.789,2.789,2.7958,2.8007,2.7988,2.8061,2.8126,2.8203,2.8193,2.8223,2.8262,2.7422,2.6992,2.6953,2.6094,2.5703,2.5703,2.5703,2.5703,2.5703,2.5703,2.5703,2.5703,2.5703,2.5703,2.5703,2.5703,2.5703,2.5703,2.5703,2.5703,2.5703,2.5703,2.5703,2.5703,2.5703,2.5703,2.5703,2.5703,2.5703,2.5703,2.5703,2.5644,2.5572,2.5526,2.5447,2.539,2.5322,2.5303,2.5303,2.5303,2.5303,2.5303,2.5303,2.5303,2.5341,2.5466,2.5498,2.5547,2.5668,2.5683,2.5624,2.5434,2.5346,2.5303,2.5303,2.5303,2.5303,2.5303,2.5303,2.5303,2.5303,2.5303,2.5303,2.5303,2.5303,2.5303,2.5303,2.5303,2.5203,2.501,2.501,2.501,2.501,2.4998,2.493,2.1886,2.2646,2.3436,2.3209,2.3737,2.4362,2.4644,2.47,2.47,2.47,2.4356,2.4028,2.3959,2.4193,2.4358,2.424,2.4818,2.5303,2.5303,2.5303,2.561,2.6505,2.7101,0.0,0.0,0.0,0.0,2.9525,2.9621,2.9669,2.9722,2.9793,2.9877,2.9998,2.9982,2.9728,2.918,2.8867,2.8437,2.7851,2.7578,2.7422,2.7422,2.7422,2.7422,2.7422,2.7422,2.7109,2.6562,2.6562,2.6211,2.5703,2.5703,2.5703,2.5703,2.5703,2.6074,2.6484,2.5898,2.5703,2.5703,2.5703,2.5703,2.5703,2.5703,2.5703,2.5703,2.5703,2.5644,2.5582,2.5526,2.5448,2.539,2.5322,2.5303,2.5303,2.5303,2.5303,2.5303,2.5303,2.5303,2.5341,2.5486,2.5498,2.5559,2.5687,2.5693,2.5639,2.5495,2.5438,2.5409,2.5303,2.5303,2.5303,2.5303,2.5303,2.5303,2.5303,2.5303,2.5303,2.5303,2.5303,2.5303,2.5303,2.5303,2.5264,2.5203,2.5779,2.6058,2.6058,2.6058,2.59,2.3102,2.3713,2.4219,2.3975,2.4384,2.4864,2.4864,2.4864,2.4864,2.4864,2.4239,2.379,2.4094,2.4064,2.4071,2.4307,2.4887,2.5399,2.5707,2.5774,2.6197,2.7351,2.7986,2.8775,0.0,0.0,0.0,3.0379,3.0775,3.0887,3.0613,3.1008,3.1139,3.0918,3.0898,3.0625,3.0078,2.9766,2.916,2.8301,2.7988,2.8008,2.8301,2.8301,2.8301,2.8301,2.8301,2.7812,2.6992,2.6992,2.6484,2.5703,2.5703,2.5703,2.5742,2.6055,2.6523,2.6875,2.5996,2.5898,2.6113,2.5801,2.5703,2.5703,2.5703,2.5703,2.5703,2.5703,2.5664,2.5603,2.552,2.5464,2.5409,2.5322,2.5303,2.5303,2.5303,2.5303,2.5303,2.5303,2.5303,2.5341,2.5486,2.5531,2.5601,2.5683,2.5687,2.5615,2.5507,2.5484,2.5428,2.5303,2.5303,2.5303,2.5303,2.5303,2.5303,2.5303,2.5303,2.5303,2.5303,2.5591,2.561,2.5303,2.5909,2.6082,2.5774,2.664,2.6909,2.6601,2.6601,2.627,2.436,2.4557,2.4842,2.4974,2.501,2.5022,2.5022,2.5022,2.501,2.501,2.4201,2.3866,0.0,0.0,2.4124,2.5081,2.5264,2.5591,2.6486,2.6601,2.7236,0.0,0.0,0.0,0.0,0.0,0.0,3.0602,0.0,3.1622,3.0769,3.1665,3.1816,3.0996,3.0918,3.0898,3.0898,3.0078,2.9258,2.8418,2.7598,2.7637,2.8437,2.8437,2.8437,2.8437,2.8437,2.791,2.707,2.707,2.6523,2.5703,2.5703,2.5703,2.5801,2.6621,2.6992,2.6934,2.6074,2.6309,2.6855,2.5977,2.5703,2.5703,2.5703,2.5703,2.5703,2.5742,2.5723,2.5681,2.5601,2.5522,2.5466,2.5322,2.5303,2.5303,2.5303,2.5303,2.5303,2.5303,2.5303,2.5351,2.5486,2.5609,2.5723,2.5762,2.571,2.5627,2.5512,2.5441,2.537,2.5303,2.5303,2.5322,2.536,2.536,2.536,2.536,2.536,2.5341,2.5303,2.614,2.6217,2.538,2.7024,2.7486,2.6678,2.7544,2.7544,2.6736,2.6697,2.6124,2.4693,2.4818,2.4949,2.4998,2.5111,2.5224,2.5224,2.5224,2.5173,2.5034,2.4326,2.3819,0.0,0.0,0.0,2.4332,2.4909,0.0,2.6486,2.6601,0.0,2.9794,0.0,3.0737,3.2429,3.2692,0.0,0.0,3.2709,3.2764,3.2558,3.2329,3.2109,3.1875,3.123,3.0898,3.0898,3.0684,3.0469,3.0234,3.0019,3.0019,3.0234,3.0234,3.0234,3.0234,3.0234,2.9375,2.7969,2.7969,2.707,2.5703,2.5703,2.5703,2.5723,2.5957,2.6855,2.7832,2.6973,2.6816,2.6855,2.5977,2.5703,2.5703,2.5703,2.5703,2.584,2.6484,2.6191,2.5818,2.6322,2.5994,2.5466,2.5322,2.5303,2.5303,2.5303,2.5303,2.5303,2.5303,2.539,2.5465,2.5493,2.5615,2.5918,2.6562,2.6612,2.6304,2.5585,2.5441,2.537,2.5303,2.5303,2.5553,2.6217,2.6274,2.6274,2.6274,2.6274,2.5986,2.5322,2.614,2.6505,2.6274,2.7332,2.7794,2.7563,2.839,2.8679,2.8448,2.7852,2.7344,2.5051,2.5111,2.516,2.5141,2.5214,2.5303,2.5303,2.5224,2.5141,2.5022,2.4283,2.379,2.4243,2.4038,0.0,0.0,0.0,0.0,2.7093,2.7852,2.8986,0.0,3.166,0.0,3.341,3.3943,3.4217,0.0,3.3978,3.3641,3.3264,3.2918,3.2559,3.2207,3.1348,3.0898,3.0898,3.0527,3.0527,3.0898,3.0508,3.0527,3.0898,3.0898,3.0898,3.0898,0.0,2.9902,2.832,2.8711,2.7832,2.6269,2.6269,2.6269,2.6328,2.6699,2.7461,2.8281,2.8184,2.8144,2.793,2.668,2.6269,2.6191,2.582,2.5703,2.5879,2.6758,2.6641,2.6445,2.7227,2.7026,2.6601,2.6515,2.6467,2.6447,2.6447,2.6447,2.6447,2.6447,2.6545,2.6638,2.6645,2.6447,2.6562,2.7441,2.7162,2.6803,2.6668,2.6573,2.6514,2.6447,2.6447,2.664,2.7121,2.7178,2.7178,2.7178,2.7178,2.6948,2.6467,2.7255,2.7525,2.7178,2.8371,2.8813,2.8429,2.9256,2.9294,2.8563,2.8102,2.7424,2.538,2.5409,2.5409,2.5341,2.5322,2.5303,2.5303,2.5152,2.4979,2.4974,2.427,2.3933,2.4816,2.4419,2.4258,2.5158,0.0,2.6997,2.7853,2.944,3.0871,3.1859,3.3372,3.436,3.4487,3.5187,3.5674,3.571,3.5146,3.445,3.3697,3.3594,3.3144,3.2226,3.1348,3.0898,3.0898,3.0156,3.0156,3.0898,3.0137,3.0176,3.0898,3.0898,3.0898,3.0898,3.0898,0.0,2.8379,2.9238,2.8574,2.7012,2.7129,2.7168,2.7266,2.8027,2.8379,2.8574,2.9336,2.9687,2.9473,2.7598,2.707,2.7012,2.6133,2.5957,2.623,2.7109,2.7266,2.7363,2.8164,2.8247,2.8077,2.8027,2.7958,2.789,2.789,2.789,2.789,2.789,2.8009,2.8104,2.8096,2.7581,2.746,2.8333,2.769,2.7431,2.8299,2.8172,2.7964,2.7909,2.789,2.7928,2.8044,2.8063,2.8063,2.8063,2.8063,2.8005,2.789,2.8659,2.8775,2.8063,2.9602,3.0025,2.9275,3.0025,2.966,2.8236,2.8102,2.7255,2.5485,2.548,2.5486,2.5466,2.5428,2.539,2.539,2.519,0.0,0.0,2.47,2.4629,2.4809,2.4797,2.4905,2.5244,2.6043,2.6919,2.7785,2.9413,3.1099,0.0,3.3821,3.472,3.5391,3.5689,0.0,0.0,0.0,3.566,3.547,3.4832,3.3789,3.2246,3.1348,3.0898,3.0898,3.0742,3.0742,3.0898,3.0742,3.0742,3.0898,3.0898,3.0898,3.0898,3.0898,0.0,2.8379,2.9238,2.8574,2.707,2.7793,2.8066,2.8086,2.8242,2.8769,2.9394,2.9551,3.0078,3.0273,2.7793,2.748,2.791,2.7031,2.7285,2.8027,2.8906,2.8633,2.8262,2.9062,2.8691,2.8078,2.8018,2.7956,2.789,2.789,2.789,2.789,2.789,2.8016,2.8097,2.809,2.8088,2.8342,2.9175,2.9055,2.9167,2.999,2.8821,2.7909,2.789,2.789,2.8159,2.8832,2.889,2.889,2.889,2.889,2.8582,2.7928,2.8659,2.9025,2.889,2.989,3.0321,3.0179,3.0321,3.0244,2.9948,2.9236,2.8717,2.5564,2.5554,2.5532,2.5468,2.541,2.5393,2.537,0.0,0.0,2.4799,2.4804,2.4804,2.4804,2.5,0.0,2.5274,2.6053,2.6958,2.7881,2.9875,3.1719,3.3051,3.4351,3.5297,0.0,3.5804,3.5852,0.0,0.0,3.594,3.5944,3.5159,3.4121,3.2851,3.2012,3.1582,3.1582,3.1133,3.0898,3.0898,3.0898,3.0898,3.0898,3.0898,3.0898,3.0898,3.0898,0.0,2.8398,2.9726,2.9258,2.7754,2.8633,2.8984,2.8984,2.8984,2.9238,2.9668,3.0117,3.0547,3.0625,2.8906,2.8633,2.8809,2.7949,2.7969,2.8476,2.9355,2.9297,2.918,3.0019,2.9834,2.9438,2.9374,2.9283,2.9217,2.9256,2.9256,2.9256,2.9294,2.939,2.9445,2.9455,2.9154,2.9198,2.999,2.9611,2.9555,3.0383,2.9737,2.9198,2.9198,2.9198,2.9371,2.9737,2.9775,2.9775,2.9775,2.9775,2.9602,2.9217,2.9563,2.9775,2.9775,3.0198,3.0398,3.0398,3.0398,3.0179,2.9717,2.9294,2.8871,2.5644,2.5625,2.558,2.5473,2.5425,2.5403,2.5341,2.508,0.0,2.4842,2.4842,2.4842,2.4842,2.5084,2.5303,0.0,2.6092,2.7026,2.7939,3.0298,3.2271,0.0,3.4768,0.0,3.5911,3.5828,0.0,0.0,0.0,0.0,3.5996,3.5176,3.4394,3.3691,3.2871,3.2363,3.2207,3.1523,3.1172,3.1172,3.0996,3.0996,3.1172,3.0996,3.0898,3.0898,3.0898,0.0,0.0,3.0254,2.998,2.8672,2.9531,2.9883,2.9883,2.9883,2.9883,2.998,3.0664,3.0898,3.0781,3.0098,2.9883,2.9746,2.9062,2.8867,2.9043,2.9902,3.0019,3.0039,3.0723,3.0808,3.0675,3.0617,3.0525,3.0467,3.0506,3.0513,3.0537,3.0595,3.0648,3.0698,3.0698,3.0186,2.9963,3.0602,3.0002,2.9733,3.0398,3.0448,3.0398,3.0398,3.0398,3.0398,3.0398,3.0398,3.0398,3.0398,3.0398,3.0398,3.0398,3.0398,3.0398,3.0398,3.0398,3.0398,3.0398,3.0398,3.0044,2.9371,2.9371,2.9044,2.5684,2.5684,2.5673,2.56,2.5544,2.5467,2.5409,0.0,2.4986,2.4986,2.4986,2.4986,2.4986,2.5152,2.5303,2.5303,2.6091,2.7005,2.7892,3.0309,3.2328,3.3205,0.0,0.0,3.6001,3.5982,0.0,0.0,0.0,0.0,3.5996,3.5176,3.4668,3.457,3.373,3.2949,3.2207,3.2129,3.207,3.207,3.1289,3.1309,3.2051,3.1269,3.0898,3.0898,3.0898,0.0,0.0,3.0508,3.0332,2.957,3.0449,3.0781,3.0781,3.0781,3.0781,3.0781,3.0879,3.0898,3.0898,3.0801,3.0781,3.0762,3.0684,3.0664,3.084,3.1719,3.1387,3.0801,3.0879,3.08,3.0674,3.0607,3.0583,3.0583,3.0583,3.0586,3.0581,3.0601,3.0636,3.0698,3.0698,3.0641,3.0602,3.0679,3.0525,3.0398,3.0487,3.0448,3.0398,3.0398,3.0398,3.0398,3.0398,3.0398,3.0398,3.0398,3.0398,3.0398,3.0398,3.0398,3.0398,3.0398,3.0398,3.0398,3.0398,3.0398,3.0359,3.0294,3.0294,3.0237,2.5566,2.5703,2.5679,2.5574,2.5517,2.5466,2.537,0.0,2.501,2.501,2.501,2.501,2.501,2.5163,2.5303,2.5341,2.5668,0.0,2.7903,2.9051,3.0616,3.3078,3.396,0.0,0.0,0.0,0.0,0.0,0.0,0.0,3.5996,3.5664,3.5488,3.5488,3.4648,3.4023,3.3711,3.3184,3.293,3.293,3.2578,3.2324,3.2187,3.1836,3.1406,3.0898,3.0898,0.0,0.0,3.0547,3.0391,2.9687,3.0566,3.0898,3.0898,3.0898,3.0898,3.0898,3.0898,3.0898,3.0898,3.0898,3.0898,3.0996,3.1523,3.2012,3.248,3.2812,3.2324,3.168,3.168,3.1191,3.0682,3.0669,3.0639,3.0606,3.0637,3.0653,3.0676,3.0765,3.0794,3.0823,3.0823,3.073,3.0655,3.0694,3.0544,3.0448,3.0487,3.0448,3.0398,3.0398,3.0398,3.0398,3.0398,3.0398,3.0398,3.0398,3.0398,3.0398,3.0398,3.0398,3.0398,3.0398,3.0398,3.0398,3.0398,3.0398,3.0398,3.0398,3.0398,3.0398,2.5156,2.5499,2.5642,2.5522,2.5483,2.5447,0.0,0.0,2.5088,2.5088,2.5088,2.5088,2.5088,2.5203,2.5322,2.539,0.0,2.5983,2.7595,2.8272,2.961,0.0,0.0,3.3925,0.0,0.0,0.0,0.0,0.0,0.0,3.6367,3.6387,3.6269,3.6016,3.5391,3.4961,3.4707,3.4082,3.3789,3.3789,3.3516,3.3242,3.293,3.2676,3.209,3.1289,3.1289,0.0,0.0,3.0644,3.0547,3.0059,3.0664,3.0898,3.0898,3.0898,3.0898,3.0898,3.0898,3.0898,3.0898,3.0898,3.123,3.1758,3.2363,3.2773,3.3144,3.3633,3.3027,3.2207,3.2207,3.1484,3.0762,3.0762,3.0726,3.0697,3.0758,3.0765,3.0788,3.0875,3.0898,3.0898,3.0898,3.0726,3.0625,3.0687,3.0525,3.0417,3.0487,3.0448,3.0398,3.0398,3.0398,3.0398,3.0398,3.0398,3.0398,3.0398,3.0398,3.0398,3.0398,3.0398,3.0398,3.0398,3.0398,3.0398,3.0398,3.066,3.0794,3.0794,3.1025,3.1116,2.4414,2.4983,2.5571,2.5515,2.5444,2.539,0.0,2.5303,2.5303,2.5303,2.5303,2.5303,2.5303,2.5303,2.5322,2.539,2.5459,0.0,2.6786,2.845,2.9922,0.0,0.0,3.375,3.4629,0.0,0.0,0.0,0.0,0.0,3.7246,3.7285,3.6894,3.6035,3.5996,3.5566,3.4707,3.4687,3.4687,3.4687,3.3809,3.3848,3.4648,3.3789,3.2949,0.0,0.0,0.0,0.0,3.0898,3.0898,3.0898,3.0898,3.0898,3.0898,3.0898,3.0898,3.0898,3.0898,3.0898,3.0898,3.0898,3.2012,3.3379,3.3379,3.2832,3.2559,3.4219,3.3496,3.2207,3.2207,3.1543,3.0898,3.0898,3.0898,3.0898,3.0898,3.0898,3.0898,3.0898,3.0898,3.0898,3.0898,3.0726,3.0625,3.0687,3.0525,3.0417,3.0487,3.0448,3.0398,3.0398,3.0398,3.0398,3.0398,3.0398,3.0398,3.0398,3.0398,3.0398,3.0398,3.0398,3.0398,3.0398,3.0398,3.0398,3.0398,3.1275,3.1698,3.1718,3.2506,3.2774,2.4394,2.4596,2.4894,2.5382,2.505,2.4697,2.5197,2.5303,2.5303,2.5303,2.5303,2.5303,2.5303,2.5303,2.5322,2.539,2.5422,0.0,0.0,0.0,0.0,3.2285,3.4121,3.5293,0.0,0.0,0.0,0.0,0.0,0.0,3.7285,3.7851,3.8066,3.7793,3.7207,3.6758,3.6484,3.5898,3.5586,3.5586,3.5312,3.5019,3.4687,3.4414,3.3828,0.0,0.0,0.0,0.0,3.1152,3.0898,3.0957,3.1562,3.1797,3.1855,3.2402,3.2617,3.2617,3.2617,3.2617,3.2617,3.2617,3.2969,3.3516,3.4101,3.4531,3.4785,3.4726,3.4316,3.3769,3.3164,3.2812,3.2617,3.2617,3.2617,3.2461,3.1914,3.1797,3.1797,3.1797,3.1226,3.0956,3.1546,3.1032,3.0548,3.0614,3.0506,3.0417,3.0487,3.0448,3.0398,3.0398,3.0398,3.0398,3.0398,3.0398,3.0398,3.0398,3.0398,3.0679,3.1256,3.1295,3.1545,3.2102,3.1564,3.1295,3.1295,3.1564,3.1698,3.1718,3.2526,3.2472,2.3906,2.4138,2.4393,2.4529,2.435,0.0,2.4736,2.5082,2.5303,2.5303,2.5303,2.5303,2.5303,2.5322,2.5341,2.539,2.5713,0.0,0.0,0.0,0.0,3.3555,0.0,0.0,0.0,0.0,0.0,0.0,0.0,0.0,3.7793,3.8613,3.9238,3.957,3.8418,3.7793,3.7793,3.6934,3.666,3.6973,3.6309,3.5898,3.5664,3.5332,3.4707,0.0,0.0,0.0,0.0,3.1269,3.1094,3.1445,3.1992,3.2383,3.2715,3.3223,3.3398,3.3398,3.3398,3.3398,3.3398,3.3398,3.3613,3.4043,3.4922,3.5566,3.5898,3.5332,3.4941,3.457,3.4023,3.3652,3.3398,3.3398,3.3164,3.2812,3.2305,3.1934,3.1696,3.1648,3.1125,3.0864,3.1376,3.121,3.0879,3.0621,3.0756,3.0794,3.0506,3.0417,3.0398,3.0398,3.0398,3.0533,3.0871,3.059,3.0398,3.0398,3.0717,3.1141,3.1679,3.1987,3.2256,3.2449,3.1968,3.1698,3.1698,3.2333,3.2814,3.3141,3.3314,3.3204,0.0,2.3588,2.4039,2.333,2.3636,2.411,2.4168,2.4755,0.0,2.5303,2.5303,2.5303,2.5303,2.5341,2.5409,2.5409,2.6237,0.0,0.0,3.0693,0.0,0.0,3.5527,0.0,0.0,0.0,0.0,0.0,0.0,0.0,3.8691,3.9512,4.0351,4.1172,3.9629,3.8769,3.8691,3.7832,3.7773,3.8496,3.6875,3.6484,3.7187,3.6367,3.5566,0.0,0.0,0.0,0.0,3.1445,3.1523,3.2207,3.2324,3.2793,3.3418,3.3535,3.3574,3.3574,3.3574,3.3574,3.3574,3.3574,3.4121,3.4941,3.5742,3.5996,3.5996,3.5996,3.543,3.4785,3.4785,3.4199,3.3574,3.3574,3.3008,3.2441,3.2383,3.1738,3.1133,3.1002,3.091,3.0871,3.0852,3.1417,3.1609,3.0794,3.1314,3.1468,3.059,3.0533,3.0533,3.0398,3.0456,3.0833,3.1641,3.0968,3.0513,3.0571,3.1352,3.1814,3.1872,3.2602,3.2679,3.1987,3.191,3.1852,3.1795,3.341,3.4622,3.5391,3.4641,3.4699,2.2217,0.0,2.3481,2.4571,2.4456,2.4264,0.0,0.0,0.0,0.0,0.0,2.5303,2.5303,2.5341,2.5409,2.5409,0.0,0.0,2.8838,0.0,0.0,3.4726,0.0,0.0,0.0,0.0,0.0,0.0,0.0,3.959,3.959,4.043,4.0996,4.1191,4.0801,4.0273,3.9609,3.873,3.8066,3.7598,3.7187,3.6758,3.6309,3.6094,3.5898,0.0,0.0,0.0,3.4043,3.3164,3.2578,3.2324,3.3613,3.3828,3.3555,3.4902,3.5391,3.5391,3.5391,3.5391,3.5391,3.5391,3.5527,3.5723,3.5937,3.5996,3.5996,3.5996,3.5859,3.5684,3.5684,3.5547,3.5391,3.5391,3.5234,3.4922,3.4258,3.3945,3.3788,3.3712,3.309,3.2788,3.3346,3.2987,3.2564,3.2372,3.2506,3.2314,3.1506,3.1929,3.1814,3.0533,3.1006,3.1487,3.1679,3.1506,3.166,3.2275,3.2506,3.291,3.3583,3.3795,3.4122,3.4603,3.3949,3.3276,3.2622,3.368,3.4314,3.4526,3.4988,3.4949,2.1671,2.1979,2.253,2.3428,2.3274,2.312,2.3966,0.0,0.0,0.0,0.0,2.5303,2.5341,2.5409,0.0,0.0,2.6862,0.0,0.0,0.0,0.0,0.0,0.0,0.0,0.0,0.0,0.0,0.0,0.0,4.0312,3.9922,4.0723,4.1191,4.1191,4.1191,4.0976,4.0508,3.9629,3.8965,3.8476,3.7676,3.7051,3.6582,3.6172,3.5996,0.0,0.0,0.0,3.4629,3.3769,3.3144,3.2871,3.4199,3.4414,3.416,3.5508,3.5996,3.5996,3.5996,3.5996,3.5996,3.5996,3.5996,3.5996,3.5996,3.5996,3.5996,3.5996,3.5996,3.5996,3.5996,3.5996,3.5996,3.5996,3.5684,3.5273,3.4805,3.4394,3.4075,3.4011,3.3566,3.3327,3.3686,3.3622,3.3237,3.2468,3.266,3.2602,3.1795,3.2083,3.2006,3.1102,3.1756,3.2102,3.1737,3.2391,3.2852,3.2891,3.3276,3.3699,3.418,3.4584,3.4834,3.4911,3.443,3.3968,3.3506,3.4372,3.4795,3.4814,3.5276,3.5257,2.1371,2.1594,2.1625,2.1765,2.1765,2.1908,2.2658,0.0,0.0,0.0,0.0,0.0,2.5409,2.5465,0.0,0.0,0.0,0.0,3.4398,3.4466,3.49,0.0,0.0,0.0,0.0,0.0,0.0,0.0,0.0,4.0879,4.0137,4.0801,4.1191,4.1191,4.1191,4.1191,4.1191,4.0332,3.9824,3.9687,3.8066,3.7226,3.707,3.6348,3.5996,3.5957,0.0,0.0,3.4844,3.4101,3.3711,3.3691,3.4551,3.4824,3.4805,3.5684,3.5996,3.5996,3.5996,3.5996,3.5996,3.5996,3.5996,3.5996,3.5996,3.5996,3.5996,3.5996,3.5996,3.5996,3.5996,3.5996,3.5996,3.5996,3.5449,3.4902,3.4902,3.4316,3.3769,3.3688,3.3619,3.3558,3.348,3.3974,3.391,3.2487,3.2852,3.2949,3.2006,3.2006,3.1929,3.1545,3.2333,3.2622,3.1948,3.3314,3.393,3.3333,3.3987,3.4391,3.4391,3.5122,3.5084,3.4218,3.4334,3.4334,3.4199,3.5064,3.5493,3.5493,3.5493,3.5493,2.1381,2.1594,2.1779,2.2525,2.2689,2.2737,2.2928,0.0,0.0,0.0,0.0,0.0,0.0,2.5493,2.5502,0.0,0.0,3.2647,0.0,0.0,0.0,0.0,0.0,0.0,0.0,0.0,0.0,0.0,0.0,4.1133,4.1016,4.1133,4.1191,4.1191,4.1191,4.1191,4.1191,4.0332,3.9531,3.8789,3.7773,3.6914,3.6191,3.6055,3.5996,3.5996,0.0,3.5801,3.5781,3.5664,3.5176,3.459,3.5469,3.5351,3.4805,3.5684,3.5996,3.5996,3.5996,3.5996,3.5996,3.5996,3.5996,3.5996,3.5996,3.5996,3.5996,3.5996,3.5996,3.5996,3.5996,3.5996,3.5996,3.5996,3.5898,3.5801,3.5801,3.5703,3.5543,3.5373,3.5327,3.5281,3.5143,3.5224,3.5218,3.4968,3.5026,3.4526,3.2929,3.3353,3.2987,3.0833,3.1987,3.2852,3.2737,3.3622,3.4449,3.5064,3.5238,3.5315,3.5315,3.543,3.5084,3.4218,3.493,3.4949,3.4199,3.5064,3.5493,3.5493,3.5493,3.5493,2.0918,2.0982,2.1174,2.207,2.2617,2.2917,0.0,0.0,0.0,0.0,0.0,0.0,0.0,0.0,2.6745,2.8605,0.0,0.0,0.0,0.0,0.0,0.0,0.0,0.0,0.0,0.0,0.0,0.0,0.0,0.0,4.0988,4.0988,4.0988,4.0988,4.0988,4.1013,4.1094,3.971,3.8891,3.8594,3.7715,3.6836,3.5996,3.5996,3.5996,3.5996,0.0,3.5996,3.5996,3.5996,3.5488,3.4785,3.5664,3.5469,3.4805,3.5684,3.5996,3.5996,3.5996,3.5996,3.5996,3.5996,3.5996,3.5996,3.5996,3.5996,3.5996,3.5996,3.5996,3.5996,3.5996,3.5996,3.5996,3.5996,3.5996,3.5996,3.5996,3.5996,3.5975,3.5876,3.5767,3.5681,3.563,3.5565,3.5353,3.4872,3.4795,3.4334,3.3064,3.3256,3.3045,3.1891,3.2852,3.341,3.2949,3.4122,3.5064,3.5468,3.5493,3.5493,3.5493,3.5493,3.5315,3.4911,3.5295,3.5315,3.4911,3.5315,3.5493,3.5493,3.5493,3.5493,2.0752,2.0752,2.0875,2.1617,0.0,0.0,0.0,0.0,0.0,0.0,0.0,0.0,0.0,2.6125,0.0,3.0941,0.0,0.0,0.0,0.0,0.0,0.0,0.0,0.0,0.0,0.0,0.0,0.0,0.0,0.0,4.0529,4.051,4.0432,4.0218,4.0403,4.0568,4.0668,3.9304,3.8583,3.8548,3.7477,3.6621,3.5976,3.5996,3.5992,3.5988,3.5994,3.5996,3.5976,3.5996,3.5605,3.5078,3.5742,3.5586,3.5098,3.5742,3.5996,3.5996,3.5996,3.6133,3.6309,3.6309,3.6445,3.6562,3.6367,3.6309,3.6269,3.6055,3.5996,3.5996,3.5996,3.5996,3.5996,3.5996,3.5996,3.5996,3.5996,3.5996,3.5996,3.5976,3.5844,3.5731,3.5688,3.5603,3.5295,3.4622,3.4526,3.4218,3.3378,3.3276,3.3192,3.2968,3.3699,3.4026,3.3545,3.4737,3.5493,3.5493,3.5493,3.5493,3.5493,3.5493,3.5493,3.5493,3.5493,3.5493,3.5493,3.5493,3.5493,3.5493,3.5493,3.5493,2.1495,2.1671,2.1645,2.1759,2.1837,0.0,2.2908,2.3716,0.0,2.4292,0.0,0.0,0.0,2.615,2.7536,3.0102,0.0,0.0,0.0,0.0,0.0,0.0,0.0,0.0,0.0,0.0,0.0,0.0,0.0,0.0,3.973,3.9692,3.9311,3.8507,3.9249,3.9687,3.9697,3.9558,3.9131,3.8389,3.677,3.5976,3.5918,3.5976,3.5973,3.5912,3.5974,3.5957,3.5918,3.5976,3.5957,3.5918,3.5976,3.5957,3.5918,3.5976,3.5996,3.5996,3.5996,3.6523,3.7207,3.7207,3.7754,3.8262,3.7441,3.7207,3.7031,3.623,3.5996,3.5996,3.5996,3.5996,3.5996,3.5996,3.5996,3.5996,3.5996,3.5996,3.5976,3.5918,3.5898,3.5838,3.563,3.5603,3.5565,3.5507,3.5507,3.5224,3.448,3.4385,3.4045,3.3185,3.3808,3.4564,3.5257,3.543,3.5493,3.5493,3.5493,3.5493,3.5493,3.5493,3.5493,3.5493,3.5493,3.5493,3.5493,3.5493,3.5493,3.5493,3.5493,3.5493,2.0967,2.1434,2.1835,2.1863,2.2608,0.0,0.0,2.4011,2.4323,2.487,2.5187,0.0,0.0,0.0,2.8852,3.0891,0.0,0.0,0.0,0.0,0.0,0.0,0.0,0.0,0.0,0.0,0.0,0.0,0.0,0.0,3.9427,3.8888,3.8695,3.8911,3.9238,3.97,4.0277,3.9708,3.9277,3.9013,3.7896,3.713,3.6641,3.668,3.6392,3.5886,3.5979,3.5953,3.5918,3.5976,3.5996,3.5996,3.5996,3.5996,3.5996,3.5996,3.5996,3.5996,3.5996,3.6562,3.7305,3.7305,3.7891,3.8437,3.7559,3.7305,3.7129,3.625,3.5996,3.5996,3.5996,3.5996,3.5996,3.5996,3.5996,3.5996,3.5996,3.5996,3.5996,3.5976,3.5937,3.5876,3.5797,3.5689,3.5603,3.5603,3.5603,3.5315,3.4474,3.4455,3.4332,3.3897,3.4596,3.5218,3.5488,3.5545,3.5545,3.5493,3.5493,3.5493,3.5493,3.5493,3.5493,3.5493,3.5493,3.5493,3.5493,3.5493,3.5493,3.5493,3.5493,3.5493,2.1307,2.1808,2.2318,2.2593,0.0,0.0,2.4559,2.4602,2.4687,2.5274,2.5341,0.0,2.6447,0.0,0.0,0.0,0.0,0.0,0.0,0.0,0.0,0.0,0.0,0.0,0.0,0.0,0.0,0.0,0.0,0.0,0.0,3.8065,3.7757,3.8084,3.8604,3.92,3.985,3.9469,3.9446,3.9734,3.8719,3.7827,3.7035,3.7067,3.6599,3.5815,3.5872,3.5882,3.5847,3.5937,3.5976,3.5996,3.5996,3.5996,3.5996,3.5996,3.5996,3.5996,3.5996,3.6758,3.7676,3.7383,3.8086,3.8809,3.7656,3.7305,3.7129,3.625,3.5996,3.5996,3.5996,3.5996,3.5996,3.5996,3.5996,3.5996,3.5996,3.5996,3.5996,3.5996,3.5957,3.5918,3.5898,3.5797,3.5697,3.5688,3.5699,3.5489,3.4914,3.4912,3.4931,3.4807,3.529,3.5592,3.554,3.5566,3.5584,3.5493,3.5493,3.5493,3.5493,3.5493,3.5493,3.5493,3.5493,3.5493,3.5493,3.5493,3.5493,3.5526,3.5757,3.5892,2.2875,2.3061,2.3225,2.4072,0.0,0.0,2.5101,2.5447,2.539,2.5409,2.5341,2.5572,2.6447,0.0,0.0,0.0,0.0,0.0,0.0,0.0,0.0,0.0,0.0,0.0,0.0,0.0,0.0,0.0,0.0,0.0,0.0,3.718,3.6334,3.5545,3.7123,3.7988,3.8007,3.8854,3.9681,4.0469,3.8873,3.7685,3.6911,3.6968,3.6484,3.5603,3.568,3.5693,3.5717,3.5849,3.5937,3.5996,3.5996,3.5996,3.5996,3.5996,3.5996,3.5996,3.5996,3.7148,3.8457,3.7578,3.8476,3.9551,3.7832,3.7305,3.7129,3.625,3.5996,3.5996,3.5996,3.5996,3.5996,3.5996,3.5996,3.5996,3.5996,3.5996,3.5996,3.5996,3.5996,3.5976,3.5918,3.5898,3.591,3.59,3.5892,3.591,3.5992,3.5996,3.5962,3.5907,3.5776,3.5675,3.5621,3.5596,3.5584,3.5493,3.5526,3.5526,3.5493,3.5526,3.5526,3.5493,3.5526,3.5526,3.5512,3.5526,3.5512,3.5532,3.6353,3.6719,2.301,2.347,0.0,2.3457,0.0,0.0,0.0,2.4495,0.0,0.0,2.5813,2.6294,2.6544,0.0,0.0,0.0,0.0,0.0,0.0,0.0,0.0,0.0,0.0,0.0,0.0,0.0,0.0,0.0,0.0,0.0,0.0,3.718,3.6603,3.6353,3.6834,3.7392,3.7988,3.8257,3.8815,3.9642,3.8546,3.7916,3.7723,3.7237,3.6485,3.5603,3.568,3.5656,3.5635,3.5828,3.5937,3.5996,3.5996,3.5996,3.5996,3.5996,3.5996,3.5996,3.5996,3.6738,3.7637,3.7383,3.8066,3.8769,3.7637,3.7305,3.7129,3.625,3.5996,3.5996,3.5996,3.5996,3.5996,3.5996,3.5996,3.5987,3.5935,3.5941,3.5939,3.5933,3.5937,3.5937,3.5976,3.5937,3.591,3.59,3.5892,3.591,3.5992,3.5957,3.5915,3.5896,3.5863,3.5772,3.5621,3.5635,3.5622,3.5526,3.6045,3.6103,3.5512,3.6045,3.6084,3.5512,3.6661,3.6969,3.6353,3.6969,3.7257,3.7257,3.7507,3.7603,2.3947,2.4353,0.0,2.4076,2.469,2.5264,2.4687,0.0,0.0,0.0,0.0,2.6717,2.7044,2.9621,0.0,0.0,0.0,0.0,0.0,0.0,0.0,0.0,0.0,0.0,0.0,0.0,0.0,0.0,0.0,0.0,0.0,3.668,3.6219,3.6219,3.6526,3.6949,3.7488,3.7488,3.8084,3.9277,3.8108,3.7743,3.8031,3.7243,3.6397,3.5565,3.5641,3.5661,3.5656,3.5838,3.5937,3.5996,3.5996,3.6211,3.6465,3.6133,3.6211,3.6465,3.6113,3.6562,3.7305,3.7305,3.7656,3.7988,3.7461,3.7051,3.6678,3.6114,3.5967,3.5953,3.5954,3.5912,3.589,3.5943,3.5967,3.5931,3.5834,3.5823,3.5847,3.5892,3.5899,3.5918,3.5996,3.5976,3.5947,3.5935,3.5935,3.5957,3.5995,3.5957,3.5937,3.5937,3.5943,3.6025,3.6214,3.6228,3.632,3.6565,3.6988,3.7007,3.6507,3.6969,3.6834,3.5988,3.7315,3.7738,3.7219,3.7738,3.8007,3.8007,3.8354,3.8527,2.5264,2.5447,0.0,2.537,2.537,0.0,2.5303,2.5303,2.5322,2.5399,0.0,2.6986,2.7852,3.0025,0.0,0.0,0.0,0.0,0.0,0.0,0.0,0.0,0.0,0.0,0.0,0.0,0.0,0.0,0.0,0.0,0.0,3.6007,3.5584,3.5493,3.6219,3.6603,3.6603,3.6603,3.743,3.9027,3.7516,3.7171,3.7853,3.7065,3.6295,3.5526,3.5584,3.5641,3.5734,3.5845,3.5937,3.5996,3.5996,3.6484,3.7085,3.6289,3.6504,3.7051,3.6269,3.6523,3.7187,3.7266,3.7284,3.7299,3.7377,3.6833,3.6174,3.6035,3.5996,3.5987,3.5923,3.5806,3.5763,3.5952,3.593,3.5849,3.5713,3.5695,3.5738,3.5853,3.5885,3.5917,3.5976,3.5996,3.5996,3.5996,3.6074,3.6094,3.6016,3.6133,3.6211,3.6133,3.6191,3.6523,3.7246,3.7197,3.7425,3.8137,3.8157,3.8084,3.8007,3.8084,3.7719,3.6853,3.7757,3.818,3.8123,3.818,3.8238,3.8257,3.9027,3.9411,2.5341,2.537,0.0,0.0,2.5096,2.5118,2.5264,2.5303,2.5495,2.6178,2.7005,2.7871,2.8679,0.0,0.0,0.0,0.0,0.0,0.0,0.0,0.0,0.0,0.0,0.0,0.0,0.0,0.0,0.0,0.0,0.0,3.6738,3.6546,3.6161,3.5526,3.568,3.5757,3.5757,3.5757,3.6257,0.0,3.6262,3.6205,3.6988,3.6877,3.6378,3.5584,3.5545,3.5661,3.5855,3.5764,3.5848,3.5996,3.5996,3.6075,3.6183,3.6052,3.6094,3.6172,3.6055,3.6113,3.6387,3.707,3.7239,3.7262,3.795,3.8006,3.7657,3.695,3.679,3.671,3.606,3.5883,3.6003,3.6622,3.6243,3.5726,3.5637,3.5618,3.5641,3.5661,3.5708,3.5786,3.5897,3.5976,3.5996,3.5996,3.6582,3.6777,3.6094,3.7187,3.7773,3.709,3.7637,3.8066,3.8144,3.8071,3.807,3.8195,3.8719,3.87,3.8027,3.8661,3.8604,3.7738,3.92,3.9642,3.9008,3.9642,3.995,3.9969,4.0142,4.0239,2.5341,0.0,0.0,2.5163,0.0,2.5046,2.5253,2.561,2.6063,2.6505,2.7294,2.814,0.0,0.0,0.0,0.0,0.0,0.0,0.0,0.0,0.0,0.0,0.0,0.0,0.0,0.0,0.0,0.0,0.0,3.6603,3.6161,3.6142,3.593,3.5512,3.5493,3.5493,3.5493,3.5493,3.5911,3.6699,3.6276,3.6295,3.6699,3.6397,3.6262,3.6199,3.5726,3.5688,3.5919,3.6209,3.6177,3.6002,3.6456,3.6576,3.6475,3.6138,3.6247,3.6523,3.6133,3.5996,3.6211,3.75,3.7559,3.7341,3.8635,3.8395,3.7652,3.7547,3.6972,3.6375,3.6393,3.6042,3.5815,3.6224,3.5974,3.5853,3.6584,3.643,3.6161,3.6252,3.6296,3.6242,3.5992,3.6328,3.6621,3.6621,3.7363,3.7754,3.7305,3.8047,3.8437,3.7969,3.832,3.8719,3.9006,3.8965,3.9054,3.9384,3.97,3.9662,3.9219,3.9623,3.9469,3.8642,3.9854,4.0277,3.9873,4.0296,4.0489,4.0489,4.0489,4.0719,2.5303,0.0,2.5253,2.5253,2.5111,0.0,2.5253,2.587,2.6467,2.6755,2.7505,2.8313,0.0,0.0,0.0,0.0,0.0,0.0,0.0,0.0,0.0,0.0,0.0,0.0,0.0,0.0,0.0,0.0,0.0,3.5493,3.5493,3.5493,3.5493,3.5493,3.5493,3.5493,3.5493,3.5493,3.5834,3.6488,3.6488,3.6584,3.668,3.6103,3.6136,3.662,3.5897,3.5689,3.5951,3.652,3.6435,3.5997,3.6902,3.7131,3.6866,3.6357,3.6533,3.6925,3.6389,3.6179,3.644,3.8023,3.7965,3.7567,3.9169,3.8589,3.7516,3.8146,3.7204,3.6163,3.6742,3.6219,3.5584,3.5795,3.5699,3.5988,3.7469,3.7219,3.6757,3.6958,3.6997,3.6859,3.6321,3.6953,3.7519,3.7519,3.8262,3.8769,3.8613,3.8867,3.8983,3.8812,3.8927,3.9246,3.983,3.9835,4.0059,4.0654,4.0581,4.0489,4.0489,4.0489,4.0181,3.9508,4.0162,4.0489,4.0489,4.0489,4.0566,4.0719,4.0566,4.0969,2.5303,0.0,2.5034,0.0,2.5022,2.5046,0.0,0.0,2.5909,0.0,2.8371,0.0,0.0,0.0,0.0,0.0,0.0,0.0,0.0,0.0,0.0,0.0,0.0,0.0,0.0,0.0,0.0,0.0,3.5493,3.5493,3.5493,3.5493,3.5493,3.5493,3.5493,3.5493,3.5493,3.5493,3.5551,3.5661,3.5661,3.6045,3.6699,3.6724,3.637,3.5766,3.5584,3.5669,3.59,3.587,3.5892,3.5982,3.6812,3.6582,3.5916,3.6664,3.6489,3.5926,3.669,3.6908,3.7021,3.8026,3.8161,3.8146,3.9138,3.9234,3.9008,3.9104,3.8488,3.7623,3.7057,3.626,3.5795,3.6531,3.6108,3.5757,3.668,3.6776,3.6738,3.6877,3.7041,3.7149,3.7122,3.7851,3.8437,3.8437,3.918,3.9453,3.8691,3.9922,4.0516,3.9644,4.0229,4.0667,4.0645,4.059,4.0588,4.0696,4.0581,4.0489,4.0489,4.0489,4.045,4.0335,4.045,4.0489,4.0489,4.0489,4.0893,4.1604,4.0854,4.0969,2.5303,2.5152,2.5022,0.0,2.5018,2.493,2.5088,0.0,2.5774,2.6092,0.0,0.0,0.0,0.0,0.0,0.0,0.0,0.0,0.0,0.0,0.0,0.0,0.0,0.0,0.0,0.0,0.0,0.0,3.4045,3.4045,3.4045,3.4045,3.4276,3.4757,3.4776,3.5007,3.5507,3.5493,3.5493,3.5493,3.5493,3.593,3.6699,3.6281,3.6183,3.633,3.6342,3.6166,3.5925,3.6358,3.6298,3.5989,3.6832,3.6589,3.5817,3.6182,3.6367,3.6434,3.6339,3.6947,3.7699,3.7611,3.7804,3.8166,3.8599,3.8657,3.8565,3.8565,3.7969,3.7238,3.6887,3.6161,3.5641,3.6012,3.6526,3.7007,3.7353,3.7046,3.6754,3.6914,3.6681,3.6499,3.6561,3.7285,3.8047,3.8535,3.9336,3.9941,4.0039,4.0657,4.0916,4.0477,4.0696,4.0848,4.0745,4.0709,4.0677,4.06,4.0543,4.0489,4.0489,4.0489,4.0489,4.0489,4.0489,4.0489,4.0489,4.0489,4.095,4.1797,4.1412,4.1931,0.0,0.0,2.5099,2.5203,2.5061,2.4936,0.0,0.0,2.5632,0.0,0.0,0.0,0.0,0.0,0.0,0.0,0.0,0.0,0.0,0.0,0.0,0.0,0.0,0.0,0.0,0.0,0.0,0.0,3.2891,3.2891,3.2891,3.2891,3.3199,3.3853,3.4083,3.4507,3.5161,3.5391,3.5493,3.5493,3.5718,3.6122,3.6699,3.6315,3.6397,3.6839,3.6704,3.6358,3.5949,3.6554,3.6444,3.5938,3.6781,3.6579,3.5828,3.5958,3.629,3.6627,3.6185,3.6825,3.779,3.7132,3.73,3.7781,3.808,3.7926,3.7757,3.82,3.7546,3.6699,3.6699,3.6103,3.5493,3.5493,3.6622,3.7796,3.8238,3.7834,3.7288,3.7027,3.6922,3.6816,3.6641,3.7539,3.8516,3.916,3.9791,4.0411,4.1074,4.1034,4.0935,4.0924,4.0831,4.0735,4.0658,4.0658,4.062,4.0508,4.0489,4.0489,4.0489,4.0489,4.0489,4.0489,4.0489,4.0489,4.0489,4.0719,4.1277,4.2143,4.2143,4.2912,0.0,2.5056,0.0,2.5057,2.5152,0.0,0.0,0.0,0.0,0.0,0.0,0.0,0.0,0.0,0.0,0.0,0.0,0.0,0.0,0.0,0.0,0.0,0.0,0.0,0.0,0.0,0.0,0.0,3.2891,3.2891,3.2891,3.2891,3.291,3.2968,3.3776,3.4218,3.4257,3.5084,3.5493,3.5512,3.6276,3.6661,3.6738,3.7507,3.745,3.668,3.5968,3.5757,3.5892,3.5815,3.5753,3.5794,3.66,3.6339,3.563,3.6508,3.6308,3.5705,3.6551,3.6801,3.6781,3.6738,3.6738,3.693,3.7757,3.743,3.7123,3.8757,3.8007,3.6699,3.6699,3.6103,3.5493,3.5493,3.6161,3.7219,3.8873,3.9253,3.8787,3.7217,3.8312,3.9238,3.8418,3.9785,4.1016,4.1055,4.0991,4.0949,4.0988,4.0884,4.0791,4.0708,4.0716,4.0658,4.0508,4.0508,4.0508,4.0489,4.0489,4.0489,4.0489,4.0489,4.0489,4.0489,4.0489,4.0489,4.0489,4.1335,4.2181,4.3028,4.3028,4.3489,0.0,0.0,0.0,2.5022,2.4993,2.4949,2.4896,2.4663,2.4599,2.5042,0.0,0.0,0.0,0.0,0.0,0.0,0.0,0.0,0.0,0.0,0.0,0.0,0.0,0.0,0.0,0.0,0.0,0.0,0.0,3.1295,3.1295,3.1295,3.1545,3.2102,3.2429,3.3103,3.418,3.4507,3.4949,3.5493,3.5795,3.6199,3.6699,3.6488,3.6551,3.6781,3.5968,3.5644,3.5715,3.5699,3.5698,3.5709,3.5971,3.5892,3.5661,3.5913,3.617,3.6358,3.6089,3.668,3.7353,3.6276,3.6276,3.6661,3.6469,3.6546,3.6719,3.6834,3.6776,3.6584,3.6065,3.5718,3.5776,3.6853,3.6911,3.718,3.8911,3.8873,3.82,3.7161,3.7514,3.7916,3.7731,3.8242,3.8887,3.9453,3.9896,4.0373,4.0927,4.0853,4.0725,4.0712,4.1123,4.1393,4.1335,4.1335,4.1566,4.2124,4.1643,4.1585,4.2143,4.1623,4.1335,4.1335,4.0777,4.0489,4.0489,4.0796,4.17,4.3104,4.3104,4.3528,2.4716,0.0,0.0,0.0,2.4869,2.479,2.4716,0.0,2.4339,2.4478,0.0,0.0,0.0,0.0,0.0,0.0,0.0,0.0,0.0,0.0,0.0,0.0,0.0,0.0,0.0,0.0,0.0,0.0,0.0,0.0,2.9987,3.0237,3.0814,3.1679,3.1698,3.2352,3.3737,3.4045,3.4487,3.5064,3.5641,3.618,3.668,3.6161,3.6243,3.6781,3.5935,3.5586,3.5648,3.565,3.5665,3.5661,3.5603,3.5603,3.5622,3.5545,3.5878,3.6339,3.5724,3.6238,3.6988,3.5872,3.5872,3.6257,3.5988,3.6103,3.6238,3.5988,3.6103,3.618,3.5641,3.5493,3.5853,3.7238,3.7123,3.7026,3.818,3.845,3.8161,3.7166,3.7464,3.7718,3.7272,3.7679,3.8263,3.8849,3.9558,4.0239,4.0812,4.0735,4.0639,4.0639,4.1066,4.1489,4.1777,4.1797,4.2181,4.3047,4.2566,4.2508,4.3085,4.2258,4.1797,4.1797,4.0931,4.0642,4.0931,4.0931,4.1681,4.3104,4.3374,4.3797,0.0,0.0,0.0,0.0,0.0,0.0,2.4526,0.0,2.4495,2.4495,0.0,0.0,0.0,0.0,0.0,0.0,0.0,0.0,0.0,0.0,0.0,0.0,0.0,0.0,0.0,0.0,0.0,0.0,2.991,3.0006,2.9179,2.9948,3.0794,3.1641,3.166,3.2045,3.2852,3.3699,3.4141,3.418,3.5834,3.6642,3.6642,3.6661,3.6661,3.6622,3.5853,3.5584,3.5699,3.5622,3.5603,3.5603,3.5545,3.5493,3.5493,3.5493,3.5493,3.5493,3.5493,3.5493,3.5493,3.5493,3.5493,3.5661,3.643,3.6122,3.5661,3.6449,3.6103,3.5493,3.5493,3.5526,3.5738,3.6546,3.6719,3.6719,3.6738,3.8099,3.8849,3.7219,3.8325,3.8989,3.7338,3.844,3.9571,3.9591,4.023,4.0696,4.0696,4.0581,4.0489,4.0489,4.0546,4.0912,4.1777,4.1873,4.2258,4.3124,4.3143,4.3143,4.3162,4.2335,4.1873,4.1873,4.1008,4.0989,4.1854,4.1816,4.2258,4.3143,4.3932,4.4297,2.4303,0.0,0.0,0.0,0.0,0.0,2.4512,2.4393,2.4321,2.4461,0.0,0.0,0.0,0.0,0.0,0.0,0.0,0.0,0.0,0.0,0.0,0.0,0.0,0.0,0.0,0.0,0.0,0.0,2.9679,2.9621,3.0025,3.0275,3.0513,3.0756,3.0756,3.1179,3.2025,3.2275,3.2679,3.3276,3.4372,3.4891,3.4911,3.5545,3.5834,3.5834,3.5603,3.5526,3.5565,3.5545,3.5545,3.5545,3.5526,3.5493,3.5493,3.5493,3.5493,3.5493,3.5493,3.5493,3.5493,3.5493,3.5493,3.5532,3.5776,3.568,3.5565,3.5776,3.5718,3.5584,3.5584,3.5968,3.6584,3.745,3.7161,3.6873,3.7507,3.7599,3.7456,3.7003,3.7304,3.7723,3.7916,3.8337,3.8872,3.9515,4.0236,4.0696,4.0696,4.0581,4.0489,4.0489,4.1623,4.247,4.272,4.3278,4.397,4.4855,4.4316,4.4239,4.4874,4.4066,4.3605,4.3605,4.2797,4.2508,4.2739,4.2104,4.2547,4.397,4.4201,4.4297,0.0,0.0,0.0,0.0,0.0,0.0,2.4375,2.4284,2.4228,0.0,2.4426,0.0,0.0,0.0,0.0,0.0,0.0,0.0,0.0,0.0,0.0,0.0,0.0,0.0,0.0,3.0398,3.0121,2.941,2.9525,2.9871,3.0359,3.0398,3.0398,3.0398,3.0398,3.0629,3.116,3.1525,3.1948,3.241,3.3256,3.3853,3.4218,3.4737,3.5161,3.5493,3.5493,3.5493,3.5468,3.5122,3.518,3.5493,3.5493,3.5493,3.5493,3.5493,3.5493,3.5493,3.5493,3.5493,3.5493,3.5493,3.5493,3.5493,3.5493,3.5493,3.5493,3.5493,3.5545,3.5641,3.5968,3.6392,3.693,3.7796,3.7334,3.6853,3.7353,3.7118,3.6735,3.6416,3.693,3.7501,3.769,3.8257,3.8892,3.9396,4.0123,4.062,4.062,4.0562,4.0642,4.0989,4.195,4.2835,4.3547,4.4028,4.4662,4.5528,4.5124,4.5066,4.5566,4.4759,4.4297,4.4297,4.3508,4.3278,4.3605,4.2758,4.3028,4.4297,4.4297,4.4489,0.0,0.0,0.0,0.0,2.419,0.0,2.419,2.419,2.419,2.419,2.4339,0.0,0.0,0.0,0.0,0.0,0.0,0.0,0.0,0.0,0.0,0.0,0.0,0.0,3.0398,3.0398,2.9775,2.8294,2.9563,3.0359,3.0275,3.034,3.0398,3.0398,3.0398,3.0398,3.0398,3.1179,3.1564,3.1564,3.2372,3.3218,3.4064,3.416,3.468,3.5493,3.5493,3.5493,3.5449,3.4661,3.4795,3.5474,3.5391,3.5411,3.5493,3.5493,3.5493,3.5493,3.5493,3.5493,3.5493,3.5493,3.5493,3.5493,3.5493,3.5493,3.5493,3.5526,3.5526,3.5699,3.6507,3.6776,3.7065,3.793,3.7488,3.6873,3.6969,3.6853,3.6526,3.5968,3.7118,3.7964,3.7281,3.8354,3.9315,3.9411,4.0123,4.0642,4.0642,4.0719,4.1085,4.1854,4.2027,4.2681,4.4162,4.4393,4.4759,4.5547,4.5586,4.5586,4.5586,4.4855,4.4432,4.4432,4.3739,4.372,4.4432,4.372,4.3739,4.4432,4.4432,4.4855,0.0,0.0,0.0,0.0,0.0,0.0,2.419,2.419,2.419,2.419,2.4228,2.4266,0.0,0.0,0.0,0.0,0.0,0.0,0.0,0.0,0.0,0.0,0.0,0.0,3.0398,3.0398,3.0263,2.9948,3.0206,3.0102,2.939,3.0025,3.0398,3.0398,3.0398,3.0398,3.0398,3.0571,3.0648,3.0648,3.1525,3.2352,3.3179,3.3872,3.468,3.5493,3.5493,3.5493,3.5488,3.5334,3.5353,3.543,3.4737,3.4872,3.5493,3.5493,3.5493,3.5493,3.5493,3.5493,3.5493,3.5493,3.5493,3.5493,3.5493,3.5493,3.5526,3.5584,3.5545,3.5705,3.6628,3.73,3.7969,3.8834,3.8373,3.795,3.8642,3.77,3.6873,3.743,3.7815,3.82,3.8738,3.9084,3.9508,4.0162,4.1008,4.1546,4.1546,4.2162,4.2662,4.2835,4.3431,4.3932,4.4278,4.4932,4.5413,4.5586,4.5586,4.5586,4.5586,4.5432,4.5336,4.5336,4.5182,4.5182,4.5336,4.5182,4.5182,4.5336,4.5336,4.5432,0.0,0.0,0.0,2.419,0.0,0.0,0.0,2.419,2.419,2.419,2.419,2.419,2.419,0.0,0.0,0.0,0.0,0.0,0.0,0.0,0.0,0.0,0.0,0.0,3.0359,3.0398,3.0398,3.0398,3.0006,2.9756,2.9756,3.016,3.0398,3.0398,3.0398,3.0398,3.0398,3.0398,3.0398,3.0398,3.0852,3.1487,3.2333,3.316,3.4026,3.4872,3.5315,3.5493,3.5468,3.5026,3.4853,3.4853,3.4853,3.4853,3.4911,3.5353,3.5493,3.5493,3.5493,3.5493,3.5493,3.5493,3.5493,3.5493,3.5493,3.5493,3.5526,3.5545,3.5545,3.5801,3.7108,3.7719,3.8219,3.9084,3.8969,3.8642,3.8642,3.8315,3.8123,3.8565,3.8969,3.9258,3.9277,3.9623,4.0027,4.0431,4.1239,4.1797,4.1797,4.2566,4.3258,4.3662,4.4066,4.447,4.4913,4.5336,4.5413,4.497,4.5355,4.522,4.4393,4.5163,4.5586,4.5586,4.5586,4.5586,4.5586,4.5586,4.5586,4.5566,4.4739,4.4566,0.0,0.0,0.0,0.0,0.0,2.3996,0.0,0.0,0.0,2.4094,2.4094,0.0,0.0,0.0,0.0,0.0,0.0,0.0,0.0,0.0,0.0,0.0,0.0,0.0,0.0,3.0617,3.0506,3.0179,2.9813,2.9756,3.014,3.0302,3.0398,3.0398,3.0398,3.0398,3.0398,3.0398,3.0398,3.0398,3.0398,3.0871,3.1737,3.2526,3.3372,3.4237,3.5122,3.5493,3.543,3.4564,3.4103,3.4045,3.4911,3.4814,3.4314,3.518,3.5493,3.5493,3.5493,3.5493,3.5493,3.5493,3.5493,3.5493,3.5493,3.5493,3.5493,3.5493,3.5493,3.5853,3.7353,3.7757,3.8007,3.9046,3.9161,3.895,3.8565,3.8911,3.9354,3.9488,4.0046,4.0335,3.9854,4.0315,4.0796,4.0969,4.1739,4.2277,4.2277,4.3047,4.3835,4.447,4.4547,4.4836,4.5528,4.5586,4.5297,4.4586,4.5201,4.4989,4.3643,4.4874,4.5586,4.5586,4.5586,4.5586,4.5586,4.5586,4.5586,4.5547,4.4047,4.3682,0.0,0.0,0.0,0.0,2.3041,0.0,0.0,0.0,2.3392,2.3692,0.0,2.3855,0.0,0.0,0.0,0.0,0.0,0.0,2.7867,0.0,0.0,0.0,0.0,0.0,0.0,3.1404,3.091,2.9352,3.0583,3.0775,2.9313,2.9987,3.0398,3.0398,3.0398,3.0398,3.0398,3.0398,3.0398,3.0398,3.0398,3.0871,3.1737,3.2526,3.3372,3.4237,3.5122,3.5493,3.543,3.4564,3.3737,3.3122,3.4007,3.4276,3.4314,3.518,3.5493,3.5493,3.5493,3.5493,3.5493,3.5493,3.5493,3.5493,3.5493,3.5493,3.5493,3.5493,3.5493,3.5718,3.6622,3.6853,3.7257,3.8911,3.87,3.8527,3.9912,3.9719,3.9508,4.0219,4.0431,4.0719,4.1412,4.1585,4.1912,4.2681,4.3508,4.4028,4.4028,4.4778,4.5336,4.5432,4.5451,4.549,4.5586,4.5586,4.5547,4.5451,4.5547,4.5509,4.5316,4.549,4.5586,4.5586,4.5586,4.5586,4.5586,4.5586,4.5586,4.5566,4.4605,4.4201,0.0,0.0,0.0,0.0,0.0,0.0,2.2944,0.0,2.33,0.0,0.0,0.0,0.0,0.0,0.0,0.0,2.6053,0.0,0.0,0.0,2.7675,0.0,0.0,0.0,0.0,0.0,0.0,0.0,3.0256,3.041,2.9159,2.9929,3.0398,3.0398,3.0398,3.0398,3.0398,3.0398,3.0398,3.0398,3.0398,3.059,3.0968,3.1814,3.2391,3.2795,3.3622,3.3987,3.3968,3.3603,3.2949,3.2333,3.368,3.3891,3.3603,3.4988,3.5493,3.5493,3.5493,3.5493,3.5493,3.5493,3.5493,3.5493,3.5493,3.5493,3.5603,3.6065,3.6199,3.6392,3.7238,3.7834,3.8277,3.8488,3.9008,3.9508,3.9738,3.9912,4.0239,4.1085,4.1258,4.1681,4.3028,4.245,4.2104,4.297,4.3778,4.4297,4.4297,4.5047,4.5586,4.5586,4.5586,4.5586,4.5586,4.5586,4.5374,4.4874,4.4412,4.4586,4.5547,4.5105,4.5066,4.5586,4.5586,4.5586,4.5586,4.5086,4.4855,4.4816,4.3989,4.3855,2.1608,0.0,0.0,0.0,0.0,0.0,0.0,0.0,0.0,0.0,0.0,0.0,0.0,0.0,0.0,0.0,0.0,2.5621,0.0,2.7093,0.0,0.0,0.0,0.0,0.0,0.0,0.0,2.8763,2.9896,3.0093,2.8832,2.9813,3.0398,3.0398,3.0398,3.0398,3.0398,3.0398,3.0398,3.0398,3.0398,3.0398,3.0417,3.1295,3.1698,3.1737,3.2545,3.2891,3.2872,3.266,3.2237,3.1833,3.3276,3.3449,3.3103,3.4872,3.5493,3.5493,3.5493,3.5493,3.5493,3.5493,3.5493,3.5493,3.5493,3.5493,3.568,3.6469,3.6699,3.6853,3.7488,3.8296,3.8777,3.8142,3.9104,4.0065,3.97,4.0277,4.1046,4.1681,4.1989,4.2604,4.4047,4.3297,4.2777,4.3643,4.4278,4.4662,4.4662,4.5201,4.5586,4.5586,4.5586,4.5586,4.5586,4.5586,4.5316,4.4701,4.4105,4.4335,4.5547,4.4989,4.4951,4.5586,4.5586,4.5586,4.5586,4.472,4.4297,4.4278,4.3239,4.3181,0.0,0.0,0.0,2.1055,0.0,0.0,0.0,0.0,2.2415,0.0,0.0,0.0,0.0,0.0,0.0,0.0,0.0,0.0,0.0,0.0,0.0,0.0,0.0,0.0,0.0,0.0,0.0,2.7717,2.9861,3.0289,2.8063,2.9506,3.0398,3.0398,3.0398,3.0398,3.0398,3.0398,3.0398,3.0398,3.0398,3.0398,3.0417,3.1295,3.1698,3.1737,3.2545,3.2891,3.2833,3.2064,3.1718,3.1775,3.2622,3.291,3.3103,3.4872,3.5493,3.5493,3.5493,3.5493,3.5493,3.5493,3.5493,3.5493,3.5493,3.5493,3.568,3.6469,3.6699,3.6719,3.6738,3.7392,3.8027,3.8007,3.8681,3.9527,4.0296,4.1143,4.1777,4.1797,4.2489,4.3316,4.4162,4.4259,4.4509,4.5374,4.5528,4.5547,4.5547,4.5566,4.5586,4.5586,4.5586,4.5586,4.5586,4.5586,4.5586,4.5547,4.5528,4.5528,4.5586,4.5566,4.5566,4.5586,4.5586,4.5586,4.5586,4.472,4.4297,4.4259,4.2604,4.2316,0.0,0.0,2.0208,2.0465,0.0,0.0,0.0,0.0,0.0,0.0,0.0,0.0,0.0,0.0,0.0,0.0,0.0,0.0,0.0,0.0,0.0,0.0,0.0,0.0,0.0,0.0,0.0,2.7411,2.8635,2.8856,2.7495,2.9145,3.0136,3.0136,3.0311,3.0398,3.0398,3.0398,3.0398,3.0398,3.0398,3.0398,3.0398,3.0717,3.0852,3.0852,3.1141,3.1256,3.1218,3.0948,3.0852,3.0987,3.2352,3.2891,3.3103,3.4872,3.5493,3.5493,3.5493,3.5493,3.5493,3.5493,3.5493,3.5493,3.5493,3.5872,3.6469,3.7315,3.7565,3.77,3.8277,3.8642,3.8854,3.8854,3.9488,4.0315,4.1181,4.1585,4.2143,4.3239,4.3682,4.4162,4.5009,4.5163,4.5259,4.5547,4.5586,4.5586,4.5586,4.5586,4.5586,4.5586,4.5586,4.5586,4.5586,4.5586,4.5586,4.5586,4.5586,4.5586,4.5586,4.5586,4.5586,4.5586,4.5028,4.5009,4.5586,4.3605,4.2951,4.3451,4.1739,4.172,1.969,1.969,0.0,2.0177,2.0314,0.0,2.0894,0.0,0.0,0.0,0.0,0.0,0.0,0.0,0.0,0.0,0.0,0.0,0.0,2.556,0.0,0.0,0.0,0.0,0.0,2.8296,2.7809,2.6754,2.7992,2.8363,0.0,0.0,2.9999,2.9999,3.0254,3.0398,3.0398,3.0398,3.0398,3.0398,3.0398,3.0398,3.0398,3.0398,3.0398,3.0398,3.0398,3.0398,3.0398,3.0398,3.0571,3.1006,3.2372,3.3083,3.3545,3.4968,3.5493,3.5493,3.5493,3.5493,3.5493,3.5493,3.5699,3.593,3.593,3.6507,3.7334,3.8219,3.845,3.8584,3.9142,3.9508,3.9642,3.9373,3.9912,4.0739,4.1604,4.2047,4.2681,4.4028,4.4547,4.4932,4.549,4.5586,4.5586,4.5586,4.5586,4.5586,4.5586,4.5586,4.5586,4.5586,4.5586,4.5586,4.5586,4.5586,4.5586,4.5586,4.5586,4.5451,4.5143,4.5432,4.5451,4.5143,4.4586,4.4586,4.5124,4.2893,4.2085,4.2604,4.1162,4.1104]},{"header":{"parameterUnit":"m.s-1","parameterCategory":1,"la1":30.6,"la2":29.2853,"lo1":-89.7004,"lo2":-87.6739,"dy":0.0162,"dx":0.0183,"nx":112,"ny":82,"refTime":"2023-11-06T06:00:00:Z","depth":0,"parameterNumber":3,"parameterNumberName":"V-component_of_WINDS"},"data":[0.0,0.0,0.0,0.0,0.0,0.0,0.0,0.0,0.0,0.0,0.0,0.0,0.0,0.0,0.0,0.0,0.0,0.0,0.0,0.0,0.0,0.0,0.0,0.0,0.0,0.0,0.0,0.0,0.0,0.0,0.0,0.0,0.0,0.0,0.0,0.0,0.0,0.0,0.0,0.0,0.0,0.0,0.0,0.0,0.0,0.0,0.0,0.0,0.0,0.0,0.0,0.0,0.0,0.0,0.0,0.0,0.0,0.0,0.0,0.0,0.0,0.0,0.0,0.0,0.0,0.0,0.0,0.0,0.0,0.0,0.0,0.0,0.0,0.0,0.0,0.0,0.0,0.0,0.0,0.0,0.0,0.0,0.0,0.0,0.0,0.0,0.0,0.0,0.0,0.0,0.1079,0.2056,0.1496,0.0541,-0.066,-0.1483,-0.2236,-0.2957,0.0,0.0,0.0,0.0,0.0,0.0,0.0,0.0,0.0,0.0,0.0,0.0,0.0,0.0,0.0,0.0,0.0,0.0,0.0,0.0,0.0,0.0,0.0,0.0,0.0,0.0,0.0,0.0,0.0,0.0,0.0,0.0,0.0,0.0,0.0,0.0,0.0,0.0,0.0,0.0,0.0,0.0,0.0,0.0,0.0,0.0,0.0,0.0,0.0,0.0,0.0,0.0,0.0,0.0,0.0,0.0,0.0,0.0,0.0,0.0,0.0,0.0,0.0,0.0,0.0,0.0,0.0,0.0,0.0,0.0,0.0,0.0,0.0,0.0,0.0,0.0,0.0,0.0,0.0,0.0,0.0,0.0,0.0,0.0,0.0,0.0,0.0,0.0,0.0,0.0,0.0,0.0,0.0,0.0,0.0,0.0,0.0,0.0,0.0,0.0,0.0,0.0,0.0,0.0,0.1474,0.1161,0.1455,0.1178,-0.0044,-0.1632,-0.2546,-0.2507,0.0,0.0,0.0,0.0,0.0,0.0,0.0,0.0,0.0,0.0,0.0,0.0,0.0,0.0,0.0,0.0,0.0,0.0,0.0,0.0,0.0,0.0,0.0,0.0,0.0,0.0,0.0,0.0,0.0,0.0,0.0,0.0,0.0,0.0,0.0,0.0,0.0,0.0,0.0,0.0,0.0,0.0,0.0,0.0,0.0,0.0,0.0,0.0,0.0,0.0,0.0,0.0,0.0,0.0,0.0,0.0,0.0,0.0,0.0,0.0,0.0,0.0,0.0,0.0,0.0,0.0,0.0,0.0,0.0,0.0,0.0,0.0,0.0,0.0,0.0,0.0,0.0,0.0,0.0,0.0,0.0,0.0,0.0,0.0,0.0,0.0,0.0,0.0,0.0,0.0,0.0,0.0,0.0,0.0,0.0,0.0,0.0,0.0,0.0,0.0,0.0,0.0,0.0,0.1928,0.2247,0.1031,0.0851,0.0604,0.0044,-0.1063,-0.1997,-0.2625,-0.2347,0.0,0.0,0.0,0.0,0.0,0.0,0.0,0.0,0.0,0.0,0.0,0.0,0.0,0.0,0.0,0.0,0.0,0.0,0.0,0.0,0.0,0.0,0.0,0.0,0.0,0.0,0.0,0.0,0.0,0.0,0.0,0.0,0.0,0.0,0.0,0.0,0.0,0.0,0.0,0.0,0.0,0.0,0.0,0.0,0.0,0.0,0.0,0.0,0.0,0.0,0.0,0.0,0.0,0.0,0.0,0.0,0.0,0.0,0.0,0.0,0.0,0.0,0.0,0.0,0.0,0.0,0.0,0.0,0.0,0.0,0.0,0.0,0.0,0.0,0.0,0.0,0.0,0.0,0.0,0.0,0.0,0.0,0.0,0.0,0.0,0.0,0.0,0.0,0.0,0.0,0.0,0.0,0.0,0.0,0.0,0.0,0.0,0.0,0.0,0.0,0.0,0.0,0.2575,0.2537,0.1058,0.0358,0.0,0.0,-0.0545,-0.1406,-0.2562,-0.217,0.0,0.0,0.0,0.0,0.0,0.0,0.0,0.0,0.0,0.0,0.0,0.0,0.0,0.0,0.0,0.0,0.0,0.0,0.0,0.0,0.0,0.0,0.0,0.0,0.0,0.0,0.0,0.0,0.0,0.0,0.0,0.0,0.0,0.0,0.0,0.0,0.0,0.0,0.0,0.0,0.0,0.0,0.0,0.0,0.0,0.0,0.0,0.0,0.0,0.0,0.0,0.0,0.0,0.0,0.0,0.0,0.0,0.0,0.0,0.0,0.0,0.0,0.0,0.0,0.0,0.0,0.0,0.0,0.0,0.0,0.0,0.0,0.0,0.0,0.0,0.0,0.0,0.0,0.0,0.0,0.0,0.0,0.0,0.0,0.0,0.0,0.0,0.0,0.0,0.0,0.0,0.0,0.0,0.0,0.0,0.0,0.0,0.0,0.0,0.0,0.0,0.0,0.1936,0.1648,0.0983,0.0356,0.0,0.0,-0.0553,-0.1189,-0.1847,-0.2054,0.0,0.0,0.0,0.0,0.0,0.0,0.0,0.0,0.0,0.0,0.0,0.0,0.0,0.0,0.0,0.0,0.0,0.0,0.0,0.0,0.0,0.0,0.0,0.0,0.0,0.0,0.0,0.0,0.0,0.0,0.0,0.0,0.0,0.0,0.0,0.0,0.0,0.0,0.0,0.0,0.0,0.0,0.0,0.0,0.0,0.0,0.0,0.0,0.0,0.0,0.0,0.0,0.0,0.0,0.0,0.0,0.0,0.0,0.0,0.0,0.0,0.0,0.0,0.0,0.0,0.0,0.0,0.0,0.0,0.0,0.0,0.0,0.0,0.0,0.0,0.0,0.0,0.0,0.0,0.0,0.0,0.0,0.0,0.0,0.0,0.0,0.0,0.0,0.0,0.0,0.0,0.0,0.0,0.0,0.0,0.0,0.0,0.0,0.0,0.0,0.0,0.0,0.1894,0.1711,0.0,0.0579,0.0,0.0,-0.0201,-0.0754,-0.1736,0.0,0.0,0.0,0.0,0.0,0.0,0.0,0.0,0.0,0.0,0.0,0.0,0.0,0.0,0.0,0.0,0.0,0.0,0.0,0.0,0.0,0.0,0.0,0.0,0.0,0.0,0.0,0.0,0.0,0.0,0.0,0.0,0.0,0.0,0.0,0.0,0.0,0.0,0.0,0.0,0.0,0.0,0.0,0.0,0.0,0.0,0.0,0.0,0.0,0.0,0.0,0.0,0.0,0.0,0.0,0.0,0.0,0.0,0.0,0.0,0.0,0.0,0.0,0.0,0.0,0.0,0.0,0.0,0.0,0.0,0.0,0.0,0.0,0.0,0.0,0.0,0.0,0.0,0.0,0.0,0.0,0.0,0.0,0.0,0.0,0.0,0.0,0.0,0.0,0.0,0.0,0.0,0.0,0.0,0.0,0.0,0.0,0.0,0.0,0.0,0.0,0.0,0.2044,0.1905,0.1794,0.0,0.1072,0.0424,0.0022,0.0,-0.0422,-0.1446,0.0,0.0,0.0,0.0,0.0,0.0,0.0,0.0,0.0,0.0,0.0,0.0,0.0,0.0,0.0,0.0,0.0,0.0,0.0,0.0,0.0,0.0,0.0,0.0,0.0,0.0,0.0,0.0,0.0,0.0,0.0,0.0,0.0,0.0,0.0,0.0,0.0,0.0,0.0,0.0,0.0,0.0,0.0,0.0,0.0,0.0,0.0,0.0,0.0,0.0,0.0,0.0,0.0,0.0,0.0,0.0,0.0,0.0,0.0,0.0,0.0,0.0,0.0,0.0,0.0,0.0,0.0,0.0,0.0,0.0,0.0,0.0,0.0,0.0,0.0,0.0,0.0,0.0,0.0,0.0,0.0,0.0,0.0,0.0,0.0,0.0,0.0,0.0,0.0,0.0,0.0,0.0,0.0,0.0,0.0,0.0,0.0,0.0,0.0,0.0,0.0,0.0,0.2211,0.1956,0.1798,0.1798,0.1798,0.1301,0.0112,0.0,-0.0267,0.0,0.0,0.0,0.0,0.0,0.0,0.0,0.0,0.0,0.0,0.0,0.0,0.0,0.0,0.0,0.0,0.0,0.0,0.0,0.0,0.0,0.0,0.0,0.0,0.0,0.0,0.0,0.0,0.0,0.0,0.0,0.0,0.0,0.0,0.0,0.0,0.0,0.0,0.0,0.0,0.0,0.0,0.0,0.0,0.0,0.0,0.0,0.0,0.0,0.0,0.0,0.0,0.0,0.0,0.0,0.0,0.0,0.0,0.0,0.0,0.0,0.0,0.0,0.0,0.0,0.0,0.0,0.0,0.0,0.0,0.0,0.0,0.0,0.0,0.0,0.0,0.0,0.0,0.0,0.0,0.0,0.0,0.0,0.0,0.0,0.0,0.0,0.0,0.0,0.0,0.0,0.0,0.0,0.0,0.0,0.0,0.0,0.0,0.0,0.0,0.0,0.0,0.0,0.2211,0.1974,0.1629,0.1205,0.1163,0.0851,0.0067,0.0,-0.0268,-0.087,0.0,0.0,0.0,0.0,0.0,0.0,0.0,0.0,0.0,0.0,0.0,0.0,0.0,0.0,0.0,0.0,0.0,0.0,0.0,0.0,0.0,0.0,0.0,0.0,0.0,0.0,0.0,0.0,0.0,0.0,0.0,0.0,0.0,0.0,0.0,0.0,0.0,0.0,0.0,0.0,0.0,0.0,0.0,0.0,0.0,0.0,0.0,0.0,0.0,0.0,0.0,0.0,0.0,0.0,0.0,0.0,0.0,0.0,0.0,0.0,0.0,0.0,0.0,0.0,0.0,0.0,0.0,0.0,0.0,0.0,0.0,0.0,0.0,0.0,0.0,0.0,0.0,0.0,0.0,0.0,0.0,0.0,0.0,0.0,0.0,0.0,0.0,0.0,0.0,0.0,0.0,0.0,0.0,0.0,0.0,0.0,0.0,0.0,0.0,0.0,0.0,0.0,0.2183,0.1974,0.1655,0.1296,0.0825,0.0402,0.0022,0.0,-0.0157,-0.0512,0.0,0.0,0.0,0.0,0.0,0.0,0.0,0.0,0.0,0.0,0.0,0.0,0.0,0.0,0.0,0.0,0.0,0.0,0.0,0.0,0.0,0.0,0.0,0.0,0.0,0.0,0.0,0.0,0.0,0.0,0.0,0.0,0.0,0.0,0.0,0.0,0.0,0.0,0.0,0.0,0.0,0.0,0.0,0.0,0.0,0.0,0.0,0.0,0.0,0.0,0.0,0.0,0.0,0.0,0.0,0.0,0.0,0.0,0.0,0.0,0.0,0.0,0.0,0.0,0.0,0.0,0.0,0.0,0.0,0.0,0.0,0.0,0.0,0.0,0.0,0.0,0.0,0.0,0.0,0.0,0.0,0.0,0.0,0.0,0.0,0.0,0.0,0.0,0.0,0.0,0.0,0.0,0.0,0.0,0.0,0.0,0.0,0.0,0.0,0.0,0.0,0.0,0.2227,0.1987,0.1808,0.1835,0.0787,0.0067,0.0,0.0,0.0,0.0,0.0,0.0,0.0,0.0,0.0,0.0,0.0,0.0,0.0,0.0,0.0,0.0,0.0,0.0,0.0,0.0,0.0,0.0,0.0,0.0,0.0,0.0,0.0,0.0,0.0,0.0,0.0,0.0,0.0,0.0,0.0,0.0,0.0,0.0,0.0,0.0,0.0,0.0,0.0,0.0,0.0,0.0,0.0,0.0,0.0,0.0,0.0,0.0,0.0,0.0,0.0,0.0,0.0,0.0,0.0,0.0,0.0,0.0,0.0,0.0,-0.4216,0.0,0.0,0.0,0.0,0.0,0.0,0.0,0.0,0.0,0.0,0.0,0.0,0.0,0.0,0.0,0.0,0.0,0.0,0.0,0.0,0.0,0.0,0.0,0.0,0.0,0.0,0.0,0.0,0.0,0.0,0.0,0.0,0.0,0.0,0.0,0.0,0.0,0.0,0.0,0.0,0.0,0.2421,0.2067,0.1856,0.2012,0.1227,0.0526,0.0049,0.0,0.0,0.0,-0.0245,0.0,0.0,0.0,0.0,0.0,0.0,0.0,0.0,0.0,0.0,0.0,0.0,0.0,0.0,0.0,0.0,0.0,0.0,0.0,0.0,0.0,0.0,0.0,0.0,0.0,0.0,0.0,0.0,0.0,0.0,0.0,0.0,0.0,0.0,0.0,0.0,0.0,0.0,0.0,0.0,0.0,0.0,0.0,0.0,0.0,0.0,0.0,0.0,0.0,0.0,0.0,0.0,0.0,0.0,0.0,0.0,0.0,0.0,0.0,0.0,-0.4523,0.0,0.0,0.0,0.0,0.0,0.0,0.0,0.0,0.0,0.0,0.0,0.0,0.0,0.0,0.0,0.0,0.0,0.0,0.0,0.0,0.0,0.0,0.0,0.0,0.0,0.0,0.0,0.0,0.0,0.0,0.0,0.0,0.0,0.0,0.0,0.0,0.0,0.0,0.0,0.0,0.2743,0.2323,0.2011,0.2081,0.1807,0.1176,0.01,0.0,0.0,0.0,0.0,0.0,0.0,0.0,0.0,0.0,0.0,0.0,0.0,0.0,0.0,0.0,0.0,0.0,0.0,0.0,0.0,0.0,0.0,0.0,0.0,0.0,0.0,0.0,0.0,0.0,0.0,0.0,0.0,0.0,0.0,0.0,0.0,0.0,0.0,0.0,0.0,0.0,0.0,0.0,0.0,0.0,0.0,0.0,0.0,0.0,0.0,0.0,0.0,0.0,0.0,0.0,0.0,0.0,-0.3073,-0.2406,-0.1474,-0.1698,-0.1801,-0.1874,-0.3561,-0.4151,-0.403,-0.449,0.0,0.0,0.0,0.0,0.0,0.0,0.0,0.0,0.0,0.0,0.0,0.0,0.0,0.0,0.0,0.0,0.0,0.0,0.0,0.0,0.0,0.0,0.0,0.0,-0.239,-0.1775,0.0,0.0,0.0,0.0,0.0,0.0,0.0,0.0,0.0,0.0,0.0,0.0,0.2981,0.2546,0.22,0.2192,0.2329,0.1859,0.0539,0.0253,0.0146,0.0158,0.0156,0.0225,0.0,0.0,0.0,0.0,0.0,0.0,0.0,0.0,0.0,0.0,0.0,0.0,0.0,0.0,0.0,0.0,0.0,0.0,0.0,0.0,0.0,0.0,0.0,0.0,0.0,0.0,0.0,0.0,0.0,0.0,0.0,0.0,-1.0965,-1.0282,0.0,0.0,0.0,0.0,0.0,0.0,0.0,0.0,0.0,0.0,0.0,0.0,0.0,-0.3909,-0.3752,-0.3806,-0.3742,-0.3561,-0.1479,-0.0404,-0.0269,-0.1303,-0.1792,-0.1868,-0.3141,0.0,-0.318,-0.3614,0.0,0.0,0.0,0.0,0.0,0.0,0.0,0.0,0.0,0.0,0.0,0.0,0.0,0.0,0.0,0.0,0.0,0.0,0.0,0.0,0.0,0.0,-0.2908,-0.3406,-0.2389,-0.1656,0.0,-0.2092,-0.1064,-0.1191,-0.1211,0.0,0.0,0.0,0.0,0.0,0.0,0.0,0.2733,0.2438,0.2308,0.2595,0.2483,0.2318,0.2102,0.1277,0.0778,0.0785,0.0781,0.1132,0.1868,0.1954,0.0,0.0,0.0,0.0,0.0,0.0,0.0,0.0,0.0,0.0,0.0,0.0,0.0,0.0,0.0,0.0,0.0,0.0,0.0,0.0,0.0,0.0,0.0,0.0,0.0,0.0,0.0,0.0,0.0,-1.2018,-1.1333,-1.0159,-1.0552,-1.0656,0.0,0.0,0.0,0.0,0.0,0.0,0.0,0.0,0.0,-0.1578,-0.1535,-0.1514,-0.1514,-0.1567,-0.1591,-0.1581,-0.05,0.0,-0.0,-0.0539,-0.0808,-0.0807,-0.1345,-0.1857,-0.2389,-0.2998,-0.3834,-0.4739,0.0,0.0,0.0,0.0,-0.4793,-0.4578,-0.4635,-0.377,0.0,-0.219,0.0,0.0,0.0,0.0,0.0,0.0,0.0,0.0,0.0,0.0,-0.1234,-0.1482,-0.1033,-0.0701,-0.1239,-0.0395,0.0331,0.0,-0.0296,-0.0102,0.0836,0.0,0.0,0.0,0.0,0.2698,0.2995,0.2722,0.2537,0.2699,0.2627,0.258,0.2557,0.1949,0.1581,0.1634,0.162,0.179,0.2196,0.1886,0.1827,0.0,0.0,0.0,0.0,0.0,0.0,0.0,0.0,0.0,0.0,0.0,0.0,0.0,0.0,0.0,0.0,0.0,0.0,0.0,0.0,0.0,0.0,0.0,0.0,0.0,0.0,0.0,0.0,-1.1322,-1.1166,-0.9924,-1.0103,-1.0123,0.0,0.0,0.0,0.0,0.0,0.0,-0.4451,-0.2991,-0.1217,0.0866,0.0939,0.0641,0.0,0.0,0.0,0.0,0.0,0.0,0.0,0.0,0.0,0.0,0.0,-0.0699,-0.1848,-0.2708,-0.3392,-0.3947,-0.4356,-0.4704,-0.4973,-0.4841,-0.4632,-0.446,-0.4604,-0.361,-0.2167,-0.1598,0.0,-0.2946,-0.3509,0.0,0.0,0.0,0.0,-0.2778,-0.2174,-0.1004,0.0,0.0,0.0,0.0175,0.077,0.1416,0.168,0.0,0.0706,0.0982,0.1918,0.0,0.0,0.0,0.0,0.2808,0.3097,0.2874,0.2712,0.2712,0.2712,0.269,0.2667,0.2361,0.2191,0.2211,0.2196,0.2212,0.2235,0.1812,0.1937,0.2694,0.0,0.0,0.0,0.0,0.0,0.0,0.0,0.0,0.0,0.0,0.0,0.0,0.0,0.0,0.0,0.0,0.0,0.0,0.0,0.0,0.0,0.0,0.0,0.0,0.0,0.0,0.0,0.0,0.0,-0.8405,-0.8617,0.0,0.0,0.0,0.0,-0.6987,-0.5614,-0.4429,-0.3598,-0.3541,-0.1356,0.3292,0.3405,0.2334,0.0,0.0,0.0,0.0,0.0,0.0,0.0,0.0,0.0,0.0,0.0,-0.0701,-0.189,-0.2858,-0.3633,-0.4184,-0.4192,-0.4446,-0.4691,-0.4494,-0.4095,-0.3554,-0.3023,-0.3138,-0.3309,-0.2156,-0.2462,-0.3293,-0.3306,-0.3453,0.0,0.0,-0.3576,-0.3035,-0.0712,-0.0078,0.0,0.0,0.0,0.0623,0.2937,0.3457,0.3138,0.0,0.2172,0.2616,0.2824,0.0,0.2721,0.2739,0.2719,0.2712,0.2712,0.2716,0.2712,0.2712,0.2712,0.2651,0.2527,0.2506,0.2414,0.2221,0.2204,0.2259,0.2384,0.2358,0.2442,0.2705,0.2693,0.0,0.0,0.0,0.0,0.0,0.0,0.0,0.0,0.0,0.0,0.0,0.0,0.0,0.0,0.0,0.0,0.0,0.0,0.0,0.0,0.0,0.0,0.0,0.0,0.0,0.0,0.0,0.0,-0.8819,-0.874,0.0,-0.8242,-0.7291,-0.6454,-0.5925,-0.5047,-0.3894,-0.2495,-0.1698,-0.0515,0.1235,0.2783,0.3192,0.2304,0.0766,0.0,0.0,0.0,0.0,0.0,0.0,0.0,0.0,0.0,-0.024,-0.0805,-0.2711,-0.349,-0.3512,-0.3492,-0.3566,-0.3581,-0.295,-0.3093,-0.3547,-0.3354,-0.2387,-0.1462,-0.2598,-0.3051,-0.3034,-0.2268,-0.2735,-0.3578,-0.3602,-0.249,-0.1091,-0.0206,0.1164,0.23,0.233,0.1723,0.1405,0.227,0.2945,0.3305,0.301,0.3043,0.3118,0.3135,0.3063,0.2943,0.2957,0.2886,0.2791,0.2726,0.2712,0.2712,0.2712,0.2712,0.2692,0.2637,0.2541,0.2503,0.252,0.2432,0.2452,0.2586,0.2609,0.2644,0.269,0.2332,0.2014,0.0,0.0,0.0,0.0,0.0,0.0,0.0,0.0,0.0,0.0,0.0,0.0,0.0,0.0,0.0,0.0,0.0,0.0,0.0,0.0,0.0,0.0,0.0,0.0,0.0,0.0,-0.8998,-0.8842,-0.8532,-0.8238,-0.807,-0.6917,-0.5935,-0.5341,-0.4587,-0.3465,-0.1893,-0.0666,0.0,0.0,0.1543,0.236,0.2391,0.0794,0.0,0.0,0.0,0.0,0.0,0.0,0.0,0.0,0.0,0.0,-0.0101,-0.1717,-0.2476,-0.2681,-0.2669,-0.2926,-0.3212,-0.2638,-0.2386,-0.2392,-0.2392,-0.1334,-0.0268,-0.1868,-0.2772,-0.3114,-0.2337,-0.2199,-0.2375,-0.2404,-0.1213,0.0,0.0,0.181,0.3619,0.3584,0.2989,0.2417,0.2417,0.2914,0.3444,0.3591,0.3399,0.3256,0.3299,0.3182,0.3082,0.3082,0.3042,0.2944,0.2842,0.2829,0.2829,0.2829,0.2788,0.2757,0.2757,0.2699,0.2661,0.2709,0.2664,0.2661,0.2712,0.2712,0.2686,0.2696,0.232,0.2152,0.2259,0.0,0.0,0.0,0.0,0.0,0.0,0.0,0.0,0.0,0.0,0.0,0.0,0.0,0.0,0.0,0.0,0.0,0.0,0.0,0.0,0.0,0.0,0.0,-0.857,-0.8446,-0.8276,-0.8253,-0.7795,-0.7482,-0.7443,-0.6253,-0.543,-0.53,-0.4233,-0.3058,-0.1857,-0.0669,0.0,0.0,0.0,0.0,0.0,0.0,0.0055,0.016,0.0055,0.0,0.0,0.0,0.0,0.0,0.0,0.0,0.0,0.0,-0.0708,-0.1722,-0.1764,-0.2472,-0.3503,-0.3503,-0.2024,0.0,0.0,0.0,0.0,0.0,-0.1564,-0.3503,-0.3503,-0.1871,0.0,0.0,0.0,0.0,0.0,0.1767,0.3563,0.3604,0.3605,0.3598,0.3598,0.3588,0.3581,0.3581,0.3341,0.3142,0.3289,0.3192,0.3095,0.3088,0.3088,0.0,0.3082,0.3082,0.3085,0.3088,0.3005,0.2924,0.2924,0.2917,0.2852,0.27,0.2822,0.2839,0.2726,0.2719,0.2696,0.271,0.271,0.3169,0.4102,0.0,0.0,0.0,0.0,0.0,0.0,0.0,0.0,0.0,0.0,0.0,0.0,0.0,0.0,0.0,0.0,0.0,0.0,0.0,0.0,0.0,0.0,-0.7657,-0.7614,-0.7667,-0.7478,-0.6852,-0.6888,-0.6895,-0.6586,-0.5634,-0.5048,-0.4996,-0.4139,-0.3068,-0.1854,-0.0671,0.0,0.0,0.0,0.0,0.0,0.0,0.1116,0.3214,0.106,0.0,0.0,0.0,0.0,0.0,0.0,0.0,0.0,0.0,-0.0218,-0.0488,-0.0514,-0.0706,-0.1011,-0.101,-0.0555,0.0,0.0,0.0,0.0,0.0,-0.0454,-0.1009,-0.1011,-0.0515,0.0,0.0,0.0,0.0,0.0,0.1143,0.2499,0.3404,0.3595,0.3585,0.3585,0.3581,0.3581,0.3581,0.351,0.3466,0.351,0.348,0.3415,0.3262,0.3286,0.0,0.3134,0.3082,0.3122,0.3236,0.3209,0.3229,0.3269,0.3127,0.3002,0.2856,0.2781,0.2774,0.2846,0.2846,0.2896,0.3002,0.3005,0.3271,0.0,0.0,0.0,0.0,0.0,0.0,0.0,0.0,0.0,0.0,0.0,0.0,0.0,0.0,0.0,0.0,0.0,0.0,0.0,0.0,0.0,0.0,-0.7301,-0.692,-0.6393,-0.6631,-0.6717,-0.6248,-0.6423,-0.6447,-0.6227,-0.5475,-0.4985,-0.4915,-0.4302,-0.3337,-0.1858,-0.0647,0.0,0.0,0.0,0.0,0.0,0.0,0.0897,0.2583,0.2133,0.1233,0.0,0.0,0.0,0.0,0.0,0.0,0.0,0.0,0.0,0.0,0.0,0.0,0.0,0.0,0.0,0.0,0.0,0.0,0.0,0.0,0.0,0.0,0.0,0.0,0.0,0.0,0.0,0.0,0.0,0.0998,0.2272,0.3485,0.3727,0.367,0.3628,0.3581,0.3581,0.3581,0.3581,0.0,0.3581,0.3581,0.3551,0.3459,0.3497,0.3523,0.3334,0.3419,0.3483,0.3449,0.3446,0.3419,0.3354,0.3269,0.0,0.0,0.0,0.2974,0.2998,0.2998,0.0,0.0,0.0,0.3805,0.4445,0.0,0.0,0.0,0.6284,0.6716,0.0,0.0,0.0,0.0,0.0,0.0,0.0,0.0,0.0,0.0,0.0,0.0,0.0,0.0,0.0,0.0,-0.6606,-0.5955,-0.5118,-0.5485,-0.5843,-0.5995,-0.6071,-0.6071,-0.6019,-0.5401,-0.4976,-0.4881,-0.4656,-0.371,-0.1926,0.0,0.0,0.0,0.0,0.0,0.0,0.0,0.0,0.0056,0.2701,0.2757,0.0505,0.0168,0.0,0.0,0.0,0.0,0.0,0.0,0.0,0.0,0.0,0.0,0.0,0.0,0.0,0.0,0.0,0.0,0.0,0.0,0.0,0.0,0.0,0.0,0.0,0.0,0.0,0.0056,0.043,0.1329,0.2532,0.3726,0.3931,0.3772,0.3684,0.3632,0.3629,0.3629,0.3629,0.3629,0.3629,0.3602,0.3581,0.3581,0.37,0.3744,0.3622,0.3846,0.3927,0.3683,0.0,0.0,0.3393,0.3366,0.3286,0.3118,0.3317,0.3331,0.3112,0.3178,0.3501,0.4144,0.4048,0.4377,0.5159,0.533,0.5791,0.6544,0.6391,0.6712,0.0,0.0,0.0,0.0,0.0,0.0,0.0,0.0,0.0,0.0,0.0,0.0,0.0,0.0,0.0,-0.6552,-0.5773,-0.4977,-0.4476,-0.4476,-0.4621,-0.483,-0.5329,-0.5433,-0.4903,-0.4689,-0.4624,-0.4595,-0.4505,-0.3802,-0.2211,-0.078,0.0,0.0,0.0,0.0,0.0,0.0,0.0,0.0,0.0,0.0,0.3543,0.1121,0.0,0.0,0.0,0.0,0.0,0.0,0.0,0.0,0.0,0.0,0.0,0.0,0.0,0.0,0.0,0.0,0.0,0.0,0.0,0.0,0.0,0.0,0.0,0.0,0.0,0.0556,0.3016,0.2932,0.253,0.3872,0.4058,0.3975,0.3929,0.3906,0.3934,0.3934,0.3934,0.3934,0.3934,0.3737,0.3581,0.3581,0.37,0.3782,0.3754,0.3907,0.4046,0.406,0.407,0.4006,0.3855,0.3778,0.3592,0.3279,0.3334,0.3379,0.3266,0.3534,0.3718,0.3887,0.3936,0.4065,0.4267,0.4751,0.539,0.615,0.6672,0.7236,0.0,0.0,0.0,0.0,0.0,0.0,0.0,0.0,0.0,0.0,0.0,-0.833,0.0,0.0,-0.7127,-0.6389,-0.5854,-0.5251,-0.4438,-0.4355,-0.4382,-0.4508,-0.4787,-0.4897,-0.4515,-0.4519,-0.4519,-0.4519,-0.4477,-0.3805,-0.2287,-0.0782,0.0,0.0,0.0,0.0,0.0,0.0,0.0,0.0,0.0,0.0784,0.2188,0.0672,0.0,0.0,0.0,0.0,0.0,0.0,0.0,0.0,0.0,0.0,0.0,0.0,0.0,0.0,0.0,0.0,0.0,0.0,0.0,0.0,0.0,0.0,0.0,0.0,0.0,0.067,0.3692,0.3948,0.3536,0.4171,0.4247,0.4083,0.4083,0.4023,0.4019,0.4019,0.4019,0.4019,0.4019,0.3897,0.3799,0.3799,0.3924,0.3992,0.3917,0.41,0.4216,0.409,0.415,0.4133,0.4033,0.3948,0.3843,0.3648,0.3687,0.3687,0.3638,0.3829,0.4048,0.4338,0.4421,0.4606,0.4898,0.5689,0.6297,0.6651,0.7534,0.7957,0.0,0.0,0.0,0.0,0.0,0.0,0.0,0.0,-0.9213,-0.8798,-0.8269,-0.7975,-0.8187,-0.7679,-0.7019,-0.6334,-0.6019,-0.5531,-0.4608,-0.4519,-0.4519,-0.4519,-0.4519,-0.4519,-0.4519,-0.4519,-0.4519,-0.4519,-0.4473,-0.3968,-0.2734,-0.1227,-0.0279,-0.0,0.0,0.0,0.0,0.0,0.0,0.0,0.0,0.0,0.0,0.0,0.0,0.0,0.0,0.0,0.0,0.0,0.0,0.0,0.0,0.0,0.0,0.0,0.0,0.0,0.0,0.0,0.0,0.0,0.0,0.0,0.0,0.0,0.0,0.0,0.0449,0.1345,0.3485,0.4271,0.449,0.448,0.4379,0.4237,0.4237,0.4192,0.4107,0.4107,0.4107,0.4107,0.4107,0.4111,0.409,0.4029,0.41,0.4153,0.403,0.4297,0.4372,0.4131,0.4216,0.4177,0.4026,0.4036,0.4019,0.4019,0.4019,0.4019,0.4019,0.4046,0.4264,0.4761,0.4793,0.5107,0.5743,0.6539,0.7001,0.7161,0.8004,0.8287,-1.0732,-1.0571,-1.0358,-1.0585,-0.997,-0.9448,0.0,0.0,-0.8776,-0.873,-0.8282,-0.793,-0.7916,-0.7083,-0.6334,-0.6232,-0.5354,-0.4659,-0.4515,-0.4519,-0.4519,-0.4519,-0.4519,-0.4519,-0.4519,-0.4519,-0.4519,-0.4519,-0.4473,-0.4421,-0.4252,-0.279,-0.1338,-0.0056,0.0,0.0,0.0,0.0,0.0,0.0,0.0,0.0,0.0,0.0,0.0,0.0,0.0,0.0,0.0,0.0,0.0,0.0,0.0,0.0,0.0,0.0,0.0,0.0,0.0,0.0,0.0,0.0,0.0,0.0,0.0,0.0,0.0,0.0,0.1908,0.3769,0.274,0.3466,0.4477,0.4522,0.4508,0.444,0.444,0.4481,0.4467,0.4467,0.4467,0.447,0.4426,0.4429,0.4334,0.406,0.41,0.4187,0.4174,0.4362,0.4505,0.447,0.4484,0.4379,0.418,0.4046,0.4019,0.4019,0.4019,0.4019,0.4019,0.41,0.4222,0.4275,0.4456,0.4895,0.5533,0.5662,0.6054,0.6661,0.6794,0.7534,-1.0728,-1.08,-1.0633,-1.0211,-0.9927,-0.9679,-0.9392,-0.8979,-0.8609,-0.8294,-0.7713,-0.7429,-0.8059,-0.7103,-0.6231,0.0,-0.5658,-0.4948,-0.457,-0.4519,-0.4519,-0.4519,-0.4541,-0.4596,-0.4596,-0.4677,-0.4728,-0.4728,-0.4731,-0.4679,-0.4513,-0.3915,-0.3261,-0.2617,-0.089,0.0,0.0,0.0,0.0,0.0,0.0,0.0,0.0,0.0,0.0,0.0,0.0,0.0,0.0,0.0,0.0,0.0,0.0,0.0,0.0,0.0,0.0,0.0,0.0,0.0,0.0,0.0,0.0,0.0,0.0,0.0,0.0,0.0,0.2188,0.434,0.3699,0.403,0.4477,0.4522,0.4519,0.4519,0.4519,0.4519,0.4519,0.4519,0.4519,0.4522,0.4477,0.448,0.4155,0.3113,0.3743,0.4392,0.4392,0.444,0.4525,0.4519,0.4519,0.4491,0.4379,0.4314,0.4277,0.4277,0.4277,0.4277,0.4277,0.4338,0.4372,0.4372,0.4433,0.4625,0.4893,0.5328,0.5651,0.5982,0.6421,0.7182,-1.065,-1.071,-1.0449,-0.9518,-0.9318,-0.9219,-0.8553,-0.8435,-0.8338,-0.7911,-0.7407,-0.7206,-0.7776,-0.6862,-0.6068,-0.6284,-0.571,-0.5054,-0.457,-0.4519,-0.4532,-0.4577,-0.4623,-0.4721,-0.4802,-0.4877,-0.4918,-0.4918,-0.486,-0.4806,-0.4571,-0.4136,-0.4081,-0.4479,-0.2412,-0.0855,-0.0,0.0,0.0,0.0,0.0,0.0,0.0,0.0,0.0,0.0,0.0,0.0,0.0,0.0,0.0,0.0,0.0,0.0,0.0,0.0,0.0,0.0,0.0,0.0,0.0,0.0,0.0,0.0,0.0,0.0,0.0,0.0,0.1569,0.3426,0.4271,0.4487,0.4477,0.4522,0.4519,0.4519,0.4519,0.4519,0.4519,0.4519,0.4519,0.4522,0.448,0.4141,0.3466,0.2347,0.314,0.3931,0.4092,0.4311,0.4525,0.4519,0.4519,0.4519,0.4519,0.4519,0.4519,0.4519,0.4519,0.4519,0.4519,0.4519,0.4519,0.4519,0.4519,0.457,0.4787,0.5273,0.5487,0.5487,0.6036,0.6691,-1.0524,-1.0059,-0.9222,-0.8353,-0.7766,-0.7451,-0.7694,-0.7753,-0.7753,-0.77,-0.77,-0.7486,-0.6794,-0.6027,-0.5534,-0.5538,-0.4948,-0.4515,-0.4519,-0.4519,-0.4573,-0.4667,-0.4687,-0.4802,0.0,-0.4996,-0.4918,-0.4918,-0.4867,-0.4813,-0.4809,-0.3197,-0.2956,-0.4467,-0.4402,-0.2966,-0.0,0.0,0.0,0.0,0.0,0.0,0.0,0.0,0.0,0.0,0.0,0.0,0.0,0.0,0.0,0.0,0.0,0.0,0.0,0.0,0.0,0.0,0.0,0.0,0.0,0.0,0.0,0.0,0.0,0.0,0.0,0.0,0.0056,0.0837,0.3758,0.4487,0.4477,0.4522,0.4519,0.4519,0.4519,0.4519,0.4519,0.4519,0.4519,0.4525,0.449,0.3244,0.2235,0.2189,0.2247,0.2467,0.2954,0.3901,0.4519,0.4519,0.4519,0.4519,0.4519,0.4519,0.4519,0.4519,0.4519,0.4519,0.4519,0.4519,0.4519,0.4519,0.4519,0.4842,0.5487,0.5487,0.5487,0.5487,0.5542,0.5928,-0.9859,-0.938,-0.8704,-0.7822,-0.72,-0.6871,-0.695,-0.6966,-0.6966,-0.6966,-0.6526,-0.6158,-0.642,-0.5474,-0.479,-0.5263,-0.488,-0.4519,-0.4519,-0.4519,-0.4573,-0.4674,-0.4779,0.0,0.0,0.0,0.0,-0.5206,-0.5223,-0.4699,-0.3452,-0.3988,-0.347,-0.1572,-0.1506,-0.1038,-0.0,0.0,0.0,0.0,0.0,0.0,0.0,0.0,0.0,0.0,0.0,0.0,0.0,0.0,0.0,0.0,0.0,0.0,0.0,0.0,0.0,0.0,0.0,0.0,0.0,0.0,0.0,0.0,0.0,0.0,0.0,0.0,0.0,0.0447,0.2458,0.3747,0.4477,0.4522,0.4519,0.4519,0.4519,0.4519,0.4519,0.4519,0.4519,0.4525,0.4494,0.3244,0.1843,0.0897,0.0729,0.1512,0.3697,0.4314,0.448,0.4519,0.4519,0.4519,0.4519,0.4519,0.4519,0.4519,0.4519,0.4519,0.4519,0.4519,0.4519,0.4519,0.4519,0.4625,0.4842,0.4952,0.4947,0.4947,0.4947,0.5624,-0.8868,-0.8339,-0.7753,-0.6875,-0.642,-0.6199,-0.6199,-0.6199,-0.6199,-0.6199,-0.5875,-0.5657,-0.5729,-0.506,-0.4625,-0.4945,-0.4725,-0.4536,-0.4591,-0.4545,-0.4619,-0.4823,-0.4935,-0.5074,0.0,0.0,0.0,-0.5425,-0.5426,-0.4616,-0.2813,-0.3191,-0.2382,-0.0067,0.0,0.0,0.0,0.0,0.0,0.0,0.0,0.0,0.0,0.0,0.0,0.0,0.0,0.0,0.0,0.0,0.0,0.0,0.0,0.0,0.0,0.0,0.0,0.0,0.0,0.0,0.0,0.0,0.0,0.0,0.0,0.0,0.0,0.0,0.0,0.0335,0.184,0.3352,0.448,0.4522,0.4519,0.4519,0.4519,0.4519,0.4519,0.4519,0.4519,0.4525,0.4494,0.2796,0.1118,0.0168,0.0897,0.2128,0.3471,0.415,0.4484,0.4519,0.4519,0.4519,0.4519,0.4519,0.4519,0.4519,0.4519,0.4519,0.4519,0.457,0.4573,0.4519,0.4568,0.4599,0.4545,0.4697,0.4745,0.4691,0.4691,0.5285,-0.7564,-0.7042,-0.6367,-0.5651,-0.5487,-0.5433,-0.5433,-0.5433,-0.5487,-0.5487,-0.5866,-0.584,0.0,0.0,-0.4963,-0.4535,-0.4512,-0.457,-0.467,-0.4691,-0.4802,0.0,0.0,0.0,0.0,0.0,0.0,-0.5396,0.0,-0.4585,-0.2827,-0.0967,0.0,0.0,0.0,0.0,0.0,0.0,0.0,0.0,0.0,0.0,0.0,0.0,0.0,0.0,0.0,0.0,0.0,0.0,0.0,0.0,0.0,0.0,0.0,0.0,0.0,0.0,0.0,0.0,0.0,0.0,0.0,0.0,0.0,0.0,0.0,0.0,0.0,0.0336,0.179,0.336,0.449,0.4522,0.4519,0.4519,0.4519,0.4519,0.4519,0.4519,0.4519,0.447,0.4379,0.1959,0.0,0.0,0.2589,0.4002,0.24,0.3519,0.4473,0.4519,0.4519,0.4522,0.4529,0.4529,0.4529,0.4529,0.4529,0.4525,0.4519,0.4609,0.4623,0.4532,0.4765,0.4847,0.4704,0.4857,0.4857,0.4714,0.4707,0.5019,-0.6848,-0.6303,-0.576,-0.5542,-0.5109,-0.4732,-0.4732,-0.4732,-0.4893,-0.5378,-0.5504,-0.5444,0.0,0.0,0.0,-0.44,-0.4392,0.0,-0.467,-0.4691,0.0,-0.5254,0.0,-0.542,-0.5718,-0.5691,0.0,0.0,-0.5474,-0.4605,-0.2777,-0.0988,0.0,0.0,0.0,0.0,0.0,0.0,0.0,0.0,0.0,0.0,0.0,0.0,0.0,0.0,0.0,0.0,0.0,0.0,0.0,0.0,0.0,0.0,0.0,0.0,0.0,0.0,0.0,0.0,0.0,0.0,0.0,0.0,0.0,0.0,0.0,0.0,0.0,0.0338,0.1841,0.3365,0.449,0.4522,0.4519,0.4519,0.4519,0.4519,0.4519,0.4519,0.4477,0.4147,0.2961,0.123,0.0,0.0,0.2973,0.4461,0.2464,0.3519,0.4473,0.4519,0.4519,0.4563,0.4623,0.4633,0.4633,0.4633,0.4633,0.4582,0.4522,0.4609,0.4674,0.4633,0.4819,0.4901,0.486,0.5006,0.5057,0.5016,0.4911,0.5191,-0.5841,-0.5395,-0.5062,-0.5058,-0.4787,-0.4519,-0.4519,-0.4732,-0.5058,-0.5433,-0.5606,-0.5657,-0.543,-0.5274,0.0,0.0,0.0,0.0,-0.4716,-0.4911,-0.5111,0.0,-0.5583,0.0,-0.5891,-0.5909,-0.5573,0.0,-0.5078,-0.4953,-0.3937,-0.1437,0.0,0.0,0.0,0.0,0.0,0.0,0.0,0.0,0.0,0.0,0.0,0.0,0.0,0.0,0.0,0.0,0.0,0.0,0.0,0.0,0.0,0.0,0.0,0.0,0.0,0.0,0.0,0.0,0.0,0.0,0.0,0.0,0.0,0.0,0.0,0.0,0.0,0.0173,0.101,0.296,0.4691,0.4616,0.4667,0.4663,0.4663,0.4663,0.4663,0.4663,0.4561,0.3981,0.2448,0.0981,0.0,0.0,0.2376,0.4065,0.3629,0.4268,0.4735,0.4663,0.4663,0.4697,0.4782,0.4792,0.4792,0.4792,0.4792,0.4752,0.4667,0.4806,0.4853,0.4792,0.5003,0.5081,0.5013,0.5159,0.5165,0.5036,0.4955,0.5083,-0.4532,-0.4366,-0.448,-0.4525,-0.4522,-0.4519,-0.4519,-0.5003,-0.5538,-0.5651,-0.5995,-0.6134,-0.5729,-0.5358,-0.499,-0.4549,0.0,-0.4578,-0.4786,-0.5125,-0.5443,-0.5689,-0.5884,-0.5904,-0.5617,-0.6046,-0.5491,-0.3675,-0.4471,-0.5225,-0.5488,-0.1981,0.0,0.0,0.0,0.0,0.0,0.0,0.0,0.0,0.0,0.0,0.0,0.0,0.0,0.0,0.0,0.0,0.0,0.0,0.0,0.0,0.0,0.0,0.0,0.0,0.0,0.0,0.0,0.0,0.0,0.0,0.0,0.0,0.0,0.0,0.0,0.0,0.0,0.0,0.0,0.2285,0.4636,0.4816,0.4867,0.4918,0.4918,0.4918,0.4918,0.4918,0.4687,0.4075,0.2458,0.0963,0.018,0.0618,0.1876,0.3368,0.5181,0.5221,0.5057,0.4921,0.4918,0.4925,0.4945,0.4948,0.4948,0.4948,0.4948,0.4938,0.4918,0.5053,0.5074,0.4948,0.522,0.5294,0.5162,0.5294,0.523,0.4979,0.4955,0.4806,-0.2679,-0.3524,-0.4494,-0.449,-0.4484,-0.4477,-0.4477,-0.5011,0.0,0.0,-0.6445,-0.6484,-0.6416,-0.5896,-0.5237,-0.4622,-0.4592,-0.4686,-0.4837,-0.5054,-0.5274,0.0,-0.5811,-0.5266,-0.372,-0.5254,0.0,0.0,0.0,-0.43,-0.6015,-0.2207,0.0,0.0,0.0,0.0,0.0,0.0,0.0,0.0,0.0,0.0,0.0,0.0,0.0,0.0,0.0,0.0,0.0,0.0,0.0,0.0,0.0,0.0,0.0,0.0,0.0,0.0,0.0,0.0,0.0,0.0,0.0,0.0,0.0,0.0,0.0,0.0,0.0,0.0,0.0,0.1504,0.3385,0.4751,0.4992,0.4918,0.4918,0.4918,0.4918,0.4918,0.4877,0.4262,0.2519,0.0981,0.099,0.4035,0.3439,0.3323,0.5153,0.5147,0.4921,0.4918,0.4918,0.4965,0.5084,0.5094,0.5094,0.5094,0.5094,0.504,0.4925,0.5053,0.5118,0.5094,0.527,0.5415,0.5321,0.5415,0.5401,0.5281,0.5155,0.5064,-0.106,-0.1619,-0.2402,-0.3466,-0.3741,-0.3852,-0.4359,0.0,0.0,-0.6529,-0.6588,-0.6588,-0.6588,-0.5714,0.0,-0.457,-0.4535,-0.4693,-0.4854,-0.5133,-0.4599,-0.2964,-0.4675,-0.5748,0.0,-0.5671,-0.5358,0.0,0.0,-0.4254,-0.3066,-0.1074,0.0,0.0,0.0,0.0,0.0,0.0,0.0,0.0,0.0,0.0,0.0,0.0,0.0,0.0,0.0,0.0,0.0,0.0,0.0,0.0,0.0,0.0,0.0,0.0,0.0,0.0,0.0,0.0,0.0,0.0,0.0,0.0,0.0,0.0,0.0,0.0,0.0,0.0,0.0,0.2021,0.4268,0.5047,0.5229,0.5152,0.5159,0.5159,0.5159,0.5165,0.5182,0.4861,0.4009,0.3257,0.3391,0.5153,0.469,0.4417,0.5289,0.5243,0.5148,0.5148,0.5148,0.5179,0.5243,0.525,0.525,0.525,0.525,0.522,0.5152,0.5213,0.525,0.525,0.5325,0.5428,0.5428,0.5428,0.5321,0.524,0.5165,0.5091,0.0,0.0,-0.0558,-0.279,-0.3347,-0.3514,-0.4298,-0.5445,0.0,-0.6367,-0.6367,-0.6367,-0.6367,-0.5332,-0.4519,0.0,-0.4542,-0.4644,-0.4864,-0.5206,-0.432,0.0,-0.4192,0.0,-0.6332,-0.5514,0.0,0.0,0.0,0.0,-0.0157,0.0,0.0,0.0,0.0,0.0,0.0,0.0,0.0,0.0,0.0,0.0,0.0,0.0,0.0,0.0,0.0,0.0,0.0,0.0,0.0,0.0,0.0,0.0,0.0,0.0,0.0,0.0,0.0,0.0,0.0,0.0,0.0,0.0,0.0,0.0,0.0,0.0,0.0,0.0,0.0,0.2087,0.4448,0.5192,0.5382,0.5372,0.5379,0.5106,0.4837,0.4846,0.5129,0.5413,0.5413,0.5391,0.5418,0.5396,0.5425,0.5377,0.5428,0.5369,0.5428,0.5428,0.5428,0.5428,0.5428,0.5428,0.5428,0.5428,0.5428,0.5428,0.5428,0.5428,0.5428,0.5428,0.5428,0.5428,0.5428,0.5428,0.5298,0.5179,0.5179,0.5121,0.0,0.0,-0.0728,-0.3655,-0.4389,-0.4376,-0.448,0.0,-0.5597,-0.5597,-0.5597,-0.5597,-0.5597,-0.5003,-0.4519,-0.4519,-0.4659,-0.4762,-0.4793,-0.514,-0.5265,-0.4963,0.0,0.0,-0.6267,-0.2832,0.0,0.0,0.0,0.0,-0.0,0.0,0.0,0.0,0.0,0.0,0.0,0.0,0.0,0.0,0.0,0.0,0.0,0.0,0.0,0.0,0.0,0.0,0.0,0.0,0.0,0.0,0.0,0.0,0.0,0.0,0.0,0.0,0.0,0.0,0.0,0.0,0.0,0.0,0.0,0.0,0.0,0.0,0.0,0.0,0.0,0.0269,0.1339,0.4643,0.5393,0.5393,0.5393,0.4095,0.2945,0.2947,0.4306,0.5413,0.5413,0.5403,0.5396,0.541,0.5382,0.5428,0.5376,0.5369,0.5428,0.5428,0.5428,0.5428,0.5428,0.5428,0.5428,0.5428,0.5428,0.5428,0.5428,0.5428,0.5428,0.5428,0.5428,0.5428,0.5428,0.5428,0.5422,0.5342,0.5342,0.5332,0.0,0.0,-0.0504,-0.2575,-0.3814,-0.449,-0.4473,0.0,-0.5487,-0.5487,-0.5487,-0.5487,-0.5487,-0.4948,-0.4519,-0.4525,-0.4584,0.0,-0.4607,-0.4731,-0.4167,-0.2386,-0.2375,0.0,0.0,0.0,0.0,0.0,0.0,0.0,0.0,0.0,0.0,0.0,0.0,0.0,0.0,0.0,0.0,0.0,0.0,0.0,0.0,0.0,0.0,0.0,0.0,0.0,0.0,0.0,0.0,0.0,0.0,0.0,0.0,0.0,0.0,0.0,0.0,0.0,0.0,0.0,0.0,0.0,0.0,0.0,0.0,0.0,0.0,0.0,0.0,0.0,0.0335,0.1809,0.295,0.4097,0.5196,0.4855,0.3699,0.1478,0.1681,0.2155,0.2155,0.3027,0.4172,0.5205,0.5386,0.5369,0.5376,0.5369,0.5428,0.5428,0.5428,0.5428,0.5428,0.5428,0.5428,0.5428,0.5428,0.5428,0.5428,0.5428,0.5428,0.5428,0.5428,0.5428,0.5428,0.5428,0.5428,0.5428,0.5428,0.5428,0.0,-0.0668,-0.1456,-0.2065,-0.3355,-0.4487,0.0,0.0,-0.5218,-0.5218,-0.5218,-0.5218,-0.5218,-0.4842,-0.4522,-0.4477,0.0,-0.3999,-0.4432,-0.3722,-0.2395,0.0,0.0,-0.1185,0.0,0.0,0.0,0.0,0.0,0.0,0.0,0.0,0.0,0.0,0.0,0.0,0.0,0.0,0.0,0.0,0.0,0.0,0.0,0.0,0.0,0.0,0.0,0.0,0.0,0.0,0.0,0.0,0.0,0.0,0.0,0.0,0.0,0.0,0.0,0.0,0.0,0.0,0.0,0.0,0.0,0.0,0.0,0.0,0.0,0.0,0.0,0.0,0.0,0.0,0.1006,0.2281,0.3504,0.3777,0.3032,0.0472,0.0,0.0,0.0,0.1476,0.3286,0.5135,0.5382,0.5432,0.5376,0.5369,0.5428,0.5428,0.5428,0.5428,0.5428,0.5428,0.5428,0.5428,0.5428,0.5428,0.5428,0.5428,0.5428,0.5428,0.5428,0.5428,0.5428,0.5406,0.543,0.543,0.5471,0.5627,0.0,-0.2186,-0.4107,-0.2569,-0.335,-0.4477,0.0,-0.4519,-0.4519,-0.4519,-0.4519,-0.4519,-0.4519,-0.4519,-0.4522,-0.4477,-0.3239,0.0,-0.4302,-0.1927,-0.0065,0.0,0.0,-0.0,-0.0076,0.0,0.0,0.0,0.0,0.0,0.0,0.0,0.0,0.0,0.0,0.0,0.0,0.0,0.0,0.0,0.0,0.0,0.0,0.0,0.0,0.0,0.0,0.0,0.0,0.0,0.0,0.0,0.0,0.0,0.0,0.0,0.0,0.0,0.0,0.0,0.0,0.0,0.0,0.0,0.0,0.0,0.0,0.0,0.0,0.0,0.0,0.0,0.0,0.0,0.0,0.0,0.0067,0.0067,0.0067,0.0,0.0,0.0,0.0,0.1476,0.3286,0.5135,0.5382,0.5432,0.5376,0.5369,0.5428,0.5428,0.5428,0.5428,0.5428,0.5428,0.5428,0.5428,0.5428,0.5428,0.5428,0.5428,0.5428,0.5428,0.5428,0.5428,0.5428,0.5515,0.5589,0.5593,0.5732,0.6222,0.0,-0.1882,-0.3887,-0.3793,-0.4024,-0.4355,-0.4443,-0.4519,-0.4519,-0.4519,-0.4519,-0.4519,-0.4519,-0.4519,-0.4522,-0.4477,-0.3516,0.0,0.0,0.0,0.0,0.0,0.0,0.0,0.0,0.0,0.0,0.0,0.0,0.0,0.0,0.0,0.0,0.0,0.0,0.0,0.0,0.0,0.0,0.0,0.0,0.0,0.0,0.0,0.0,0.0,0.0,0.0,0.0,0.0,0.0,0.0,0.0,0.0,0.0,0.0,0.0,0.0,0.0,0.0,0.0,0.0,0.0,0.0,0.0,0.0,0.0,0.0,0.0,0.0,0.0,0.0,0.0,0.0,0.0,0.0,0.0,0.0,0.0,0.0,0.1978,0.3664,0.3664,0.4154,0.477,0.5329,0.5379,0.5432,0.5376,0.5369,0.5428,0.5428,0.5428,0.5428,0.5428,0.5428,0.5428,0.5428,0.5428,0.541,0.5511,0.5518,0.5562,0.5661,0.5566,0.5518,0.5518,0.5566,0.5589,0.5593,0.5735,0.6239,-0.0104,-0.1423,-0.3103,-0.394,-0.4184,0.0,-0.4362,-0.4423,-0.4519,-0.4519,-0.4519,-0.4519,-0.4519,-0.4522,-0.4525,-0.4477,-0.3958,0.0,0.0,0.0,0.0,0.0,0.0,0.0,0.0,0.0,0.0,0.0,0.0,0.0,0.0,0.0,0.0,0.0,0.0,0.0,0.0,0.0,0.0,0.0,0.0,0.0,0.0,0.0,0.0,0.0,0.0,0.0,0.0,0.0,0.0,0.0,0.0,0.0,0.0,0.0,0.0,0.0,0.0,0.0,0.0,0.0,0.0,0.0,0.0,0.0,0.0,0.0,0.0,0.0,0.0,0.0,0.0,0.0,0.0,0.0,0.0,0.0,0.0415,0.1797,0.3891,0.5373,0.5391,0.5433,0.5514,0.5399,0.5423,0.543,0.5379,0.5432,0.5428,0.5428,0.5428,0.5452,0.5443,0.5463,0.5428,0.5428,0.5416,0.5491,0.5586,0.564,0.5688,0.5722,0.5637,0.5589,0.5589,0.5701,0.5786,0.5844,0.5874,0.6154,0.0,-0.1081,-0.2209,-0.3383,-0.3955,-0.4197,-0.4207,-0.4365,0.0,-0.4519,-0.4519,-0.4519,-0.4519,-0.4525,-0.448,-0.448,-0.4508,0.0,0.0,-0.1743,0.0,0.0,0.0,0.0,0.0,0.0,0.0,0.0,0.0,0.0,0.0,0.0,0.0,0.0,0.0,0.0,0.0,0.0,0.0,0.0,0.0,0.0,0.0,0.0,0.0,0.0,0.0,0.0,0.0,0.0,0.0,0.0,0.0,0.0,0.0,0.0,0.0,0.0,0.0,0.0,0.0,0.0,0.0,0.0,0.0,0.0,0.0,0.0,0.0,0.0,0.0,0.0,0.0,0.0,0.0,0.0,0.0,0.0,0.1087,0.4772,0.545,0.5443,0.544,0.561,0.5645,0.543,0.5521,0.5549,0.5463,0.5452,0.5452,0.5428,0.5439,0.5437,0.5579,0.546,0.5449,0.5459,0.5528,0.561,0.562,0.5749,0.5762,0.564,0.5627,0.5616,0.5606,0.5891,0.6105,0.624,0.6108,0.6118,-0.2876,0.0,-0.3562,-0.4167,-0.4257,-0.4224,0.0,0.0,0.0,0.0,0.0,-0.4519,-0.4519,-0.4525,-0.448,-0.448,0.0,0.0,-0.0755,0.0,0.0,0.0,0.0,0.0,0.0,0.0,0.0,0.0,0.0,0.0,0.0,0.0,0.0,0.0,0.0,0.0,0.0,0.0,0.0,0.0,0.0,0.0,0.0,0.0,0.0,0.0,0.0,0.0,0.0,0.0,0.0,0.0,0.0,0.0,0.0,0.0,0.0,0.0,0.0,0.0,0.0,0.0,0.0,0.0,0.0,0.0,0.0,0.0,0.0,0.0,0.0,0.0,0.0,0.0,0.0,0.0,0.0,0.0,0.118,0.5264,0.5909,0.5708,0.5805,0.5817,0.5742,0.5708,0.5732,0.5698,0.5555,0.563,0.561,0.5452,0.5467,0.5552,0.5586,0.5555,0.5583,0.5691,0.5732,0.5803,0.5922,0.5959,0.6017,0.6101,0.5986,0.5867,0.5752,0.5939,0.6051,0.6088,0.6169,0.6162,-0.3627,-0.3678,-0.3821,-0.4131,-0.4104,-0.4077,-0.4226,0.0,0.0,0.0,0.0,-0.4519,-0.4525,-0.448,0.0,0.0,-0.0821,0.0,0.0,0.0,0.0,0.0,0.0,0.0,0.0,0.0,0.0,0.0,0.0,0.0,0.0,0.0,0.0,0.0,0.0,0.0,0.0,0.0,0.0,0.0,0.0,0.0,0.0,0.0,0.0,0.0,0.0,0.0,0.0,0.0,0.0,0.0,0.0,0.0,0.0,0.0,0.0,0.0,0.0,0.0,0.0,0.0,0.0,0.0,0.0,0.0,0.0,0.0,0.0,0.0,0.0,0.0,0.0,0.0,0.0,0.0,0.0,0.0,0.0669,0.2976,0.4792,0.6026,0.6016,0.5928,0.5861,0.5725,0.5759,0.5749,0.5606,0.5657,0.5644,0.5484,0.5599,0.5661,0.5596,0.5711,0.5793,0.58,0.5867,0.5942,0.6027,0.6098,0.6142,0.6156,0.6071,0.5989,0.5908,0.6061,0.6135,0.6139,0.622,0.6217,-0.3528,-0.3614,-0.3667,-0.3887,-0.3887,-0.3863,-0.3995,0.0,0.0,0.0,0.0,0.0,-0.448,-0.4147,0.0,0.0,0.0,0.0,0.5911,0.4079,0.2364,0.0,0.0,0.0,0.0,0.0,0.0,0.0,0.0,0.0,0.0,0.0,0.0,0.0,0.0,0.0,0.0,0.0,0.0,0.0,0.0,0.0,0.0,0.0,0.0,0.0,0.0,0.0,0.0,0.0,0.0,0.0,0.0,0.0,0.0,0.0,0.0,0.0,0.0,0.0,0.0,0.0,0.0,0.0,0.0,0.0,0.0,0.0,0.0,0.0,0.0,0.0,0.0,0.0,0.0,0.0,0.0,0.0,0.0074,0.0441,0.3385,0.5842,0.6054,0.6067,0.5979,0.5728,0.5793,0.581,0.5644,0.5644,0.563,0.5562,0.5701,0.5752,0.5633,0.5874,0.5983,0.5878,0.5993,0.6064,0.6064,0.6193,0.6186,0.6034,0.6054,0.6054,0.603,0.6183,0.6338,0.6338,0.6338,0.6338,-0.3339,-0.3614,-0.3693,-0.4073,-0.4154,-0.4111,-0.4043,0.0,0.0,0.0,0.0,0.0,0.0,-0.2399,-0.0556,0.0,0.0,0.6051,0.0,0.0,0.0,0.0,0.0,0.0,0.0,0.0,0.0,0.0,0.0,0.0,0.0,0.0,0.0,0.0,0.0,0.0,0.0,0.0,0.0,0.0,0.0,0.0,0.0,0.0,0.0,0.0,0.0,0.0,0.0,0.0,0.0,0.0,0.0,0.0,0.0,0.0,0.0,0.0,0.0,0.0,0.0,0.0,0.0,0.0,0.0,0.0,0.0,0.0,0.0,0.0,0.0,0.0,0.0,0.0,0.0,0.0,0.0,0.0,0.0543,0.2318,0.3168,0.4176,0.596,0.629,0.621,0.6166,0.6176,0.6088,0.5806,0.5881,0.5817,0.5437,0.564,0.5793,0.5772,0.5928,0.6074,0.6183,0.6213,0.6227,0.6227,0.6247,0.6186,0.6034,0.6159,0.6162,0.603,0.6183,0.6338,0.6338,0.6338,0.6338,-0.3266,-0.3605,-0.3638,-0.3842,-0.2827,-0.1804,0.0,0.0,0.0,0.0,0.0,0.0,0.0,0.0,0.0817,0.288,0.0,0.0,0.0,0.0,0.0,0.0,0.0,0.0,0.0,0.0,0.0,0.0,0.0,0.0,0.1969,0.1969,0.1969,0.1969,0.1969,0.1343,0.0,0.1127,0.1103,0.0,0.0,0.0,0.0,0.0,0.0,0.0,0.0,0.0,0.0,0.0,0.0,0.0,0.0,0.0,0.0,0.0,0.0,0.0,0.0,0.0,0.0,0.0,0.0,0.0,0.0,0.0,0.0,0.0,0.0,0.0,0.0,0.0,0.0,0.0,0.0,0.0,0.0,0.0,0.0314,0.1253,0.3287,0.5174,0.6122,0.6271,0.6234,0.6149,0.6135,0.6054,0.583,0.5864,0.5827,0.5623,0.5793,0.5891,0.581,0.6017,0.6183,0.6254,0.6338,0.6338,0.6338,0.6338,0.6227,0.6156,0.6224,0.6227,0.6156,0.6227,0.6338,0.6338,0.6338,0.6338,-0.3194,-0.3194,-0.2887,-0.3472,0.0,0.0,0.0,0.0,0.0,0.0,0.0,0.0,0.0,0.1198,0.0,0.5386,0.0,0.0,0.0,0.0,0.0,0.0,0.0,0.0,0.0,0.0,0.0,0.0,0.0,0.0,0.4349,0.4347,0.4339,0.4316,0.4425,0.3549,0.1687,0.2662,0.2613,0.143,0.0491,0.0,0.0,0.0,0.055,0.1414,0.0393,0.0,0.0,0.0,0.0,0.0,0.0,0.0,0.0,0.0,0.0,0.0,0.0,0.0,0.0,0.0,0.0,0.0,0.0,0.0,0.0,0.0,0.0,0.0,0.0,0.0,0.0,0.0,0.0,0.0,0.0,0.0,0.0,0.0,0.2585,0.5101,0.6132,0.6278,0.6224,0.6105,0.6088,0.6034,0.5961,0.5867,0.5778,0.5813,0.5942,0.6,0.5915,0.6125,0.6338,0.6338,0.6338,0.6338,0.6338,0.6338,0.6338,0.6338,0.6338,0.6338,0.6338,0.6338,0.6338,0.6338,0.6338,0.6338,-0.2973,-0.1944,-0.0803,-0.3058,-0.3459,0.0,0.3016,0.4182,0.0,0.4174,0.0,0.0,0.0,0.4317,0.467,0.5308,0.0,0.0,0.0,0.0,0.0,0.0,0.0,0.0,0.0,0.0,0.0,0.0,0.0,0.0,0.6471,0.6464,0.649,0.6444,0.6744,0.673,0.6554,0.4595,0.4372,0.5823,0.1847,0.0,0.0,0.0,0.2121,0.5608,0.1728,0.0,0.0,0.0,0.0,0.0,0.0,0.0,0.0,0.0,0.0,0.0,0.0,0.0,0.0,0.0,0.0,0.0,0.0,0.0,0.0,0.0,0.0,0.0,0.0,0.0,0.0,0.0,0.0,0.0,0.0,0.0,0.0,0.0,0.0235,0.1721,0.5643,0.6278,0.6271,0.6261,0.6261,0.629,0.6235,0.5986,0.5774,0.5702,0.5885,0.6095,0.6217,0.6247,0.6338,0.6338,0.6338,0.6338,0.6338,0.6338,0.6338,0.6338,0.6338,0.6338,0.6338,0.6338,0.6338,0.6338,0.6338,0.6338,-0.1099,-0.0702,0.0143,0.0716,0.1135,0.0,0.0,0.3588,0.3744,0.4385,0.4498,0.0,0.0,0.0,0.5087,0.5447,0.0,0.0,0.0,0.0,0.0,0.0,0.0,0.0,0.0,0.0,0.0,0.0,0.0,0.0,0.6863,0.677,0.6736,0.6861,0.6919,0.7,0.7102,0.6112,0.5958,0.6616,0.4989,0.2678,0.0,0.0,0.2306,0.6247,0.4577,0.2435,0.0,0.0,0.0,0.0,0.0,0.0,0.0,0.0,0.0,0.0,0.0,0.0,0.0,0.0,0.0,0.0,0.0,0.0,0.0,0.0,0.0,0.0,0.0,0.0,0.0,0.0,0.0,0.0,0.0,0.0,0.0,0.0,0.0,0.047,0.2111,0.454,0.6278,0.6278,0.6278,0.6227,0.6156,0.4919,0.4215,0.4538,0.5557,0.621,0.6257,0.6268,0.6268,0.6338,0.6338,0.6338,0.6338,0.6338,0.6338,0.6338,0.6338,0.6338,0.6338,0.6338,0.6338,0.6338,0.6338,0.6338,0.0279,0.0619,0.1707,0.3427,0.0,0.0,0.3616,0.3458,0.3689,0.4343,0.4525,0.0,0.4663,0.0,0.0,0.0,0.0,0.0,0.0,0.0,0.0,0.0,0.0,0.0,0.0,0.0,0.0,0.0,0.0,0.0,0.0,0.6712,0.6658,0.6715,0.6807,0.6912,0.6937,0.6959,0.6867,0.6917,0.6827,0.5064,0.2022,0.1294,0.2961,0.6315,0.6325,0.4247,0.0939,0.0235,0.0,0.0,0.0,0.0,0.0,0.0,0.0,0.0,0.0,0.0,0.0,0.0,0.0,0.0,0.0,0.0,0.0,0.0,0.0,0.0,0.0,0.0,0.0,0.0,0.0,0.0,0.0,0.0,0.0,0.0,0.0,0.0,0.0,0.2425,0.4779,0.6132,0.6295,0.578,0.4287,0.2978,0.2749,0.4505,0.5668,0.6116,0.5709,0.6032,0.6274,0.6338,0.6338,0.6338,0.6338,0.6338,0.6338,0.6338,0.6338,0.6338,0.6338,0.6338,0.6338,0.6264,0.6305,0.6329,0.0849,0.1967,0.4043,0.4407,0.0,0.0,0.4426,0.4487,0.4477,0.448,0.4525,0.4567,0.4663,0.0,0.0,0.0,0.0,0.0,0.0,0.0,0.0,0.0,0.0,0.0,0.0,0.0,0.0,0.0,0.0,0.0,0.0,0.6556,0.6407,0.6268,0.6546,0.6698,0.6702,0.6851,0.6997,0.7136,0.6854,0.673,0.6508,0.4212,0.4318,0.6278,0.6291,0.5096,0.2968,0.086,0.0,0.0,0.0,0.0,0.0,0.0,0.0,0.0,0.0,0.0,0.0,0.0,0.0,0.0,0.0,0.0,0.0,0.0,0.0,0.0,0.0,0.0,0.0,0.0,0.0,0.0,0.0079,0.0079,0.0079,0.0,0.0,0.0,0.0,0.0,0.1411,0.5686,0.6329,0.4807,0.055,0.0,0.157,0.5767,0.6308,0.573,0.4295,0.5479,0.6274,0.6338,0.6264,0.6264,0.6338,0.6264,0.6264,0.6338,0.6264,0.6264,0.6342,0.6264,0.6342,0.6345,0.641,0.6474,0.3132,0.2934,0.0,0.288,0.0,0.0,0.0,0.4485,0.0,0.0,0.4551,0.4636,0.468,0.0,0.0,0.0,0.0,0.0,0.0,0.0,0.0,0.0,0.0,0.0,0.0,0.0,0.0,0.0,0.0,0.0,0.0,0.6556,0.6454,0.641,0.6495,0.6593,0.6698,0.6746,0.6844,0.699,0.6797,0.6771,0.6737,0.5981,0.586,0.6278,0.6291,0.5967,0.5087,0.1486,0.0,0.0,0.0,0.0,0.0,0.0,0.0,0.0,0.0,0.0,0.0,0.0,0.0,0.0,0.0,0.0,0.0,0.0,0.0,0.0,0.0,0.0,0.0,0.0,0.0,0.0785,0.3777,0.4413,0.354,0.0549,0.0,0.0,0.0,0.0,0.1411,0.5686,0.6329,0.4807,0.055,0.0,0.047,0.1724,0.4562,0.5746,0.4295,0.5485,0.6281,0.6264,0.6356,0.6366,0.6342,0.6356,0.6363,0.6342,0.6464,0.6519,0.641,0.6519,0.6569,0.6569,0.6614,0.663,0.4222,0.3803,0.0,0.3116,0.38,0.4512,0.452,0.0,0.0,0.0,0.0,0.4711,0.4769,0.5223,0.0,0.0,0.0,0.0,0.0,0.0,0.0,0.0,0.0,0.0,0.0,0.0,0.0,0.0,0.0,0.0,0.0,0.6468,0.6386,0.6386,0.6441,0.6515,0.661,0.661,0.6715,0.6926,0.6805,0.674,0.6791,0.6651,0.65,0.6271,0.6285,0.6288,0.5967,0.1721,0.0,0.0,0.0,0.0,0.0,0.0,0.0,0.0,0.0,0.0,0.0,0.0,0.0,0.0,0.0,0.0,0.032,0.2051,0.2515,0.212,0.0471,0.0627,0.141,0.2277,0.2515,0.2986,0.4638,0.5674,0.5517,0.2982,0.1175,0.0,0.0,0.0,0.0863,0.3381,0.3777,0.2909,0.0314,0.0,0.0,0.0,0.2277,0.3469,0.2612,0.493,0.6486,0.6447,0.6522,0.6525,0.6437,0.6519,0.6495,0.6346,0.658,0.6654,0.6563,0.6654,0.6702,0.6702,0.6763,0.6793,0.4512,0.4487,0.0,0.4588,0.4588,0.0,0.4519,0.4519,0.4522,0.4536,0.0,0.4758,0.4911,0.5294,0.0,0.0,0.0,0.0,0.0,0.0,0.0,0.0,0.0,0.0,0.0,0.0,0.0,0.0,0.0,0.0,0.0,0.6349,0.6274,0.6338,0.6386,0.6454,0.6454,0.6454,0.66,0.6881,0.6784,0.6722,0.6675,0.6536,0.64,0.6264,0.6274,0.6285,0.598,0.1957,0.0157,0.0,0.0,0.0239,0.0566,0.0158,0.0,0.0,0.0,0.0,0.0,0.0,0.0325,0.0651,0.0652,0.0482,0.1105,0.4904,0.6185,0.5378,0.1568,0.1955,0.3917,0.5855,0.6335,0.5758,0.3832,0.4937,0.6302,0.6322,0.3061,0.0235,0.0,0.0,0.0,0.0,0.0,0.0,0.0,0.0,0.0,0.0,0.0,0.0,0.0,0.391,0.6515,0.6639,0.6642,0.6715,0.6702,0.6715,0.6651,0.6498,0.6658,0.6732,0.6722,0.6732,0.6742,0.6746,0.6881,0.6949,0.4525,0.4473,0.0,0.0,0.5277,0.5167,0.4625,0.4519,0.4553,0.4616,0.4762,0.4914,0.5057,0.0,0.0,0.0,0.0,0.0,0.0,0.0,0.0,0.0,0.0,0.0,0.0,0.0,0.0,0.0,0.0,0.0,0.6478,0.6444,0.6376,0.6264,0.6291,0.6305,0.6305,0.6305,0.6393,0.0,0.6476,0.6465,0.6522,0.6585,0.6496,0.6274,0.6268,0.6288,0.6081,0.3522,0.1487,0.0,0.0,0.2048,0.4523,0.1259,0.0,0.0,0.0,0.0,0.0,0.0,0.2522,0.5569,0.5587,0.4246,0.2964,0.3639,0.5007,0.6061,0.5148,0.5283,0.5783,0.6458,0.6472,0.6139,0.5724,0.596,0.6285,0.6288,0.4226,0.1954,0.0313,0.0,0.0,0.0,0.0,0.0,0.0,0.0,0.0,0.0,0.0,0.0,0.0,0.2662,0.5012,0.6649,0.6827,0.6824,0.6705,0.6817,0.6807,0.6654,0.6912,0.699,0.6878,0.699,0.7044,0.7048,0.7078,0.7095,0.4525,0.0,0.0,0.4948,0.0,0.5324,0.468,0.4573,0.4596,0.4674,0.4813,0.4962,0.0,0.0,0.0,0.0,0.0,0.0,0.0,0.0,0.0,0.0,0.0,0.0,0.0,0.0,0.0,0.0,0.0,0.6454,0.6376,0.6373,0.6335,0.6342,0.6338,0.6338,0.6338,0.6338,0.6332,0.6471,0.6396,0.64,0.6471,0.65,0.6476,0.6383,0.5659,0.5652,0.6172,0.3966,0.3086,0.2833,0.0795,0.1357,0.3271,0.3082,0.1741,0.0,0.0,0.0,0.0,0.0,0.3203,0.7089,0.7073,0.6167,0.5041,0.4943,0.5526,0.6169,0.5439,0.5789,0.6315,0.6469,0.6424,0.6322,0.6451,0.6424,0.6376,0.6311,0.5424,0.3649,0.055,0.0,0.0,0.0,0.0,0.0,0.0,0.0,0.0,0.0,0.0,0.0929,0.3241,0.3495,0.4536,0.6767,0.7,0.6993,0.6915,0.6987,0.6959,0.6814,0.7027,0.7102,0.7031,0.7105,0.7139,0.7139,0.7139,0.718,0.4519,0.0,0.468,0.468,0.5109,0.0,0.468,0.4562,0.4667,0.4718,0.485,0.4992,0.0,0.0,0.0,0.0,0.0,0.0,0.0,0.0,0.0,0.0,0.0,0.0,0.0,0.0,0.0,0.0,0.0,0.6338,0.6338,0.6338,0.6338,0.6338,0.6338,0.6338,0.6338,0.6338,0.6318,0.6434,0.6434,0.6451,0.6468,0.6366,0.6291,0.6128,0.5045,0.5254,0.6097,0.4,0.4393,0.5943,0.258,0.1134,0.1448,0.4223,0.3277,0.0806,0.1112,0.0947,0.0636,0.0581,0.3488,0.7047,0.7083,0.6891,0.6784,0.6812,0.6644,0.6133,0.4919,0.5413,0.6274,0.6312,0.6295,0.6346,0.6607,0.6563,0.6481,0.6351,0.6357,0.4934,0.0713,0.0,0.0,0.0,0.0,0.0,0.0,0.0,0.034,0.1101,0.1189,0.2658,0.6219,0.5068,0.5007,0.6986,0.7064,0.7139,0.7139,0.7139,0.7085,0.6966,0.7082,0.7139,0.7139,0.7139,0.7153,0.718,0.7153,0.7224,0.4519,0.0,0.5378,0.0,0.5433,0.5324,0.0,0.0,0.4568,0.0,0.5003,0.0,0.0,0.0,0.0,0.0,0.0,0.0,0.0,0.0,0.0,0.0,0.0,0.0,0.0,0.0,0.0,0.0,0.6338,0.6338,0.6338,0.6338,0.6338,0.6338,0.6338,0.6338,0.6338,0.6338,0.6349,0.6288,0.6288,0.6356,0.6471,0.6558,0.5842,0.455,0.5556,0.6129,0.6169,0.4008,0.4328,0.6264,0.616,0.5876,0.5048,0.2002,0.1992,0.3855,0.5565,0.4859,0.3076,0.2742,0.4601,0.6812,0.6813,0.683,0.6878,0.6895,0.6787,0.6634,0.6118,0.6149,0.6312,0.6524,0.6448,0.6305,0.6468,0.6485,0.6478,0.6585,0.6448,0.4973,0.0729,0.0,0.0,0.0,0.0,0.0,0.0,0.0,0.1592,0.5748,0.6192,0.5625,0.4182,0.5614,0.6792,0.7084,0.7064,0.7139,0.7139,0.7139,0.7132,0.7112,0.7132,0.7139,0.7139,0.7139,0.721,0.7336,0.7204,0.7224,0.4519,0.5003,0.5433,0.0,0.5546,0.5928,0.5218,0.0,0.5832,0.5844,0.0,0.0,0.0,0.0,0.0,0.0,0.0,0.0,0.0,0.0,0.0,0.0,0.0,0.0,0.0,0.0,0.0,0.0,0.6003,0.6003,0.6003,0.6003,0.6044,0.6129,0.6132,0.6173,0.6261,0.6338,0.6338,0.6338,0.6338,0.6335,0.6471,0.6479,0.6136,0.5592,0.6245,0.6458,0.6254,0.5272,0.4055,0.299,0.5669,0.6534,0.6074,0.4202,0.4465,0.5934,0.6489,0.6183,0.555,0.5202,0.5903,0.6816,0.6719,0.6729,0.68,0.68,0.6695,0.6566,0.6421,0.6376,0.6285,0.6431,0.6441,0.6525,0.6586,0.6532,0.6151,0.5106,0.3774,0.2152,0.0319,0.0,0.0,0.0,0.0,0.0,0.0,0.2309,0.4752,0.6864,0.7084,0.6653,0.5636,0.6539,0.7081,0.7068,0.7058,0.7139,0.7139,0.7139,0.7139,0.7139,0.7139,0.7139,0.7139,0.7139,0.7221,0.737,0.7302,0.7394,0.0,0.0,0.5164,0.4842,0.5441,0.5987,0.0,0.0,0.651,0.0,0.0,0.0,0.0,0.0,0.0,0.0,0.0,0.0,0.0,0.0,0.0,0.0,0.0,0.0,0.0,0.0,0.0,0.0,0.58,0.58,0.58,0.58,0.5854,0.5969,0.601,0.6084,0.62,0.624,0.6338,0.6338,0.6298,0.6369,0.6471,0.6403,0.65,0.6579,0.6555,0.6493,0.6339,0.6281,0.4152,0.1176,0.4924,0.6368,0.6237,0.5937,0.6317,0.6871,0.6462,0.6659,0.6919,0.6715,0.6661,0.6747,0.6629,0.6602,0.6658,0.6736,0.662,0.6471,0.6471,0.6366,0.6338,0.6338,0.6458,0.6664,0.6742,0.6671,0.6156,0.4546,0.1935,0.0,0.0,0.0,0.0,0.0,0.1042,0.1764,0.1793,0.4403,0.6483,0.7032,0.7108,0.7091,0.7078,0.7078,0.7071,0.7143,0.7139,0.7139,0.7139,0.7139,0.7139,0.7139,0.7139,0.7139,0.7139,0.718,0.7278,0.7431,0.7431,0.7567,0.0,0.5555,0.0,0.5269,0.5003,0.0,0.0,0.0,0.0,0.0,0.0,0.0,0.0,0.0,0.0,0.0,0.0,0.0,0.0,0.0,0.0,0.0,0.0,0.0,0.0,0.0,0.0,0.0,0.58,0.58,0.58,0.58,0.5803,0.5813,0.5956,0.6034,0.604,0.6186,0.6338,0.6342,0.6396,0.6464,0.6478,0.6614,0.6603,0.6468,0.6342,0.6305,0.6329,0.6315,0.4945,0.321,0.5633,0.6489,0.6122,0.505,0.5345,0.6376,0.6527,0.6572,0.6568,0.6478,0.6478,0.6512,0.6658,0.66,0.6546,0.6834,0.6702,0.6471,0.6471,0.6366,0.6338,0.6338,0.6376,0.6563,0.6854,0.6833,0.6665,0.6228,0.2847,0.0,0.0,0.0,0.0,0.0,0.3857,0.6761,0.6767,0.502,0.4648,0.6903,0.7088,0.7078,0.7143,0.7143,0.7143,0.7139,0.7139,0.7139,0.7139,0.7139,0.7139,0.7139,0.7139,0.7139,0.7139,0.7288,0.7438,0.7587,0.7587,0.7668,0.0,0.0,0.0,0.5433,0.5655,0.5932,0.615,0.6956,0.7521,0.7122,0.0,0.0,0.0,0.0,0.0,0.0,0.0,0.0,0.0,0.0,0.0,0.0,0.0,0.0,0.0,0.0,0.0,0.0,0.0,0.5518,0.5518,0.5518,0.5562,0.5661,0.5718,0.5837,0.6027,0.6084,0.6162,0.6338,0.6312,0.6383,0.6471,0.6434,0.6527,0.6568,0.6342,0.5805,0.494,0.4462,0.4621,0.5257,0.61,0.6329,0.6288,0.5849,0.5972,0.6493,0.6445,0.6468,0.6586,0.6396,0.6396,0.6464,0.643,0.6444,0.6474,0.6495,0.6485,0.6451,0.6359,0.6298,0.6308,0.6498,0.6508,0.6556,0.6861,0.6854,0.6736,0.6552,0.5189,0.3151,0.0494,0.0,0.0,0.0,0.4017,0.7119,0.7125,0.6379,0.6177,0.6996,0.7251,0.7299,0.7288,0.7288,0.7329,0.7428,0.7343,0.7333,0.7431,0.7339,0.7288,0.7288,0.719,0.7139,0.7139,0.7193,0.7353,0.76,0.76,0.7675,0.6912,0.0,0.0,0.0,0.6258,0.6642,0.6912,0.0,0.8321,0.7777,0.0,0.0,0.0,0.0,0.0,0.0,0.0,0.0,0.0,0.0,0.0,0.0,0.0,0.0,0.0,0.0,0.0,0.0,0.0,0.0,0.5287,0.5332,0.5433,0.5586,0.5589,0.5705,0.5949,0.6003,0.6081,0.6183,0.6285,0.638,0.6468,0.6376,0.6472,0.6568,0.6417,0.5796,0.4851,0.4377,0.5012,0.6288,0.6278,0.6278,0.6281,0.6268,0.6407,0.6489,0.6379,0.639,0.6522,0.6325,0.6325,0.6393,0.6346,0.6366,0.639,0.6346,0.6366,0.638,0.6285,0.6338,0.6322,0.6566,0.6546,0.6529,0.6732,0.678,0.6729,0.6637,0.6522,0.5553,0.2606,0.1645,0.1169,0.1187,0.4595,0.7095,0.7104,0.7091,0.7074,0.7074,0.7241,0.7316,0.7366,0.737,0.7438,0.759,0.7506,0.7495,0.7597,0.7451,0.737,0.737,0.7217,0.7166,0.7217,0.7217,0.735,0.76,0.7648,0.7723,0.0,0.0,0.0,0.0,0.0,0.0,0.7557,0.0,0.7723,0.7723,0.0,0.0,0.0,0.0,0.0,0.0,0.0,0.0,0.0,0.0,0.0,0.0,0.0,0.0,0.0,0.0,0.0,0.0,0.5274,0.5291,0.5145,0.5281,0.543,0.5579,0.5583,0.565,0.5793,0.5942,0.602,0.6027,0.6318,0.6461,0.6461,0.6464,0.6464,0.6458,0.6322,0.6274,0.6295,0.6281,0.6278,0.6278,0.6268,0.6338,0.6338,0.6338,0.6338,0.6338,0.6338,0.6338,0.6338,0.6338,0.6338,0.6288,0.6424,0.6369,0.6288,0.6427,0.6366,0.6338,0.6338,0.6264,0.6302,0.6444,0.6474,0.6474,0.6478,0.6632,0.6763,0.6563,0.6585,0.6525,0.6332,0.489,0.3723,0.3725,0.5654,0.7084,0.7084,0.7064,0.7139,0.7139,0.7149,0.7214,0.7366,0.7383,0.7451,0.7604,0.7607,0.7607,0.7611,0.7465,0.7383,0.7383,0.7231,0.7227,0.738,0.7373,0.7451,0.7607,0.7746,0.7811,0.8427,0.0,0.0,0.0,0.0,0.0,0.767,0.8103,0.8315,0.783,0.0,0.0,0.0,0.0,0.0,0.0,0.0,0.0,0.0,0.0,0.0,0.0,0.0,0.0,0.0,0.0,0.0,0.0,0.5233,0.5223,0.5294,0.5338,0.5449,0.5423,0.5423,0.5498,0.5647,0.5691,0.5762,0.5867,0.6061,0.6152,0.6156,0.6268,0.6318,0.6318,0.6278,0.6264,0.6271,0.6268,0.6268,0.6268,0.6264,0.6338,0.6338,0.6338,0.6338,0.6338,0.6338,0.6338,0.6338,0.6338,0.6338,0.6345,0.6308,0.6291,0.6271,0.6308,0.6298,0.6274,0.6274,0.6342,0.6451,0.6603,0.6552,0.6502,0.6614,0.6545,0.61,0.5036,0.4994,0.5386,0.643,0.6158,0.5896,0.6082,0.6643,0.7084,0.7084,0.7064,0.7139,0.7139,0.7339,0.7489,0.7533,0.7631,0.7753,0.7909,0.7814,0.7801,0.7913,0.777,0.7689,0.7689,0.7546,0.7495,0.7536,0.7424,0.7502,0.7753,0.7794,0.7811,0.0,0.0,0.0,0.0,0.0,0.0,0.8156,0.848,0.8699,0.0,0.7937,0.0,0.0,0.0,0.0,0.0,0.0,0.0,0.0,0.0,0.0,0.0,0.0,0.0,0.0,0.5428,0.5311,0.5186,0.5206,0.5267,0.5422,0.5428,0.5428,0.5428,0.5428,0.547,0.5494,0.5559,0.5633,0.5715,0.5864,0.5969,0.6034,0.6125,0.62,0.6338,0.6338,0.6338,0.6254,0.6193,0.6203,0.6338,0.6338,0.6338,0.6338,0.6338,0.6338,0.6338,0.6338,0.6338,0.6338,0.6338,0.6338,0.6338,0.6338,0.6338,0.6338,0.6338,0.6268,0.6285,0.6342,0.6417,0.6512,0.6664,0.6583,0.6498,0.6586,0.6461,0.6147,0.528,0.5272,0.5688,0.6476,0.6746,0.6858,0.7035,0.7075,0.7071,0.7071,0.7061,0.7166,0.7227,0.7397,0.7553,0.7678,0.7763,0.7875,0.8028,0.7957,0.7946,0.8035,0.7892,0.7811,0.7811,0.7672,0.7631,0.7689,0.7539,0.7587,0.7811,0.7811,0.7845,0.0,0.0,0.0,0.0,0.8804,0.0,0.8804,0.8804,0.8804,0.8804,0.8262,0.0,0.0,0.0,0.0,0.0,0.0,0.0,0.0,0.0,0.0,0.0,0.0,0.0,0.5428,0.5428,0.525,0.4989,0.5213,0.5422,0.5338,0.5418,0.5428,0.5428,0.5428,0.5428,0.5428,0.5498,0.5566,0.5566,0.5708,0.5857,0.6006,0.6023,0.6115,0.6338,0.6338,0.6338,0.6251,0.6112,0.6135,0.6335,0.624,0.6244,0.6338,0.6338,0.6338,0.6338,0.6338,0.6338,0.6338,0.6338,0.6338,0.6338,0.6338,0.6338,0.6338,0.6264,0.6264,0.6295,0.6437,0.6485,0.6536,0.6688,0.661,0.6502,0.6519,0.6498,0.6441,0.6342,0.6461,0.6609,0.6658,0.6763,0.6932,0.6949,0.7075,0.7166,0.7166,0.718,0.7244,0.738,0.7411,0.7526,0.7787,0.7828,0.7892,0.8031,0.8038,0.8038,0.8038,0.7909,0.7834,0.7834,0.7712,0.7709,0.7834,0.7709,0.7712,0.7834,0.7834,0.7909,0.0,0.0,0.0,0.0,0.0,0.0,0.8804,0.8804,0.8804,0.8804,0.8699,0.8593,0.0,0.0,0.0,0.0,0.0,0.0,0.0,0.0,0.0,0.0,0.0,0.0,0.5428,0.5428,0.5404,0.5281,0.5394,0.5308,0.5182,0.5294,0.5428,0.5428,0.5428,0.5428,0.5428,0.5459,0.5473,0.5473,0.5559,0.5705,0.585,0.5973,0.6115,0.6338,0.6338,0.6338,0.6257,0.623,0.6234,0.6247,0.6125,0.6149,0.6338,0.6338,0.6338,0.6338,0.6338,0.6338,0.6338,0.6338,0.6338,0.6338,0.6338,0.6338,0.6264,0.6274,0.6268,0.6376,0.6541,0.6661,0.6695,0.6848,0.6766,0.6692,0.6814,0.6647,0.6502,0.66,0.6668,0.6736,0.6831,0.6892,0.6966,0.7082,0.7231,0.7326,0.7326,0.7434,0.7522,0.7553,0.7658,0.7746,0.7807,0.7923,0.8007,0.8038,0.8038,0.8038,0.8038,0.8011,0.7994,0.7994,0.7967,0.7967,0.7994,0.7967,0.7967,0.7994,0.7994,0.8011,0.0,0.0,0.0,0.8804,0.0,0.0,0.0,0.8804,0.8804,0.8804,0.8804,0.8804,0.8804,0.0,0.0,0.0,0.0,0.0,0.0,0.0,0.0,0.0,0.0,0.0,0.5422,0.5428,0.5428,0.5428,0.5291,0.5247,0.5247,0.5318,0.5428,0.5428,0.5428,0.5428,0.5428,0.5428,0.5428,0.5428,0.544,0.5552,0.5701,0.5847,0.6,0.6149,0.6227,0.6338,0.6254,0.6176,0.6146,0.6146,0.6146,0.6146,0.6156,0.6234,0.6338,0.6338,0.6338,0.6338,0.6338,0.6338,0.6338,0.6338,0.6338,0.6338,0.6264,0.6268,0.6268,0.6393,0.6627,0.6651,0.6739,0.6892,0.6871,0.6814,0.6814,0.6756,0.6722,0.68,0.6871,0.6922,0.6926,0.6987,0.7058,0.7129,0.7272,0.737,0.737,0.7506,0.7628,0.7699,0.777,0.7841,0.7919,0.7994,0.8007,0.7929,0.7997,0.7974,0.7828,0.7963,0.8038,0.8038,0.8038,0.8038,0.8038,0.8038,0.8038,0.8035,0.7889,0.7858,0.0,0.0,0.0,0.0,0.0,0.9211,0.0,0.0,0.0,0.9008,0.9008,0.0,0.0,0.0,0.0,0.0,0.0,0.0,0.0,0.0,0.0,0.0,0.0,0.0,0.0,0.5536,0.5379,0.5321,0.5257,0.5247,0.5315,0.5411,0.5428,0.5428,0.5428,0.5428,0.5428,0.5428,0.5428,0.5428,0.5428,0.5443,0.5596,0.5735,0.5884,0.6037,0.6193,0.6338,0.6247,0.6095,0.6013,0.6003,0.6156,0.6139,0.6051,0.6203,0.6338,0.6338,0.6338,0.6338,0.6338,0.6338,0.6338,0.6338,0.6338,0.6338,0.6338,0.6338,0.6338,0.6322,0.6586,0.6658,0.6702,0.6885,0.6905,0.6868,0.68,0.6861,0.6939,0.6963,0.7061,0.7112,0.7027,0.7109,0.7193,0.7224,0.736,0.7455,0.7455,0.759,0.7729,0.7841,0.7855,0.7906,0.8028,0.8038,0.7987,0.7862,0.797,0.7933,0.7695,0.7913,0.8038,0.8038,0.8038,0.8038,0.8038,0.8038,0.8038,0.8031,0.7767,0.7702,0.0,0.0,0.0,0.0,1.099,0.0,0.0,0.0,1.0415,0.9814,0.0,0.9517,0.0,0.0,0.0,0.0,0.0,0.0,0.872,0.0,0.0,0.0,0.0,0.0,0.0,0.6104,0.545,0.5176,0.5393,0.5426,0.5169,0.5287,0.5428,0.5428,0.5428,0.5428,0.5428,0.5428,0.5428,0.5428,0.5428,0.5443,0.5596,0.5735,0.5884,0.6037,0.6193,0.6338,0.6247,0.6095,0.5949,0.584,0.5996,0.6044,0.6051,0.6203,0.6338,0.6338,0.6338,0.6338,0.6338,0.6338,0.6338,0.6338,0.6338,0.6338,0.6338,0.6338,0.6338,0.6298,0.6458,0.6498,0.6569,0.6861,0.6824,0.6793,0.7037,0.7004,0.6966,0.7092,0.7129,0.718,0.7302,0.7333,0.739,0.7526,0.7672,0.7763,0.7763,0.7896,0.7994,0.8011,0.8014,0.8021,0.8038,0.8038,0.8031,0.8014,0.8031,0.8024,0.7991,0.8021,0.8038,0.8038,0.8038,0.8038,0.8038,0.8038,0.8038,0.8035,0.7865,0.7794,0.0,0.0,0.0,0.0,0.0,0.0,1.119,0.0,1.0618,0.0,0.0,0.0,0.0,0.0,0.0,0.0,0.9162,0.0,0.0,0.0,0.8001,0.0,0.0,0.0,0.0,0.0,0.0,0.0,0.5335,0.5362,0.5142,0.5277,0.5428,0.5428,0.5428,0.5428,0.5428,0.5428,0.5428,0.5428,0.5428,0.5463,0.546,0.561,0.5711,0.5783,0.5928,0.5993,0.5989,0.5925,0.581,0.5701,0.5939,0.5976,0.5925,0.6169,0.6338,0.6338,0.6338,0.6338,0.6338,0.6338,0.6338,0.6338,0.6338,0.6338,0.6278,0.6359,0.6383,0.6417,0.6566,0.6671,0.6749,0.6787,0.6878,0.6966,0.7007,0.7037,0.7095,0.7244,0.7275,0.735,0.7587,0.7485,0.7424,0.7577,0.7719,0.7811,0.7811,0.7943,0.8038,0.8038,0.8038,0.8038,0.8038,0.8038,0.8001,0.7913,0.7831,0.7862,0.8031,0.7953,0.7946,0.8038,0.8038,0.8038,0.8038,0.795,0.7909,0.7902,0.7756,0.7733,1.3371,0.0,0.0,0.0,0.0,0.0,0.0,0.0,0.0,0.0,0.0,0.0,0.0,0.0,0.0,0.0,0.0,0.9325,0.0,0.9263,0.0,0.0,0.0,0.0,0.0,0.0,0.0,0.5461,0.5676,0.5577,0.5084,0.5257,0.5428,0.5428,0.5428,0.5428,0.5428,0.5428,0.5428,0.5428,0.5428,0.5428,0.5432,0.5518,0.5589,0.5596,0.5739,0.58,0.5796,0.5759,0.5684,0.5613,0.5867,0.5898,0.5837,0.6149,0.6338,0.6338,0.6338,0.6338,0.6338,0.6338,0.6338,0.6338,0.6338,0.6338,0.6291,0.643,0.6471,0.6498,0.661,0.6753,0.6837,0.6725,0.6895,0.7065,0.7,0.7102,0.7238,0.735,0.7404,0.7512,0.7767,0.7634,0.7543,0.7695,0.7807,0.7875,0.7875,0.797,0.8038,0.8038,0.8038,0.8038,0.8038,0.8038,0.7991,0.7882,0.7777,0.7818,0.8031,0.7933,0.7926,0.8038,0.8038,0.8038,0.8038,0.7885,0.7811,0.7807,0.7624,0.7614,0.0,0.0,0.0,1.4606,0.0,0.0,0.0,0.0,1.2618,0.0,0.0,0.0,0.0,0.0,0.0,0.0,0.0,0.0,0.0,0.0,0.0,0.0,0.0,0.0,0.0,0.0,0.0,0.6272,0.662,0.63,0.4948,0.5203,0.5428,0.5428,0.5428,0.5428,0.5428,0.5428,0.5428,0.5428,0.5428,0.5428,0.5432,0.5518,0.5589,0.5596,0.5739,0.58,0.5789,0.5654,0.5593,0.5603,0.5752,0.5803,0.5837,0.6149,0.6338,0.6338,0.6338,0.6338,0.6338,0.6338,0.6338,0.6338,0.6338,0.6338,0.6291,0.643,0.6471,0.6474,0.6478,0.6593,0.6705,0.6702,0.682,0.697,0.7105,0.7255,0.7366,0.737,0.7492,0.7638,0.7787,0.7804,0.7848,0.8001,0.8028,0.8031,0.8031,0.8035,0.8038,0.8038,0.8038,0.8038,0.8038,0.8038,0.8038,0.8031,0.8028,0.8028,0.8038,0.8035,0.8035,0.8038,0.8038,0.8038,0.8038,0.7885,0.7811,0.7804,0.7512,0.7461,0.0,0.0,1.5788,1.5421,0.0,0.0,0.0,0.0,0.0,0.0,0.0,0.0,0.0,0.0,0.0,0.0,0.0,0.0,0.0,0.0,0.0,0.0,0.0,0.0,0.0,0.0,0.0,0.6962,0.714,0.7061,0.6538,0.6328,0.6268,0.6268,0.5686,0.5428,0.5428,0.5428,0.5428,0.5428,0.5428,0.5428,0.5428,0.5416,0.544,0.544,0.5491,0.5511,0.5504,0.5457,0.544,0.5464,0.5705,0.58,0.5837,0.6149,0.6338,0.6338,0.6338,0.6338,0.6338,0.6338,0.6338,0.6338,0.6338,0.6325,0.643,0.658,0.6624,0.6647,0.6749,0.6814,0.6851,0.6851,0.6963,0.7109,0.7261,0.7333,0.7431,0.7624,0.7702,0.7787,0.7936,0.7963,0.798,0.8031,0.8038,0.8038,0.8038,0.8038,0.8038,0.8038,0.8038,0.8038,0.8038,0.8038,0.8038,0.8038,0.8038,0.8038,0.8038,0.8038,0.8038,0.8038,0.794,0.7936,0.8038,0.7689,0.7573,0.7662,0.736,0.7356,1.6522,1.6522,0.0,1.5764,1.5588,0.0,1.4835,0.0,0.0,0.0,0.0,0.0,0.0,0.0,0.0,0.0,0.0,0.0,0.0,0.9493,0.0,0.0,0.0,0.0,0.0,0.8854,0.8171,0.7672,0.796,0.7866,0.0,0.0,0.6719,0.6719,0.5881,0.5428,0.5428,0.5428,0.5428,0.5428,0.5428,0.5428,0.5428,0.5428,0.5428,0.5428,0.5428,0.5428,0.5428,0.5428,0.5459,0.5467,0.5708,0.5833,0.5915,0.6166,0.6338,0.6338,0.6338,0.6338,0.6338,0.6338,0.6295,0.6335,0.6335,0.6437,0.6583,0.6739,0.678,0.6803,0.6902,0.6966,0.699,0.6943,0.7037,0.7183,0.7336,0.7414,0.7526,0.7763,0.7855,0.7923,0.8021,0.8038,0.8038,0.8038,0.8038,0.8038,0.8038,0.8038,0.8038,0.8038,0.8038,0.8038,0.8038,0.8038,0.8038,0.8038,0.8038,0.8014,0.796,0.8011,0.8014,0.796,0.7862,0.7862,0.7957,0.7563,0.7421,0.7512,0.7258,0.7248]}]]